[[{"header":{"parameterUnit":"m.s-1","parameterCategory":1,"la1":31.0,"la2":29.5877,"lo1":-88.7671,"lo2":-86.6584,"dy":0.0162,"dx":0.0185,"nx":115,"ny":88,"refTime":"2023-05-06T00:00:00:Z","depth":0,"parameterNumber":2,"parameterNumberName":"U-component_of_WINDS"},"data":[0.0,0.0,0.0,0.0,0.0,0.0,0.0,0.0,0.0,0.0,0.0,0.0,0.0,0.0,0.0,0.0,0.0,0.0,0.0,0.0,0.0,0.0,0.0,0.0,0.0,0.0,0.0,0.0,0.0,0.0,0.0,0.0,0.0,0.0,0.0,0.0,0.0,0.0,0.0,0.0,0.0,0.0,0.0,0.0,0.0,0.0,0.0,0.0,0.0,0.0,0.0,0.0,0.0,0.0,0.0,0.0,0.0,0.0,0.0,0.0,0.0,0.0,0.0,0.0,0.0,0.0,0.0,0.0,0.0,0.0,0.0,0.0,0.0,0.0,0.0,0.0,0.0,0.0,0.0,0.0,0.0,0.0,0.0,0.0,0.0,0.0,0.0,0.0,0.0,0.0,0.0,0.0,0.0,0.0,0.0,0.0,0.0,0.0,0.0,0.0,0.0,0.0,0.0,0.0,0.0,0.0,0.0,0.0,0.0,0.0,0.0,0.0,0.0,0.0,0.0,0.0,0.0,0.0,0.0,0.0,0.0,0.0,0.0,0.0,0.0,0.0,0.0,0.0,0.0,0.0,0.0,0.0,0.0,0.0,0.0,0.0,0.0,0.0,0.0,0.0,0.0,0.0,0.0,0.0,0.0,0.0,0.0,0.0,0.0,0.0,0.0,0.0,0.0,0.0,0.0,0.0,0.0,0.0,0.0,0.0,0.0,0.0,0.0,0.0,0.0,0.0,0.0,0.0,0.0,0.0,0.0,0.0,0.0,0.0,0.0,0.0,0.0,0.0,0.0,0.0,0.0,0.0,0.0,0.0,0.0,0.0,0.0,0.0,0.0,0.0,0.0,0.0,0.0,0.0,0.0,0.0,0.0,0.0,0.0,0.0,0.0,0.0,0.0,0.0,0.0,0.0,0.0,0.0,0.0,0.0,0.0,0.0,0.0,0.0,0.0,0.0,0.0,0.0,0.0,0.0,0.0,0.0,0.0,0.0,0.0,0.0,0.0,0.0,0.0,0.0,0.0,0.0,0.0,0.0,0.0,0.0,0.0,0.0,0.0,0.0,0.0,0.0,0.0,0.0,0.0,0.0,0.0,0.0,0.0,0.0,0.0,0.0,0.0,0.0,0.0,0.0,0.0,0.0,0.0,0.0,0.0,0.0,0.0,0.0,0.0,0.0,0.0,0.0,0.0,0.0,0.0,0.0,0.0,0.0,0.0,0.0,0.0,0.0,0.0,0.0,0.0,0.0,0.0,0.0,0.0,0.0,0.0,0.0,0.0,0.0,0.0,0.0,0.0,0.0,0.0,0.0,0.0,0.0,0.0,0.0,0.0,0.0,0.0,0.0,0.0,0.0,0.0,0.0,0.0,0.0,0.0,0.0,0.0,0.0,0.0,0.0,0.0,0.0,0.0,0.0,0.0,0.0,0.0,0.0,0.0,0.0,0.0,0.0,0.0,0.0,0.0,0.0,0.0,0.0,0.0,0.0,0.0,0.0,0.0,0.0,0.0,0.0,0.0,0.0,0.0,0.0,0.0,0.0,0.0,0.0,0.0,0.0,0.0,0.0,0.0,0.0,0.0,0.0,0.0,0.0,0.0,0.0,0.0,0.0,0.0,0.0,0.0,0.0,0.0,0.0,0.0,0.0,0.0,0.0,0.0,0.0,0.0,0.0,0.0,0.0,0.0,0.0,0.0,0.0,0.0,0.0,0.0,0.0,0.0,0.0,0.0,0.0,0.0,0.0,0.0,0.0,0.0,0.0,0.0,0.0,0.0,0.0,0.0,0.0,0.0,0.0,0.0,0.0,0.0,0.0,0.0,0.0,0.0,0.0,0.0,0.0,0.0,0.0,0.0,0.0,0.0,0.0,0.0,0.0,0.0,0.0,0.0,0.0,0.0,0.0,0.0,0.0,0.0,0.0,0.0,0.0,0.0,0.0,0.0,0.0,0.0,0.0,0.0,0.0,0.0,0.0,0.0,0.0,0.0,0.0,0.0,0.0,0.0,0.0,0.0,0.0,0.0,0.0,0.0,0.0,0.0,0.0,0.0,0.0,0.0,0.0,0.0,0.0,0.0,0.0,0.0,0.0,0.0,0.0,0.0,0.0,0.0,0.0,0.0,0.0,0.0,0.0,0.0,0.0,0.0,0.0,0.0,0.0,0.0,0.0,0.0,0.0,0.0,0.0,0.0,0.0,0.0,0.0,0.0,0.0,0.0,0.0,0.0,0.0,0.0,0.0,0.0,0.0,0.0,0.0,0.0,0.0,0.0,0.0,0.0,0.0,0.0,0.0,0.0,0.0,0.0,0.0,0.0,0.0,0.0,0.0,0.0,0.0,0.0,0.0,0.0,0.0,0.0,0.0,0.0,0.0,0.0,0.0,0.0,0.0,0.0,0.0,0.0,0.0,0.0,0.0,0.0,0.0,0.0,0.0,0.0,0.0,0.0,0.0,0.0,0.0,0.0,0.0,0.0,0.0,0.0,0.0,0.0,0.0,0.0,0.0,0.0,0.0,0.0,0.0,0.0,0.0,0.0,0.0,0.0,0.0,0.0,0.0,0.0,0.0,0.0,0.0,0.0,0.0,0.0,0.0,0.0,0.0,0.0,0.0,0.0,0.0,0.0,0.0,0.0,0.0,0.0,0.0,0.0,0.0,0.0,0.0,0.0,0.0,0.0,0.0,0.0,0.0,0.0,0.0,0.0,0.0,0.0,0.0,0.0,0.0,0.0,0.0,0.0,0.0,0.0,0.0,0.0,0.0,0.0,0.0,0.0,0.0,0.0,0.0,0.0,0.0,0.0,0.0,0.0,0.0,0.0,0.0,0.0,0.0,0.0,0.0,0.0,0.0,0.0,0.0,0.0,0.0,0.0,0.0,0.0,0.0,0.0,0.0,0.0,0.0,0.0,0.0,0.0,0.0,0.0,0.0,0.0,0.0,0.0,0.0,0.0,0.0,0.0,0.0,0.0,0.0,0.0,0.0,0.0,0.0,0.0,0.0,0.0,0.0,0.0,0.0,0.0,0.0,0.0,0.0,0.0,0.0,0.0,0.0,0.0,0.0,0.0,0.0,0.0,0.0,0.0,0.0,0.0,0.0,0.0,0.0,0.0,0.0,0.0,0.0,0.0,0.0,0.0,0.0,0.0,0.0,0.0,0.0,0.0,0.0,0.0,0.0,0.0,0.0,0.0,0.0,0.0,0.0,0.0,0.0,0.0,0.0,0.0,0.0,0.0,0.0,0.0,0.0,0.0,0.0,0.0,0.0,0.0,0.0,0.0,0.0,0.0,0.0,0.0,0.0,0.0,0.0,0.0,0.0,0.0,0.0,0.0,0.0,0.0,0.0,0.0,0.0,0.0,0.0,0.0,0.0,0.0,0.0,0.0,0.0,0.0,0.0,0.0,0.0,0.0,0.0,0.0,0.0,0.0,0.0,0.0,0.0,0.0,0.0,0.0,0.0,0.0,0.0,0.0,0.0,0.0,0.0,0.0,0.0,0.0,0.0,0.0,0.0,0.0,0.0,0.0,0.0,0.0,0.0,0.0,0.0,0.0,0.0,0.0,0.0,0.0,0.0,0.0,0.0,0.0,0.0,0.0,0.0,0.0,0.0,0.0,0.0,0.0,0.0,0.0,0.0,0.0,0.0,0.0,0.0,0.0,0.0,0.0,0.0,0.0,0.0,0.0,0.0,0.0,0.0,0.0,0.0,0.0,0.0,0.0,0.0,0.0,0.0,0.0,0.0,0.0,0.0,0.0,0.0,0.0,0.0,0.0,0.0,0.0,0.0,0.0,0.0,0.0,0.0,0.0,0.0,0.0,0.0,0.0,0.0,0.0,0.0,0.0,0.0,0.0,0.0,0.0,0.0,0.0,0.0,0.0,0.0,0.0,0.0,0.0,0.0,0.0,0.0,0.0,0.0,0.0,0.0,0.0,0.0,0.0,0.0,0.0,0.0,0.0,0.0,0.0,0.0,0.0,0.0,0.0,0.0,0.0,0.0,0.0,0.0,0.0,0.0,0.0,0.0,0.0,0.0,0.0,0.0,0.0,0.0,0.0,0.0,0.0,0.0,0.0,0.0,0.0,0.0,0.0,0.0,0.0,0.0,0.0,0.0,0.0,0.0,0.0,0.0,0.0,0.0,0.0,0.0,0.0,0.0,0.0,0.0,0.0,0.0,0.0,0.0,0.0,0.0,0.0,0.0,0.0,0.0,0.0,0.0,0.0,0.0,0.0,0.0,0.0,0.0,0.0,0.0,0.0,0.0,0.0,0.0,-0.2956,0.0,0.0,0.0,0.0,0.0,0.0,0.0,0.0,0.0,0.0,0.0,0.0,0.0,0.0,0.0,0.0,0.0,0.0,0.0,0.0,0.0,0.0,0.0,0.0,0.0,0.0,0.0,0.0,0.0,0.0,0.0,0.0,0.0,0.0,0.0,0.0,0.0,0.0,0.0,0.0,0.0,0.0,0.0,0.0,0.0,0.0,0.0,0.0,0.0,0.0,0.0,0.0,0.0,0.0,0.0,0.0,0.0,0.0,0.0,0.0,0.0,0.0,0.0,0.0,0.0,0.0,0.0,0.0,0.0,0.0,0.0,0.0,0.0,0.0,0.0,0.0,0.0,0.0,0.0,0.0,0.0,0.0,0.0,0.0,0.0,0.0,0.0,0.0,0.0,0.0,0.0,0.0,0.0,0.0,0.0,0.0,0.0,0.0,0.0,0.0,0.0,0.0,0.0,0.0,0.0,0.0,0.0,0.0,0.0,0.0,-0.2457,-0.246,-0.2417,-0.2443,-0.2473,0.0,0.0,0.0,0.0,0.0,0.0,0.0,0.0,0.0,0.0,0.0,0.0,0.0,0.0,0.0,0.0,0.0,0.0,0.0,0.0,0.0,0.0,0.0,0.0,0.0,0.0,0.0,0.0,0.0,0.0,0.0,0.0,0.0,0.0,0.0,0.0,0.0,0.0,0.0,0.0,0.0,0.0,0.0,0.0,0.0,0.0,0.0,0.0,0.0,0.0,0.0,0.0,0.0,0.0,0.0,0.0,0.0,0.0,0.0,0.0,0.0,0.0,0.0,0.0,0.0,0.0,0.0,0.0,0.0,0.0,0.0,0.0,0.0,0.0,0.0,0.0,0.0,0.0,0.0,0.0,0.0,0.0,0.0,0.0,0.0,0.0,0.0,0.0,0.0,0.0,0.0,0.0,0.0,0.0,0.0,0.0,0.0,0.0,0.0,0.0,0.0,0.0,0.0,0.0,0.0,0.0,0.0,0.0,0.0,0.0,0.0,0.0,-0.1782,-0.1864,-0.1996,0.0,0.0,0.0,0.0,0.0,0.0,0.0,0.0,0.0,0.0,0.0,0.0,0.0,0.0,0.0,0.0,0.0,0.0,0.0,0.0,0.0,0.0,0.0,0.0,0.0,0.0,0.0,0.0,0.0,0.0,0.0,0.0,0.0,0.0,0.0,0.0,0.0,0.0,0.0,0.0,0.0,0.0,0.0,0.0,0.0,0.0,0.0,0.0,0.0,0.0,0.0,0.0,0.0,0.0,0.0,0.0,0.0,0.0,0.0,0.0,0.0,0.0,0.0,0.0,0.0,0.0,0.0,0.0,0.0,0.0,0.0,0.0,0.0,0.0,0.0,0.0,0.0,0.0,0.0,0.0,0.0,0.0,0.0,0.0,0.0,0.0,0.0,0.0,0.0,0.0,0.0,0.0,0.0,0.0,0.0,0.0,0.0,0.0,0.0,0.0,0.0,0.0,0.0,0.0,0.0,0.0,0.0,0.0,0.0,0.0,-0.1012,-0.0843,-0.1097,0.0,-0.1638,0.0,0.0,0.0,0.0,0.0,0.0,0.0,0.0,0.0,0.0,0.0,0.0,0.0,0.0,0.0,0.0,0.0,0.0,0.0,0.0,0.0,0.0,0.0,0.0,0.0,0.0,0.0,0.0,0.0,0.0,0.0,0.0,0.0,0.0,0.0,0.0,0.0,0.0,0.0,0.0,0.0,0.0,0.0,0.0,0.0,0.0,0.0,0.0,0.0,0.0,0.0,0.0,0.0,0.0,0.0,0.0,0.0,0.0,0.0,0.0,0.0,0.0,0.0,0.0,0.0,0.0,0.0,0.0,0.0,0.0,0.0,0.0,0.0,0.0,0.0,0.0,0.0,0.0,0.0,0.0,0.0,0.0,0.0,0.0,0.0,0.0,0.0,0.0,0.0,0.0,0.0,0.0,0.0,0.0,0.0,0.0,0.0,0.0,0.0,0.0,0.0,0.0,0.0,0.0,0.0,0.0,0.0,0.0,0.0,0.0,-0.0127,-0.0,-0.0266,-0.0565,0.0,0.0,0.0,0.0,0.0,0.0,0.0,0.0,0.0,0.0,0.0,0.0,0.0,0.0,0.0,0.0,0.0,0.0,0.0,0.0,0.0,0.0,0.0,0.0,0.0,0.0,0.0,0.0,0.0,0.0,0.0,0.0,0.0,0.0,0.0,0.0,0.0,0.0,0.0,0.0,0.0,0.0,0.0,0.0,0.0,0.0,0.0,0.0,0.0,0.0,0.0,0.0,0.0,0.0,0.0,0.0,0.0,0.0,0.0,0.0,0.0,0.0,0.0,0.0,0.0,0.0,0.0,0.0,0.0,0.0,0.0,0.0,0.0,0.0,0.0,0.0,0.0,0.0,0.0,0.0,0.0,0.0,0.0,0.0,0.0,0.0,0.0,0.0,0.0,0.0,0.0,0.0,0.0,0.0,0.0,0.0,0.0,0.0,0.0,0.0,0.0,0.0,0.0,0.0,0.0,0.0,0.0,0.0,0.0,0.0,0.0843,0.0972,0.0935,0.0715,0.0394,0.0042,0.0,0.0,0.0,0.0,0.0,0.0,0.0,0.0,0.0,0.0,0.0,0.0,0.0,0.0,0.0,0.0,0.0,0.0,0.0,0.0,0.0,0.0,0.0,0.0,0.0,0.0,0.0,0.0,0.0,0.0,0.0,0.0,0.0,0.0,0.0,0.0,0.0,0.0,0.0,0.0,0.0,0.0,0.0,0.0,0.0,0.0,0.0,0.0,0.0,0.0,0.0,0.0,0.0,0.0,0.0,0.0,0.0,0.0,0.0,0.0,0.0,0.0,0.0,0.0,0.0,0.0,0.0,0.0,0.0,0.0,0.0,0.0,0.0,0.0,0.0,0.0,0.0,0.0,0.0,0.0,0.0,0.0,0.0,0.0,0.0,0.0,0.0,0.0,0.0,0.0,0.0,0.0,0.0,0.0,0.0,0.0,0.0,0.0,0.0,0.0,0.0,0.0,0.0,0.0,0.0,0.0,0.0,0.0,0.1384,0.2109,0.2335,0.2049,0.1741,0.1401,0.0,0.0,0.0,0.0,0.0,0.0,0.0,0.0,0.0,0.0,0.0,0.0,0.0,0.0,0.0,0.0,0.0,0.0,0.0,0.0,0.0,0.0,0.0,0.0,0.0,0.0,0.0,0.0,0.0,0.0,0.0,0.0,0.0,0.0,0.0,0.0,0.0,0.0,0.0,0.0,0.0,0.0,0.0,0.0,0.0,0.0,0.0,0.0,0.0,0.0,0.0,0.0,0.0,0.0,0.0,0.0,0.0,0.0,0.0,0.0,0.0,0.0,0.0,0.0,0.0,0.0,0.0,0.0,0.0,0.0,0.0,0.0,0.0,0.0,0.0,0.0,0.0,0.0,0.0,0.0,0.0,0.0,0.0,0.0,0.0,0.0,0.0,0.0,0.0,0.0,0.0,0.0,0.0,0.0,0.0,0.0,0.0,0.0,0.0,0.0,0.0,0.0,0.0,0.0,0.0,0.0,0.0,0.0,0.0,0.2427,0.2992,0.3242,0.3117,0.2674,0.2125,0.0,0.0,0.0,0.0,0.0,0.0,0.0,0.0,0.0,0.0,0.0,0.0,0.0,0.0,0.0,0.0,0.0,0.0,0.0,0.0,0.0,0.0,0.0,0.0,0.0,0.0,0.0,0.0,0.0,0.0,0.0,0.0,0.0,0.0,0.0,0.0,0.0,0.0,0.0,0.0,0.0,0.0,0.0,0.0,0.0,0.0,0.0,0.0,0.0,0.0,0.0,0.0,0.0,0.0,0.0,0.0,0.0,0.0,0.0,0.0,0.0,0.0,0.0,0.0,0.0,0.0,0.0,0.0,0.0,0.0,0.0,0.0,0.0,0.0,0.0,0.0,0.0,0.0,0.0,0.0,0.0,0.0,0.0,0.0,0.0,0.0,0.0,0.0,0.0,0.0,0.0,0.0,0.0,0.0,0.0,0.0,0.0,0.0,0.0,0.0,0.0,0.0,0.0,0.0,0.0,0.0,0.0,0.0,0.0,0.3417,0.0,0.3995,0.0,0.3609,0.2984,0.0,0.0,0.0,0.0,0.0,0.0,0.0,0.0,0.0,0.0,0.0,0.0,0.0,0.0,0.0,0.0,0.0,0.0,0.0,0.0,0.0,0.0,0.0,0.0,0.0,0.0,0.0,0.0,0.0,0.0,0.0,0.0,0.0,0.0,0.0,0.0,0.0,0.0,0.0,0.0,0.0,0.0,0.0,0.0,0.0,0.0,0.0,0.0,0.0,0.0,0.0,0.0,0.0,0.0,0.0,0.0,0.0,0.0,0.0,0.0,0.0,0.0,0.0,0.0,0.0,0.0,0.0,0.0,0.0,0.0,0.0,0.0,0.0,0.0,0.0,0.0,0.0,0.0,0.0,0.0,0.0,0.0,0.0,0.0,0.0,0.0,0.0,0.0,0.0,0.0,0.0,0.0,0.0,0.0,0.0,0.0,0.0,0.0,0.0,0.0,0.0,0.0,0.0,0.0,0.0,0.0,0.0,0.0,0.3552,0.4361,0.451,0.4638,0.4787,0.4443,0.3873,0.0,0.0,0.0,0.0,0.0,0.0,0.0,0.0,0.0,0.0,0.0,0.0,0.0,0.0,0.0,0.0,0.0,0.0,0.0,0.0,0.0,0.0,0.0,0.0,0.0,0.0,0.0,0.0,0.0,0.0,0.0,0.0,0.0,0.0,0.0,0.0,0.0,0.0,0.0,0.0,0.0,0.0,0.0,0.0,0.0,0.0,0.0,0.0,0.0,0.0,0.0,0.0,0.0,0.0,0.0,0.0,0.0,0.0,0.0,0.0,0.0,0.0,0.0,0.0,0.0,0.0,0.0,0.0,0.0,0.0,0.0,0.0,0.0,0.0,0.0,0.0,0.0,0.0,0.0,0.0,0.0,0.0,0.0,0.0,0.0,0.0,0.0,0.0,0.0,0.0,0.0,0.0,0.0,0.0,0.0,0.0,0.0,0.0,0.0,0.0,0.0,0.0,0.0,0.0,0.0,0.0,0.0,0.0,0.0,0.4752,0.5026,0.5137,0.5085,0.489,0.4395,0.0,0.0,0.0,0.0,0.0,0.0,0.0,0.0,0.0,0.0,0.0,0.0,0.0,0.0,0.0,0.0,0.0,0.0,0.0,0.0,0.0,0.0,0.0,0.0,0.0,0.0,0.0,0.0,0.0,0.0,0.0,0.0,0.0,0.0,0.0,0.0,0.0,0.0,0.0,0.0,0.0,0.0,0.0,0.0,0.0,0.0,0.0,0.0,0.0,0.0,0.0,0.0,0.0,0.0,0.0,0.0,0.0,0.0,0.0,0.0,0.0,0.0,0.0,0.0,0.0,0.0,0.0,0.0,0.0,0.0,0.0,0.0,0.0,0.0,0.0,0.0,0.0,0.0,0.0,0.0,0.0,0.0,0.0,0.0,0.0,0.0,0.0,0.0,0.0,0.0,0.0,0.0,0.0,0.0,0.0,0.0,0.0,0.0,0.0,0.0,0.0,0.0,0.0,0.0,0.0,0.0,0.0,0.0,0.0,0.5101,0.5218,0.5325,0.5378,0.5241,0.48,0.4085,0.0,0.0,0.0,0.0,0.0,0.0,0.0,0.0,0.0,0.0,0.0,0.0,0.0,0.0,0.0,0.0,0.0,0.0,0.0,0.0,0.0,0.0,0.0,0.0,0.0,0.0,0.0,0.0,0.0,0.0,0.0,0.0,0.0,0.0,0.0,0.0,0.0,0.0,0.0,0.0,0.0,0.0,0.0,0.0,0.0,0.0,0.0,0.0,0.0,0.0,0.0,0.0,0.0,0.0,0.0,0.0,0.0,0.0,0.0,0.0,0.0,0.0,0.0,0.0,0.0,0.0,0.0,0.0,0.0,0.0,0.0,0.0,0.0,0.0,0.0,0.0,0.0,0.0,0.0,0.0,0.0,0.0,0.0,0.0,0.0,0.0,0.0,0.0,0.0,0.0,0.0,0.0,0.0,0.0,0.0,0.0,0.0,0.0,0.0,0.0,0.0,0.0,0.0,0.0,0.0,0.0,0.0,0.0,0.5421,0.5278,0.539,0.5681,0.5482,0.5148,0.0,0.0,0.0,0.0,0.0,0.0,0.0,0.0,0.0,0.0,0.0,0.0,0.0,0.0,0.0,0.0,0.0,0.0,0.0,0.0,0.0,0.0,0.0,0.0,0.0,0.0,0.0,0.0,0.0,0.0,0.0,0.0,0.0,0.0,0.0,0.0,0.0,0.0,0.0,0.0,0.0,0.0,0.0,0.0,0.0,0.0,0.0,0.0,0.0,0.0,0.0,0.0,0.0,0.0,0.0,0.0,0.0,0.0,0.0,0.0,0.0,0.0,0.0,0.0,0.0,0.0,0.0,0.0,0.0,0.0,0.0,0.0,0.0,0.0,0.0,0.0,0.0,0.0,0.0,0.0,0.0,0.0,0.0,0.0,0.0,0.0,0.0,0.0,0.0,0.0,0.0,0.0,0.0,0.0,0.0,0.0,0.0,0.0,0.0,0.0,0.0,0.0,0.0,0.0,0.0,0.0,0.0,0.0,0.0,0.5624,0.5582,0.5578,0.5545,0.5409,0.5157,0.0,0.0,0.0,0.0,0.0,0.0,0.0,0.0,0.0,0.0,0.0,0.0,0.0,0.0,0.0,0.0,0.0,0.0,0.0,0.0,0.0,0.0,0.0,0.0,0.0,0.0,0.0,0.0,0.0,0.0,0.0,0.0,0.0,0.0,0.0,0.0,0.0,0.0,0.0,0.0,0.0,0.0,0.0,0.0,0.0,0.0,0.0,0.0,0.0,0.0,0.0,0.0,0.0,0.0,0.0,0.0,0.0,0.0,0.0,0.0,0.0,0.0,0.0,0.0,0.0,0.0,0.0,0.0,0.0,0.0,0.0,0.0,0.0,0.0,0.0,0.0,0.0,0.0,0.0,0.0,0.0,0.0,0.0,0.0,0.0,0.0,0.0,0.0,0.0,0.0,0.0,0.0,0.0,0.0,0.0,0.0,0.0,0.0,0.0,0.0,0.0,0.0,0.0,0.0,0.0,0.0,0.0,0.0,0.6043,0.5897,0.5842,0.5709,0.563,0.5427,0.5219,0.0,0.0,0.0,0.0,0.0,0.0,0.0,0.0,0.0,0.0,0.0,0.0,0.0,0.0,0.0,0.0,0.0,0.0,0.0,0.0,0.0,0.0,0.0,0.0,0.0,0.0,0.0,0.0,0.0,0.0,0.0,0.0,0.0,0.0,0.0,0.0,0.0,0.0,0.0,0.0,0.0,0.0,0.0,0.0,0.0,0.0,0.0,0.0,0.0,0.0,0.0,0.0,0.0,0.0,0.0,0.0,0.0,0.0,0.0,0.0,0.0,0.0,0.0,0.0,0.0,0.0,0.0,0.0,0.0,0.0,0.0,0.0,0.0,0.0,0.0,0.0,0.0,0.0,0.0,0.0,0.0,0.0,0.0,0.0,0.0,0.0,0.0,0.0,0.0,0.0,0.0,0.0,0.0,0.0,0.0,0.0,0.0,0.0,0.0,0.0,0.0,0.0,0.0,0.0,0.0,0.0,0.0,0.0,0.6399,0.6206,0.6044,0.589,0.5819,0.5531,0.528,0.0,0.0,0.0,0.0,0.0,0.0,0.0,0.0,0.0,0.0,0.0,0.0,0.0,0.0,0.0,0.0,0.0,0.0,0.0,0.0,0.0,0.0,0.0,0.0,0.0,0.0,0.0,0.0,0.0,0.0,0.0,0.0,0.0,0.0,0.0,0.0,0.0,0.0,0.0,0.0,0.0,0.0,0.0,0.0,0.0,0.0,0.0,0.0,0.0,0.0,0.0,0.0,0.0,0.0,0.0,0.0,0.0,0.0,0.0,0.0,0.0,0.0,0.0,0.0,0.0,0.0,0.0,0.0,0.0,0.0,0.0,0.0,0.0,0.0,0.0,0.0,0.0,0.0,0.0,0.0,0.0,0.0,0.0,0.0,0.0,0.0,0.0,0.0,0.0,0.0,0.0,0.0,0.0,0.0,0.0,0.0,0.0,0.0,0.0,0.0,0.0,0.0,0.0,0.0,0.0,0.0,0.0,0.0,0.6401,0.6352,0.6268,0.6098,0.5888,0.5529,0.5246,0.0,0.0,0.0,0.0,0.0,0.0,0.0,0.0,0.0,0.0,0.0,0.0,0.0,0.0,0.0,0.0,0.0,0.0,0.0,0.0,0.0,0.0,0.0,0.0,0.0,0.0,0.0,0.0,0.0,0.0,0.0,0.0,0.0,0.0,0.0,0.0,0.0,0.0,0.0,0.0,0.0,0.0,0.0,0.0,0.0,0.0,0.0,0.0,0.555,0.0,0.0,0.0,0.0,0.0,0.0,0.0,0.0,0.0,0.0,0.0,0.0,0.0,0.0,0.0,0.0,0.0,0.0,0.0,0.0,0.0,0.0,0.0,0.0,0.0,0.0,0.0,0.0,0.0,0.0,0.0,0.0,0.0,0.0,0.0,0.0,0.0,0.0,0.0,0.0,0.0,0.0,0.0,0.0,0.0,0.0,0.0,0.0,0.0,0.0,0.0,0.0,0.0,0.0,0.0,0.0,0.0,0.0,0.0,0.6504,0.6504,0.639,0.6245,0.6029,0.5693,0.5351,0.0,0.0,0.0,0.0,0.0,0.0,0.0,0.0,0.0,0.0,0.0,0.0,0.0,0.0,0.0,0.0,0.0,0.0,0.0,0.0,0.0,0.0,0.0,0.0,0.0,0.0,0.0,0.0,0.0,0.0,0.0,0.0,0.0,0.0,0.0,0.0,0.0,0.0,0.0,0.0,0.0,0.0,0.0,0.0,0.0,0.0,0.0,0.0,0.0,0.0,0.0,0.0,0.0,0.0,0.0,0.0,0.0,0.0,0.0,0.0,0.0,0.0,0.0,0.0,0.0,0.0,0.0,0.0,0.0,0.0,0.0,0.0,0.0,0.0,0.0,0.0,0.0,0.0,0.0,0.0,0.0,0.0,0.0,0.0,0.0,0.0,0.0,0.0,0.0,0.0,0.0,0.0,0.0,0.0,0.0,0.0,0.0,0.0,0.0,0.0,0.0,0.0,0.0,0.0,0.0,0.0,0.0,0.6614,0.6626,0.6587,0.6474,0.636,0.6206,0.5912,0.5505,0.5023,0.0,0.0,0.0,0.0,0.0,0.0,0.0,0.0,0.0,0.0,0.0,0.0,0.0,0.0,0.0,0.0,0.0,0.0,0.0,0.0,0.0,0.0,0.0,0.0,0.0,0.0,0.0,0.0,0.0,0.0,0.0,0.0,0.0,0.0,0.0,0.0,0.0,0.0,0.4807,0.54,0.0,0.0,0.0,0.0,0.0,0.0,0.0,0.0,0.619,0.0,0.0,0.0,0.0,0.0,0.0,0.0,0.0,0.0,0.0,0.0,0.0,0.0,0.0,0.0,0.0,0.0,0.0,0.0,0.0,0.0,0.0,0.0,0.0,0.0,0.0,0.0,0.0,0.0,0.0,0.0,0.0,0.0,0.0,0.0,0.0,0.0,0.0,0.0,0.0,0.0,0.0,0.0,0.0,0.0,0.0,0.0,0.0,0.0,0.0,0.0,0.0,0.0,0.0,0.0,0.0,0.6527,0.6676,0.6734,0.6595,0.6513,0.639,0.6206,0.5928,0.5561,0.5112,0.0,0.0,0.0,0.0,0.0,0.0,0.0,0.0,0.0,0.0,0.0,0.0,0.0,0.0,0.0,0.0,0.0,0.0,0.0,0.0,0.0,0.0,0.0,0.0,0.0,0.0,0.0,0.0,0.0,0.0,0.0,0.0,0.0,0.0,0.0,0.0,0.0,0.0,0.0,0.6008,0.6282,0.0,0.0,0.0,0.0,0.0,0.0,0.0,0.0,0.6544,0.0,0.0,0.0,0.0,0.0,0.0,0.0,0.0,0.0,0.0,0.0,0.0,0.0,0.0,0.0,0.0,0.0,0.0,0.0,0.0,0.0,0.0,0.0,0.0,0.0,0.0,0.0,0.0,0.0,0.0,0.0,0.0,0.0,0.0,0.0,0.0,0.0,0.0,0.0,0.0,0.0,0.0,0.0,0.0,0.0,0.0,0.0,0.0,0.0,0.0,0.0,0.0,0.0,0.0,0.0,0.6439,0.6551,0.6621,0.6543,0.646,0.6307,0.6075,0.5804,0.5421,0.0,0.0,0.0,0.0,0.0,0.0,0.0,0.0,0.0,0.0,0.0,0.0,0.0,0.0,0.0,0.0,0.0,0.0,0.0,0.0,0.0,0.0,0.0,0.0,0.0,0.0,0.0,0.0,0.0,0.0,0.0,0.0,0.0,0.0,0.0,0.0,0.0,0.0,0.0,0.0,0.64,0.6702,0.6829,0.0,0.0,0.0,0.0,0.0,0.0,0.6865,0.6781,0.0,0.0,0.0,0.0,0.0,0.0,0.0,0.0,0.0,0.0,0.0,0.0,0.0,0.0,0.0,0.0,0.0,0.0,0.0,0.0,0.0,0.0,0.0,0.0,0.0,0.0,0.0,0.0,0.0,0.0,0.0,0.0,0.0,0.0,0.0,0.0,0.0,0.0,0.0,0.0,0.0,0.0,0.0,0.0,0.0,0.0,0.0,0.0,0.0,0.0,0.0,0.0,0.0,0.0,0.0,0.6277,0.6407,0.6429,0.6421,0.6307,0.6114,0.5897,0.5554,0.5176,0.0,0.0,0.0,0.0,0.0,0.0,0.0,0.0,0.0,0.0,0.0,0.0,0.0,0.0,0.0,0.0,0.0,0.0,0.0,0.0,0.0,0.0,0.0,0.0,0.0,0.0,0.0,0.0,0.0,0.0,0.0,0.0,0.0,0.0,0.0,0.0,0.0,0.0,0.0,0.0,0.0,0.7083,0.7258,0.7419,0.0,0.0,0.0,0.0,0.7147,0.7105,0.0,0.0,0.0,0.0,0.0,0.0,0.0,0.0,0.0,0.0,0.0,0.0,0.0,0.0,0.0,0.0,0.0,0.0,0.0,0.0,0.0,0.0,0.0,0.0,0.0,0.0,0.0,0.0,0.0,0.0,0.0,0.0,0.0,0.0,0.0,0.0,0.0,0.0,0.0,0.0,0.0,0.0,0.0,0.0,0.0,0.0,0.0,0.0,0.0,0.0,0.0,0.0,0.0,0.0,0.0,0.0,0.6059,0.6222,0.6245,0.6129,0.6006,0.5828,0.5554,0.5239,0.4788,0.0,0.0,0.0,0.0,0.0,0.0,0.0,0.0,0.0,0.0,0.0,0.0,0.0,0.0,0.0,0.0,0.0,0.0,0.0,0.0,0.0,0.0,0.0,0.0,0.0,0.0,0.0,0.0,0.0,0.0,0.0,0.0,0.0,0.0,0.0,0.0,0.0,0.0,0.0,0.0,0.0,0.7419,0.7628,0.7787,0.7863,0.0,0.0,0.7746,0.7482,0.7405,0.0,0.0,0.0,0.0,0.0,0.0,0.0,0.0,0.0,0.0,0.0,0.0,0.0,0.0,0.0,0.0,0.0,0.0,0.0,0.0,0.0,0.0,0.0,0.0,0.0,0.0,0.0,0.0,0.0,0.0,0.0,0.0,0.0,0.0,0.0,0.0,0.0,0.0,0.0,0.0,0.0,0.0,0.0,0.0,0.0,0.0,0.0,0.0,0.0,0.0,0.0,0.0,0.0,0.0,0.0,0.6138,0.5739,0.5874,0.589,0.5758,0.554,0.532,0.5106,0.4724,0.4237,0.0,0.0,0.0,0.0,0.0,0.0,0.0,0.0,0.0,0.0,0.0,0.0,0.0,0.0,0.0,0.0,0.0,0.0,0.0,0.0,0.0,0.0,0.0,0.0,0.0,0.0,0.0,0.0,0.0,0.0,0.0,0.0,0.0,0.0,0.0,0.0,0.0,0.0,0.0,0.0,0.0,0.0,0.7619,0.7825,0.0,0.0,0.0,0.7995,0.778,0.0,0.0,0.0,0.0,0.0,0.0,0.0,0.0,0.0,0.0,0.0,0.0,0.0,0.0,0.0,0.0,0.0,0.0,0.0,0.0,0.0,0.0,0.0,0.0,0.0,0.0,0.0,0.0,0.0,0.0,0.0,0.0,0.0,0.0,0.0,0.0,0.0,0.0,0.0,0.0,0.0,0.0,0.0,0.0,0.0,0.0,0.0,0.0,0.0,0.0,0.0,0.0,0.0,0.0,0.0,0.0,0.0,0.5284,0.5358,0.5358,0.5226,0.4941,0.4712,0.4488,0.4038,0.0,0.0,0.0,0.0,0.0,0.0,0.0,0.0,0.0,0.0,0.0,0.0,0.0,0.0,0.0,0.0,0.0,0.0,0.0,0.0,0.0,0.0,0.0,0.0,0.0,0.0,0.0,0.3425,0.0,0.0,0.0,0.0,0.0,0.0,0.0,0.0,0.0,0.0,0.0,0.0,0.0,0.0,0.6878,0.7493,0.7717,0.785,0.0,0.0,0.8085,0.7912,0.7697,0.753,0.0,0.0,0.0,0.0,0.0,0.0,0.0,0.0,0.0,0.0,0.0,0.0,0.0,0.0,0.0,0.0,0.0,0.0,0.0,0.0,0.0,0.0,0.0,0.0,0.0,0.0,0.0,0.0,0.0,0.0,0.0,0.0,0.0,0.0,0.0,0.0,0.0,0.0,0.0,0.0,0.0,0.0,0.0,0.0,0.0,0.0,0.0,0.0,0.0,0.0,0.0,0.0,0.0,0.0,0.0,0.4652,0.466,0.459,0.4456,0.4194,0.3909,0.3593,0.3196,0.2732,0.0,0.0,0.0,0.0,0.0,0.0,0.0,0.0,0.0,0.0,0.0,0.0,0.0,0.0,0.0,0.0,0.0,0.0,0.0,0.0,0.0,0.0,0.0,0.0,0.0,0.0,0.0,0.0,0.0,0.0,0.0,0.0,0.0,0.0,0.0,0.0,0.0,0.0,0.0,0.0,0.0,0.6906,0.7212,0.7484,0.7702,0.0,0.0,0.7987,0.7912,0.7795,0.767,0.767,0.0,0.0,0.0,0.0,0.0,0.0,0.0,0.0,0.0,0.0,0.0,0.0,0.0,0.0,0.0,0.0,0.0,0.0,0.0,0.0,0.0,0.0,0.0,0.0,0.0,0.0,0.0,0.0,0.0,0.0,0.0,0.0,0.0,0.0,0.0,0.0,0.0,0.0,0.0,0.0,0.0,0.0,0.0,0.0,0.0,0.0,0.0,0.0,0.0,0.0,0.0,0.0,0.0,0.4351,0.4188,0.4075,0.3941,0.3714,0.3416,0.3229,0.3076,0.2408,0.2073,0.0,0.0,0.0,0.0,0.0,0.0,0.0,0.0,0.0,0.0,0.0,0.0,0.0,0.0,0.0,0.0,0.0,0.0,0.0,0.0,0.0,0.0,0.0,0.0,0.0,0.0,0.0,0.0,0.3858,0.4086,0.4156,0.0,0.0,0.0,0.0,0.0,0.0,0.0,0.0,0.0,0.0,0.6111,0.6616,0.6998,0.0,0.0,0.7661,0.7787,0.7655,0.7614,0.7572,0.7572,0.7621,0.0,0.0,0.0,0.0,0.0,0.0,0.0,0.0,0.0,0.0,0.0,0.0,0.0,0.0,0.0,0.0,0.0,0.0,0.0,0.0,0.0,0.0,0.0,0.0,0.0,0.0,0.0,0.0,0.0,0.0,0.0,0.0,0.0,0.0,0.0,0.0,0.0,0.0,0.0,0.0,0.0,0.0,0.0,0.0,0.0,0.0,0.0,0.0,0.0,0.0,0.0,0.0,0.3521,0.336,0.336,0.3163,0.2798,0.2431,0.22,0.2073,0.137,0.1136,0.0,0.0,0.0,0.0,0.0,0.0,0.0,0.0,0.0,0.0,0.0,0.0,0.0,0.0,0.0,0.0,0.0,0.0,0.0,0.0,0.0,0.0,0.0,0.0,0.0,0.0,0.0,0.0,0.3695,0.3923,0.3966,0.0,0.0,0.0,0.0,0.0,0.0,0.0,0.0,0.0,0.0,0.5595,0.6204,0.6562,0.6893,0.717,0.7418,0.7503,0.7447,0.7405,0.7405,0.7447,0.0,0.0,0.0,0.0,0.0,0.0,0.0,0.0,0.0,0.0,0.0,0.0,0.0,0.0,0.0,0.0,0.0,0.0,0.0,0.0,0.0,0.0,0.0,0.0,0.0,0.0,0.0,0.0,0.0,0.0,0.4648,0.0,0.0,0.0,0.0,0.0,0.0,0.0,0.0,0.0,0.0,0.0,0.0,0.0,0.0,0.0,0.0,0.0,0.0,0.0,0.0,0.0,0.0,0.2381,0.2142,0.2371,0.2208,0.164,0.117,0.0768,0.0467,-0.0,-0.0167,-0.0,0.0,0.0,0.0,0.0,0.0,0.0,0.0,0.0,0.0,0.0,0.0,0.0,0.0,0.0,0.0,0.0,0.0,0.0,0.0,0.0,0.0,0.0,0.0,0.0,0.0,0.0,0.3142,0.3597,0.3858,0.0,0.0,0.0,0.0,0.0,0.0,0.0,0.0,0.0,0.0,0.5144,0.5449,0.5949,0.6293,0.6558,0.6774,0.7045,0.7209,0.7216,0.7209,0.7258,0.0,0.0,0.0,0.0,0.0,0.0,0.0,0.0,0.0,0.0,0.0,0.0,0.0,0.0,0.0,0.0,0.0,0.0,0.0,0.0,0.0,0.0,0.0,0.0,0.0,0.0,0.0,-0.036,-0.0627,0.0,0.0,0.0,0.0,0.0,0.0,0.0,0.0,0.0,0.0,0.0,0.4539,0.3576,0.0,0.0,0.0,0.0,0.0,0.0,0.0,0.0,0.0,0.0,0.0,0.0,0.111,0.0968,0.0896,0.063,0.0199,-0.0133,-0.0532,-0.1032,-0.1429,-0.189,-0.2439,0.0,0.0,0.0,0.0,0.0,0.0,0.0,0.0,0.0,0.0,0.0,0.0,0.0,0.0,0.0,0.0,0.0,0.0,0.0,0.0,0.0,0.0,0.0,0.0,0.0,0.2447,0.0,0.0,0.0,0.0,0.0,0.0,0.0,0.0,0.0,0.0,0.0,0.4614,0.4806,0.4902,0.5125,0.5617,0.5894,0.6222,0.0,0.0,0.0,0.0,0.0,0.0,0.0,0.0,0.0,0.0,0.0,0.0,0.0,0.0,0.7202,0.7454,0.7503,0.7538,0.7579,0.0,0.0,0.0,0.0,0.0,0.0,0.0,0.0,0.0,0.0,0.0,0.0,0.0,0.0,-0.4746,0.0,-0.5199,0.0,0.0,0.0,0.0,0.0,0.0,0.0,0.0,0.0026,0.0077,-0.031,-0.0406,0.0308,0.0,0.2837,0.4004,0.0,0.0,0.0,0.0,0.0,0.0,0.0,0.0,-0.0541,-0.0629,-0.0824,-0.1055,-0.1383,-0.1915,-0.2285,-0.2547,-0.3029,-0.3639,-0.4385,-0.5442,-0.5865,0.0,0.0,0.0,0.0,0.0,0.0,0.0,0.0,0.0,0.0,0.0,0.0,0.0,0.0,0.0,0.0,0.0,0.0,0.0,0.0,0.0,0.0,0.0,0.248,0.0,0.0,0.0,0.0,0.0,0.0,0.0,0.0,0.0,0.4081,0.4215,0.4355,0.4581,0.4761,0.5009,0.5481,0.0,0.0,0.0,0.0,0.0,0.0,0.0,0.6816,0.6836,0.6963,0.7005,0.6907,0.6901,0.6865,0.6836,0.0,0.0,0.7202,0.7238,0.7286,0.737,0.737,0.737,0.7286,0.7238,0.7245,0.0,0.0,0.0,0.0,0.0,0.0,0.0,0.0,-0.7314,-0.7555,0.0,-0.79,0.0,0.0,0.0,0.0,0.0,-0.6578,0.0,0.0,-0.6104,-0.6152,-0.604,-0.5767,-0.5546,-0.5182,-0.299,-0.2195,-0.2475,0.1586,0.0,0.0,0.0,0.0,0.0,0.0,-0.249,-0.269,-0.2715,-0.2848,-0.3139,-0.4092,-0.443,-0.4029,-0.4822,-0.5415,-0.5792,-0.6811,-0.717,-0.6674,-0.6721,0.0,0.0,0.0,0.0,0.0,0.0,0.0,0.0,0.0,0.0,0.0,0.0,0.0,0.0,0.0,0.0,0.0,0.0,0.0,0.0,0.1945,0.0,0.0,0.0,0.0,0.0,0.0,0.0,0.0,0.0,0.0,0.3756,0.3923,0.4058,0.4248,0.0,0.0,0.0,0.0,0.6169,0.6434,0.6477,0.6477,0.6477,0.6483,0.6526,0.6666,0.0,0.0,0.6672,0.6666,0.6672,0.6672,0.6672,0.6751,0.6943,0.6979,0.7063,0.7286,0.7328,0.7286,0.707,0.7027,0.695,-1.2149,0.0,0.0,0.0,0.0,-0.9464,-0.955,-0.9711,-0.9808,-0.9906,-0.9983,-0.9899,0.0,0.0,0.0,0.0,0.0,0.0,-0.8733,-0.8664,-0.8664,-0.8612,-0.8496,-0.8379,-0.8282,-0.8171,-0.7407,-0.709,-0.7096,-0.5793,-0.3828,-0.1397,0.0,0.0,0.0,0.0,-0.4893,-0.487,-0.4913,-0.5056,-0.5202,-0.551,-0.5808,-0.6058,-0.6473,-0.6887,-0.724,-0.7627,-0.7839,-0.7818,-0.7723,0.0,0.0,0.0,0.0,0.0,0.0,0.0,0.0,0.0,0.0,0.0,0.0,0.0,0.0,0.0,0.0,0.0,0.0,0.0,0.0808,0.131,0.1644,0.0,0.0,0.0,0.0,0.0,0.0,0.0,0.0,0.0,0.2977,0.3438,0.3798,0.0,0.0,0.4807,0.5199,0.5521,0.5821,0.6107,0.6147,0.0,0.0,0.6227,0.627,0.619,0.619,0.619,0.6196,0.619,0.6196,0.6196,0.6196,0.6233,0.6398,0.6611,0.6787,0.6878,0.6878,0.6885,0.6787,0.6787,0.6745,-1.5548,-1.4137,-1.2942,-1.2461,-1.2461,-1.2433,-1.2448,-1.2547,-1.2584,-1.2599,-1.2577,-1.2145,-1.1881,-1.1696,-1.1082,0.0,0.0,0.0,-1.0583,-1.0625,-1.0579,-1.0542,-1.0491,-1.0445,-1.0441,-1.0477,-1.0523,-1.0597,-1.0735,-1.0895,-0.969,-0.7214,0.0,0.0,-0.6783,-0.7059,-0.7126,-0.7083,-0.7045,-0.7091,-0.7158,-0.7186,-0.732,-0.7673,-0.7901,-0.8213,-0.8513,-0.864,-0.8777,-0.8885,-0.8826,-0.8706,0.0,0.0,0.0,0.0,0.0,0.0,0.0,0.0,0.0,0.0,0.0,-0.3756,0.0,0.0,0.0,0.0,-0.1206,-0.0437,0.037,0.0673,0.0,0.0,0.0,0.0,0.0,0.0,0.0,0.1782,0.1847,0.1978,0.2245,0.2742,0.3233,0.3593,0.4118,0.4582,0.4915,0.0,0.5638,0.5873,0.5895,0.5895,0.589,0.5933,0.597,0.5895,0.5847,0.5798,0.5798,0.5755,0.575,0.5804,0.5804,0.5841,0.597,0.6153,0.6367,0.6544,0.6587,0.6587,0.6489,0.6489,0.6496,-1.7951,-1.7832,-1.6361,-1.56,-1.5405,-1.5401,-1.5361,-1.5303,-1.528,-1.5278,-1.5224,-1.4419,-1.3946,-1.3626,-1.2596,0.0,-1.2004,-1.2004,-1.2029,-1.2093,-1.2038,-1.2053,-1.2113,-1.2097,-1.2156,-1.2221,-1.2559,-1.2989,-1.3467,-1.3992,-1.4183,-1.4011,-1.0874,-0.9342,-0.9475,-0.9388,-0.9318,-0.9228,-0.9098,-0.9004,-0.8972,-0.898,-0.8992,-0.9053,-0.9221,-0.9403,-0.9586,-0.9791,-0.9881,-0.9906,-0.9881,-0.9778,-0.9544,0.0,0.0,0.0,0.0,0.0,0.0,0.0,0.0,0.0,0.0,0.0,0.0,0.0,0.0,0.0,-0.1571,0.0,-0.0336,0.0067,0.0,0.0,0.0,0.0606,0.0977,0.101,0.1078,0.1247,0.0,0.0,0.1542,0.194,0.2474,0.308,0.3809,0.4361,0.4628,0.5122,0.5496,0.5588,0.5631,0.5636,0.5636,0.5631,0.5631,0.5588,0.5539,0.541,0.5404,0.5313,0.5308,0.5404,0.5448,0.5448,0.5588,0.5636,0.5766,0.6196,0.6288,0.6282,0.619,0.6142,0.6147,-1.9263,-1.923,-1.8841,-1.776,-1.6302,-1.6241,-1.6209,-1.621,-1.6128,-1.6078,-1.6009,-1.5714,-1.5123,-1.4345,-1.4017,-1.356,-1.2973,-1.2973,-1.2991,-1.3042,-1.3042,-1.3076,-1.3143,-1.3142,-1.3208,-1.3337,-1.3546,-1.3872,-1.4315,-1.4601,-1.4743,-1.4715,-1.3821,-1.2898,-1.1956,-1.1569,-1.1314,-1.114,-1.0964,-1.0736,-1.0484,-1.0433,-1.0363,-1.0352,-1.039,-1.0476,-1.0572,-1.061,-1.0671,-1.0699,-1.0671,-1.0613,-1.057,-1.0881,0.0,0.0,0.0,0.0,0.0,0.0,0.0,0.0,0.0,-0.5124,-0.4845,0.0,-0.3936,0.0,-0.2302,-0.1408,-0.1071,-0.0874,0.0,0.0,-0.0134,-0.0,0.0235,0.0303,0.0471,0.0808,0.0874,0.0974,0.1211,0.1408,0.1699,0.2124,0.3072,0.3851,0.4132,0.4624,0.5024,0.5159,0.5159,0.5159,0.5159,0.5159,0.5116,0.5019,0.4971,0.4927,0.4836,0.4792,0.4792,0.4792,0.4884,0.4975,0.5019,0.5067,0.5208,0.5333,0.5593,0.5852,0.5809,0.5809,0.5804,-1.9825,-1.9832,-1.9801,-1.912,-1.8053,-1.789,-1.7804,-1.7796,-1.7721,-1.7674,-1.7605,-1.7071,-1.637,-1.5547,-1.5429,-1.4976,-1.4241,-1.4241,-1.4064,-1.376,-1.3792,-1.3821,-1.3846,-1.388,-1.3944,-1.4054,-1.4253,-1.4497,-1.4768,-1.4945,-1.5082,-1.5135,-1.5027,-1.4574,-1.3781,-1.3173,-1.2756,-1.2544,-1.2275,-1.1968,-1.1674,-1.1591,-1.1512,-1.141,-1.1402,-1.1417,-1.1498,-1.1461,-1.1454,-1.149,-1.1454,-1.1424,-1.1355,-1.1556,-1.138,0.0,0.0,0.0,0.0,0.0,0.0,0.0,0.0,0.0,0.0,0.0,-0.4488,-0.3751,-0.2831,-0.2139,-0.1807,-0.1609,-0.131,-0.0938,-0.0738,-0.0606,-0.0505,-0.037,-0.0134,0.0168,0.0303,0.0437,0.0606,0.0874,0.113,0.1373,0.2083,0.2826,0.3497,0.4013,0.4364,0.4499,0.4587,0.4583,0.4583,0.4543,0.4499,0.4408,0.432,0.4272,0.4224,0.4184,0.414,0.418,0.4268,0.4316,0.4408,0.4491,0.4622,0.467,0.4845,0.5149,0.5333,0.5382,0.5382,-2.027,-2.0156,-2.0104,-2.0025,-1.99,-1.9669,-1.9518,-1.9438,-1.9365,-1.932,-1.9268,-1.8403,-1.7597,-1.6886,-1.679,-1.6309,-1.561,-1.561,-1.523,-1.4591,-1.4616,-1.4599,-1.4508,-1.4561,-1.4585,-1.4558,-1.4738,-1.4879,-1.5011,-1.5164,-1.5263,-1.5312,-1.526,-1.5162,-1.4999,-1.4323,-1.3846,-1.3596,-1.3209,-1.2902,-1.2678,-1.2562,-1.2466,-1.2317,-1.2234,-1.2245,-1.2285,-1.2225,-1.2184,-1.2169,-1.2204,-1.2123,-1.1993,-1.1957,-1.1755,0.0,-1.1043,0.0,0.0,0.0,0.0,0.0,0.0,0.0,0.0,-0.5655,-0.4915,-0.3941,-0.3355,-0.29,-0.2573,-0.2245,-0.1876,-0.1573,-0.1377,-0.1244,-0.1177,-0.0976,-0.0739,-0.0538,-0.0303,-0.0134,-0.0101,0.0236,0.059,0.0734,0.1039,0.165,0.2639,0.3221,0.3612,0.3748,0.3921,0.4005,0.3961,0.388,0.384,0.3792,0.37,0.3609,0.3612,0.3575,0.3578,0.3615,0.3609,0.3653,0.3792,0.3877,0.3961,0.4001,0.4096,0.4364,0.4806,0.4898,0.4902,-2.1703,-2.1056,-2.1026,-2.0633,-1.9971,-1.9949,-1.9818,-1.9712,-1.9601,-1.9485,-1.938,-1.9194,-1.8647,-1.7927,-1.7894,-1.7445,-1.6706,-1.6706,-1.6645,-1.6559,-1.6559,-1.623,-1.5611,-1.5676,-1.5373,-1.4851,-1.4928,-1.5026,-1.5177,-1.5244,-1.5312,-1.5389,-1.5301,-1.5268,-1.5241,0.0,0.0,0.0,-1.3878,-1.3628,-1.3491,-1.3312,-1.3124,-1.2949,-1.286,0.0,-1.2778,-1.2708,-1.2654,-1.2671,-1.2684,0.0,0.0,0.0,0.0,0.0,0.0,0.0,0.0,0.0,0.0,0.0,-0.8456,-0.7705,-0.6936,-0.6075,-0.5289,-0.4718,-0.4145,-0.3663,-0.3401,-0.297,-0.2606,-0.2341,-0.2139,-0.194,-0.1642,-0.1509,-0.1341,-0.1145,-0.0977,-0.0908,-0.0845,-0.0629,-0.0293,0.0038,0.0322,0.0757,0.1447,0.222,0.2812,0.312,0.3255,0.3347,0.3391,0.3347,0.3258,0.3211,0.3167,0.3123,0.3043,0.3138,0.3138,0.3087,0.3037,0.3078,0.3167,0.3258,0.3391,0.3391,0.3483,0.3748,0.432,0.4451,0.4447,-2.2348,0.0,-2.1937,-2.1695,0.0,-2.0793,-2.0554,-2.0452,-1.992,-1.9641,-1.956,-1.9518,-1.9295,-1.8933,-1.8906,-1.8469,-1.7745,-1.7745,-1.7534,-1.7202,-1.7247,-1.7034,-1.6632,-1.6704,-1.6328,-1.5607,-1.5678,-1.5523,-1.521,-1.5256,-1.5348,-1.5405,-1.5369,-1.5342,-1.5352,-1.5217,-1.4931,-1.4497,-1.4295,-1.4113,-1.3955,-1.3818,-1.3667,-1.3458,-1.3377,0.0,0.0,0.0,0.0,0.0,0.0,0.0,0.0,0.0,0.0,-1.2388,-1.2292,-1.194,-1.1192,-1.0605,-1.0135,-0.9712,-0.8981,-0.8117,-0.7145,-0.6405,-0.5789,-0.5289,-0.4782,-0.4371,-0.4081,-0.3686,-0.3335,-0.3068,-0.2874,-0.2606,-0.2305,-0.2106,-0.1909,-0.1713,-0.1579,-0.1492,-0.1431,-0.1323,-0.1052,-0.0722,-0.0579,-0.0298,0.0355,0.1297,0.2057,0.241,0.2457,0.2551,0.2591,0.2549,0.2504,0.2413,0.2413,0.237,0.2373,0.2509,0.2556,0.2464,0.2506,0.2551,0.2551,0.2682,0.2771,0.2768,0.286,0.304,0.3435,0.3748,0.3928,-2.2963,-2.283,-2.2827,-2.2748,-2.2544,-2.1776,-2.1377,-2.1223,0.0,0.0,0.0,-1.9641,-1.9641,-1.9712,-1.9673,-1.9307,-1.8756,-1.8737,-1.8392,-1.7756,-1.7807,-1.7753,-1.7631,-1.771,-1.732,-1.6546,-1.6452,-1.6074,-1.5448,-1.5342,-1.534,-1.54,-1.541,-1.542,-1.5402,-1.5283,-1.5076,-1.4792,-1.4642,-1.4464,-1.4308,-1.4206,-1.4078,-1.3885,-1.3815,-1.3743,-1.3682,-1.3589,-1.3543,-1.3478,-1.3462,-1.3395,-1.3261,-1.3157,-1.2995,-1.2776,-1.2356,-1.1967,-1.1601,-1.1113,-1.0616,-1.0135,-0.9331,-0.8361,-0.7246,-0.6768,-0.6336,-0.5813,-0.5432,-0.5055,-0.4718,-0.4403,-0.4086,-0.3793,-0.3532,-0.3266,-0.2995,-0.2735,-0.254,-0.2314,-0.2203,-0.2107,-0.2018,-0.1997,-0.1803,-0.1521,-0.152,-0.1373,-0.0664,0.0402,0.1297,0.1563,0.1611,0.1612,0.1743,0.17,0.1614,0.1748,0.1748,0.1705,0.1749,0.193,0.2064,0.202,0.2064,0.2064,0.2064,0.2105,0.2146,0.2146,0.2237,0.2373,0.2506,0.2909,0.3312,-2.4377,-2.3728,-2.3717,-2.3286,-2.2596,-2.2467,-2.2083,-2.145,-2.0302,-1.9795,-1.9782,-1.9712,-1.9731,-1.9763,-1.9782,-1.9744,-1.9684,-1.9684,-1.9639,-1.9545,-1.9537,-1.9193,-1.8533,-1.8592,-1.8193,-1.7423,-1.6742,-1.6369,-1.6245,-1.5633,-1.5321,-1.5391,-1.5408,-1.5406,-1.5404,-1.5326,-1.5241,-1.5139,-1.4923,-1.4785,-1.4637,-1.4522,-1.4381,-1.4224,-1.4096,-1.4019,-1.3955,-1.3886,-1.3811,-1.3748,-1.3669,-1.3622,-1.3542,-1.3412,-1.3261,-1.3066,-1.2776,-1.2416,-1.1951,-1.1542,-1.0949,-1.0185,-0.9725,-0.8996,-0.7888,-0.7384,-0.699,-0.657,-0.6183,-0.5813,-0.547,-0.5131,-0.4814,-0.45,-0.421,-0.3946,-0.3616,-0.3458,-0.3237,-0.2985,-0.3002,-0.2937,-0.2821,-0.2843,-0.2742,-0.2433,-0.2287,-0.2129,-0.1513,-0.0447,0.0358,0.0582,0.0671,0.076,0.085,0.085,0.094,0.1254,0.1254,0.121,0.1344,0.1705,0.1884,0.1839,0.1569,0.1569,0.1705,0.1658,0.1567,0.1523,0.1657,0.1748,0.1792,0.2105,0.2422,-2.4962,-2.4606,-2.4587,-2.4366,-2.3919,-2.3446,-2.2614,-2.1651,-2.1337,-2.0678,-1.9838,-1.9801,-1.9813,-1.9856,-1.9837,-1.9861,-1.9908,-1.9908,-1.9919,-1.996,-1.9963,-1.9758,-1.9446,-1.9468,-1.9087,-1.8319,-1.7972,-1.7356,-1.6549,-1.6148,-1.5809,-1.5436,-1.5406,-1.5408,-1.5409,-1.5365,-1.5326,-1.525,-1.5082,-1.4936,-1.4804,-1.4678,-1.4571,-1.4464,-1.4332,-1.4232,-1.4163,-1.4096,-1.4026,-1.3955,-1.3897,-1.3838,-1.3763,-1.3639,-1.3495,-1.3312,-1.307,-1.2781,-1.2447,-1.1861,-1.1227,-1.0594,-1.0222,-0.9727,-0.8946,-0.8248,-0.7656,-0.7216,-0.685,-0.6488,-0.6121,-0.5813,-0.5501,-0.5194,-0.4947,-0.466,-0.4328,-0.4135,-0.3996,-0.3845,-0.3839,-0.3831,-0.3728,-0.3774,-0.3666,-0.3315,-0.2999,-0.2672,-0.2541,-0.1962,-0.1248,-0.0715,-0.0403,-0.0224,-0.0089,-0.0045,0.0045,0.0268,0.0268,0.0313,0.0403,0.0716,0.0806,0.0761,0.0582,0.0672,0.0895,0.0895,0.0895,0.0985,0.1074,0.1165,0.1299,0.1524,0.1839,-2.521,-2.521,-2.521,-2.5168,-2.5043,-2.4385,-2.3455,-2.2507,-2.2622,-2.191,-2.069,-2.0526,-2.0368,-2.0179,-2.0198,-2.0096,-1.9949,-1.9922,-1.9952,-1.9985,-1.9988,-2.0009,-2.0038,-2.0078,-1.9774,-1.9216,-1.9081,-1.8325,-1.7186,-1.6774,-1.6203,-1.5487,-1.5404,-1.541,-1.5405,-1.541,-1.5365,-1.5326,-1.5196,-1.5061,-1.4933,-1.4831,-1.4718,-1.4674,-1.453,-1.4439,-1.4381,-1.4306,-1.4224,-1.415,-1.4096,-1.4044,-1.3973,-1.3871,-1.3715,-1.3559,-1.3345,-1.3087,-1.2773,-1.2149,-1.1534,-1.1094,-1.0736,-1.0371,-0.9881,-0.9158,-0.8467,-0.7898,-0.753,-0.7198,-0.685,-0.6518,-0.6213,-0.5906,-0.5641,-0.5397,-0.5099,-0.4927,-0.4808,-0.4704,-0.4755,-0.484,-0.4724,-0.4728,-0.4614,-0.4215,-0.3723,-0.3463,-0.3476,-0.3388,-0.2896,-0.2233,-0.1609,-0.1252,-0.1073,-0.1029,-0.0939,-0.0849,-0.076,-0.076,-0.0716,-0.0672,-0.0582,-0.0537,-0.0537,-0.0447,-0.0224,-0.0045,0.0089,0.0224,0.0358,0.0537,0.0761,0.0941,0.13,-2.521,-2.521,-2.521,-2.5168,-2.5082,-2.4981,-2.481,-2.4556,-2.391,-2.3392,-2.2874,-2.2413,-2.1771,-2.1128,-2.1065,-2.066,-2.0058,-1.9996,-1.9988,-1.9998,-1.9991,-2.003,-2.0078,-2.0107,-2.0098,-1.995,-1.9361,-1.8972,-1.8634,-1.7268,-1.6203,-1.5496,-1.5418,-1.5408,-1.541,-1.5406,-1.5391,-1.5399,-1.533,-1.522,-1.5087,-1.5011,-1.4949,-1.4878,-1.4737,-1.4645,-1.456,-1.4481,-1.4417,-1.4301,-1.4293,-1.4242,-1.4177,-1.4109,-1.3984,-1.3806,-1.3636,-1.3312,-1.2776,-1.2427,-1.2024,-1.1579,-1.1287,-1.0926,-1.047,-1.0122,-0.9504,-0.8734,-0.8287,-0.7935,-0.7627,-0.7305,-0.6948,-0.6609,-0.6352,-0.6091,-0.5872,-0.5844,-0.576,-0.5521,-0.5863,-0.5982,-0.5688,-0.5683,-0.5647,-0.5201,-0.4913,-0.4652,-0.4526,-0.4482,-0.4308,-0.3781,-0.3031,-0.241,-0.2188,-0.2055,-0.1919,-0.1786,-0.165,-0.1654,-0.1746,-0.1703,-0.1658,-0.1478,-0.1523,-0.1433,-0.1208,-0.103,-0.0851,-0.0672,-0.0447,-0.0224,0.0045,0.0224,0.0583,-2.521,-2.521,-2.521,-2.5168,-2.5101,-2.5095,-2.507,-2.4955,-2.4612,-2.4409,-2.4295,-2.4036,-2.319,-2.194,-2.1472,-2.1066,-2.0747,-2.0237,-1.9981,-1.9991,-2.0049,-2.0078,-2.0107,-2.0108,-2.0135,-2.0188,-1.9868,-1.9465,-1.8834,-1.7389,-1.6433,-1.6083,-1.5656,-1.5419,-1.5408,-1.541,-1.5405,-1.5409,-1.5335,-1.5268,-1.5222,-1.5121,-1.5027,-1.4955,-1.4877,-1.4785,-1.4708,-1.4654,-1.4596,-1.4533,-1.4453,-1.4405,-1.4362,-1.4281,-1.4145,-1.4037,-1.3789,-1.3461,-1.3019,-1.2781,-1.2471,-1.2045,-1.176,-1.1439,-1.102,-1.0726,-1.031,-0.9727,-0.9066,-0.8557,-0.8269,-0.7984,-0.7647,-0.7325,-0.7059,-0.6885,-0.6873,-0.6779,-0.6726,-0.6811,-0.6955,-0.6978,-0.6732,-0.6529,-0.6337,-0.6118,-0.591,-0.5733,-0.5572,-0.5572,-0.5443,-0.5135,-0.4609,-0.3953,-0.3341,-0.3078,-0.2943,-0.2768,-0.2635,-0.2637,-0.2462,-0.2417,-0.2328,-0.2239,-0.2103,-0.2012,-0.1832,-0.1612,-0.1435,-0.1344,-0.1344,-0.112,-0.0716,-0.0582,-0.0269,-2.5168,-2.518,-2.5168,-2.5144,-2.5088,-2.5082,-2.5038,-2.4993,-2.5004,-2.4991,-2.4991,-2.4991,-2.4346,-2.3171,-2.2341,-2.1859,-2.1567,-2.0743,-2.0364,-2.0326,-2.0203,-2.0117,-2.0108,-2.0108,-2.0144,-2.0188,-2.0195,-1.9773,-1.8989,-1.7926,-1.7077,-1.6603,-1.6027,-1.5619,-1.542,-1.5408,-1.541,-1.5383,-1.5342,-1.5335,-1.5322,-1.5206,-1.514,-1.5038,-1.4968,-1.49,-1.4849,-1.4766,-1.4744,-1.4734,-1.4603,-1.4556,-1.4552,-1.4441,-1.4344,-1.4229,-1.3966,-1.3684,-1.3361,-1.3158,-1.2871,-1.2491,-1.222,-1.1915,-1.1542,-1.1265,-1.0963,-1.0616,-0.9945,-0.9387,-0.8871,-0.8595,-0.8305,-0.8003,-0.7851,-0.7806,-0.783,-0.7804,-0.793,-0.8061,-0.8089,-0.7976,-0.7755,-0.7398,-0.7056,-0.7014,-0.6839,-0.6634,-0.6562,-0.6526,-0.6483,-0.6179,-0.5959,-0.5394,-0.4391,-0.4092,-0.3961,-0.3697,-0.3565,-0.3476,-0.317,-0.3081,-0.2948,-0.2901,-0.2635,-0.2457,-0.2455,-0.2281,-0.2016,-0.1791,-0.1746,-0.1748,-0.1389,-0.1254,-0.1075,-2.5113,-2.5101,-2.5095,-2.5101,-2.5082,-2.5025,-2.4993,-2.4993,-2.4991,-2.4991,-2.4991,-2.4991,-2.4953,-2.4745,-2.3936,-2.327,-2.2494,-2.1632,-2.1223,-2.1119,-2.0461,-2.0127,-2.0108,-2.0117,-2.0144,-2.0208,-2.0197,-1.9862,-1.9169,-1.8987,-1.8169,-1.6716,-1.6545,-1.6144,-1.5565,-1.5442,-1.541,-1.5407,-1.5394,-1.5394,-1.5374,-1.533,-1.5246,-1.5197,-1.5061,-1.5004,-1.4976,-1.493,-1.4877,-1.4804,-1.4719,-1.4678,-1.4683,-1.4629,-1.4481,-1.4301,-1.4181,-1.3952,-1.3698,-1.3493,-1.3227,-1.2926,-1.2687,-1.24,-1.203,-1.176,-1.1498,-1.1205,-1.0893,-1.0385,-0.9647,-0.9266,-0.9003,-0.8784,-0.8893,-0.8908,-0.8797,-0.9121,-0.924,-0.9142,-0.9092,-0.8993,-0.8667,-0.8226,-0.8021,-0.7897,-0.7765,-0.7558,-0.7398,-0.7363,-0.7238,-0.7021,-0.6816,-0.6477,-0.548,-0.5091,-0.4874,-0.4657,-0.4482,-0.4395,-0.4176,-0.3913,-0.3737,-0.3565,-0.3388,-0.3258,-0.3123,-0.2946,-0.2679,-0.2455,-0.2235,-0.2101,-0.1969,-0.1748,-0.1524,-2.5076,-2.5076,-2.5082,-2.5089,-2.5025,-2.4993,-2.4999,-2.5004,-2.4991,-2.4991,-2.4991,-2.4991,-2.4991,-2.4999,-2.4708,-2.4125,-2.3313,-2.2511,-2.1864,-2.1397,-2.1053,-2.0633,-2.0136,-2.0108,-2.0135,-2.0182,-2.0208,-2.0096,-1.9836,-1.9355,-1.8811,-1.8116,-1.7105,-1.6435,-1.613,-1.5662,-1.5404,-1.541,-1.5406,-1.5413,-1.5403,-1.5374,-1.5338,-1.5255,-1.5185,-1.5095,-1.5068,-1.5038,-1.4992,-1.4933,-1.4911,-1.4877,-1.4823,-1.4717,-1.4614,-1.4499,-1.4381,-1.418,-1.3973,-1.3818,-1.3572,-1.3261,-1.3088,-1.2871,-1.2553,-1.2296,-1.2014,-1.1738,-1.149,-1.1089,-1.0626,-1.0084,-0.9768,-0.9837,-0.9822,-0.9977,-1.0233,-1.0345,-1.0324,-1.0196,-1.0002,-0.9695,-0.9487,-0.9119,-0.8837,-0.8837,-0.8675,-0.8472,-0.8341,-0.8267,-0.8144,-0.7946,-0.778,-0.7523,-0.6985,-0.6209,-0.5776,-0.5572,-0.5399,-0.5183,-0.4961,-0.4744,-0.4522,-0.4355,-0.4184,-0.3965,-0.3785,-0.3517,-0.3296,-0.3078,-0.2857,-0.2679,-0.2591,-0.2326,-0.2101,-2.507,-2.5057,-2.5057,-2.5044,-2.4999,-2.4999,-2.4985,-2.4991,-2.4991,-2.4991,-2.4991,-2.4991,-2.4991,-2.4999,-2.4993,-2.474,-2.4119,-2.3347,-2.2694,-2.217,-2.1635,-2.1062,-2.0556,-2.0232,-2.0145,-2.0192,-2.0208,-2.023,-2.0258,-1.9741,-1.9368,-1.8979,-1.7912,-1.7089,-1.6613,-1.6076,-1.5706,-1.5485,-1.541,-1.5406,-1.5418,-1.542,-1.5382,-1.5326,-1.5295,-1.5217,-1.5151,-1.5146,-1.5113,-1.5078,-1.5042,-1.4995,-1.493,-1.4822,-1.4737,-1.4664,-1.4519,-1.438,-1.4214,-1.4069,-1.3891,-1.3586,-1.3445,-1.3244,-1.298,-1.2724,-1.2478,-1.2276,-1.203,-1.1805,-1.1761,-1.1314,-1.096,-1.0919,-1.0953,-1.118,-1.1515,-1.1469,-1.1344,-1.1111,-1.0705,-1.0428,-1.0273,-0.9952,-0.9755,-0.9667,-0.9478,-0.9328,-0.9199,-0.907,-0.8958,-0.8773,-0.8561,-0.8357,-0.7987,-0.7433,-0.6713,-0.6465,-0.6215,-0.5959,-0.5701,-0.548,-0.5313,-0.5101,-0.4888,-0.4622,-0.4403,-0.4136,-0.3917,-0.3704,-0.3483,-0.3258,-0.3126,-0.2948,-0.2724,-2.4993,-2.4999,-2.5004,-2.4977,-2.4977,-2.4996,-2.4991,-2.4996,-2.4991,-2.4991,-2.4991,-2.4991,-2.4991,-2.4991,-2.4999,-2.4974,-2.4778,-2.4138,-2.3755,-2.353,-2.2185,-2.1462,-2.1244,-2.0575,-2.0203,-2.0201,-2.0205,-2.0238,-2.0273,-2.02,-1.985,-1.9258,-1.9016,-1.8154,-1.6709,-1.6664,-1.6224,-1.5674,-1.5487,-1.541,-1.5407,-1.5418,-1.5387,-1.5401,-1.5382,-1.5338,-1.5211,-1.5199,-1.5189,-1.519,-1.5133,-1.5083,-1.5003,-1.4936,-1.4867,-1.4794,-1.4695,-1.4541,-1.4416,-1.4282,-1.4114,-1.3917,-1.3776,-1.3573,-1.3328,-1.3123,-1.2946,-1.2778,-1.2652,-1.2623,-1.2972,-1.2947,-1.2507,-1.1787,-1.2277,-1.261,-1.2531,-1.2518,-1.2413,-1.1872,-1.1431,-1.118,-1.0981,-1.0753,-1.0562,-1.0418,-1.0225,-1.0079,-0.9961,-0.9785,-0.9628,-0.9487,-0.9248,-0.9007,-0.8854,-0.8618,-0.7897,-0.7314,-0.7021,-0.6768,-0.6428,-0.6209,-0.6002,-0.5793,-0.5415,-0.5193,-0.4932,-0.4666,-0.4487,-0.4316,-0.4096,-0.388,-0.37,-0.3565,-0.3347,-2.487,-2.4851,-2.4856,-2.4875,-2.487,-2.4917,-2.4931,-2.4931,-2.4977,-2.4991,-2.4991,-2.4991,-2.4991,-2.4991,-2.4991,-2.5004,-2.4985,-2.4701,-2.4341,-2.3819,-2.329,-2.2424,-2.1481,-2.1101,-2.07,-2.0287,-2.0209,-2.0205,-2.0249,-2.0292,-2.013,-1.9883,-1.9354,-1.891,-1.8285,-1.728,-1.647,-1.6263,-1.5695,-1.5408,-1.541,-1.5408,-1.5421,-1.5419,-1.5409,-1.5368,-1.5339,-1.5291,-1.5275,-1.5255,-1.521,-1.5164,-1.5127,-1.5071,-1.5011,-1.4928,-1.485,-1.4756,-1.4619,-1.4519,-1.438,-1.4201,-1.4056,-1.3888,-1.3678,-1.3508,-1.3362,-1.3259,-1.3427,-1.3677,-1.3727,-1.4349,-1.4242,-1.3523,-1.3529,-1.3659,-1.3563,-1.3272,-1.2906,-1.2603,-1.2246,-1.1993,-1.1836,-1.1579,-1.1356,-1.1159,-1.1019,-1.0867,-1.0649,-1.0524,-1.0331,-1.0118,-0.9883,-0.9646,-0.9439,-0.9248,-0.8756,-0.8136,-0.7814,-0.744,-0.7105,-0.6852,-0.6647,-0.6349,-0.6013,-0.5717,-0.5458,-0.5241,-0.5062,-0.484,-0.4574,-0.4443,-0.4312,-0.414,-0.3921,-2.4813,-2.4813,-2.4813,-2.4982,-2.5223,-2.5007,-2.5078,-2.5267,-2.5036,-2.495,-2.4964,-2.4945,-2.4996,-2.4996,-2.4991,-2.4991,-2.4991,-2.4991,-2.472,-2.4227,-2.3921,-2.3172,-2.1983,-2.1195,-2.069,-2.0269,-2.0192,-2.0209,-2.0205,-2.023,-2.0262,-2.0176,-1.9774,-1.9386,-1.9134,-1.8149,-1.7361,-1.6706,-1.6163,-1.5729,-1.5482,-1.541,-1.541,-1.5409,-1.5403,-1.5415,-1.5389,-1.536,-1.5326,-1.5299,-1.5255,-1.5241,-1.5237,-1.5177,-1.5107,-1.5026,-1.4957,-1.4894,-1.4785,-1.4726,-1.4603,-1.4421,-1.4302,-1.4162,-1.4054,-1.4053,-1.4129,-1.404,-1.4466,-1.4855,-1.4998,-1.5401,-1.562,-1.5331,-1.4844,-1.4598,-1.446,-1.3967,-1.3568,-1.3297,-1.3022,-1.2791,-1.2567,-1.2389,-1.2138,-1.1909,-1.1715,-1.1579,-1.1367,-1.1217,-1.0954,-1.0697,-1.0505,-1.0264,-1.0021,-0.9785,-0.9518,-0.9039,-0.8553,-0.8103,-0.7731,-0.7482,-0.728,-0.6816,-0.6435,-0.6221,-0.6007,-0.5717,-0.5501,-0.528,-0.514,-0.4927,-0.4801,-0.4626,-0.4451,-2.4798,-2.4779,-2.4779,-2.5269,-2.5834,-2.5171,-2.5246,-2.5846,-2.5186,-2.4823,-2.4884,-2.4917,-2.4931,-2.4977,-2.4996,-2.4991,-2.4991,-2.4991,-2.4991,-2.4739,-2.4277,-2.3688,-2.3088,-2.1213,-2.0298,-2.0327,-2.0221,-2.0192,-2.0201,-2.0205,-2.0238,-2.0281,-2.0197,-1.9941,-1.9347,-1.9177,-1.8289,-1.7182,-1.6842,-1.6373,-1.5623,-1.5558,-1.5465,-1.5427,-1.541,-1.5408,-1.5407,-1.5398,-1.536,-1.5307,-1.5315,-1.5291,-1.5289,-1.5236,-1.5188,-1.5101,-1.5047,-1.4992,-1.493,-1.4859,-1.4747,-1.4616,-1.4519,-1.4489,-1.45,-1.485,-1.5083,-1.5125,-1.5645,-1.6159,-1.6455,-1.6579,-1.6588,-1.6717,-1.6034,-1.5418,-1.4921,-1.4529,-1.4259,-1.4019,-1.3769,-1.348,-1.3285,-1.3057,-1.2849,-1.2603,-1.2378,-1.2246,-1.2029,-1.1811,-1.1542,-1.1282,-1.1067,-1.0802,-1.0552,-1.0254,-1.0021,-0.9755,-0.9279,-0.8765,-0.8267,-0.7987,-0.7739,-0.7273,-0.6901,-0.6725,-0.652,-0.627,-0.6062,-0.5927,-0.5712,-0.5458,-0.5241,-0.5106,-0.4888,-2.4645,-2.4645,-2.4645,-2.5148,-2.578,-2.508,-2.5223,-2.5875,-2.5156,-2.4794,-2.4842,-2.487,-2.4898,-2.4931,-2.4977,-2.4991,-2.4977,-2.4991,-2.4991,-2.4972,-2.4801,-2.4303,-2.3374,-2.1327,-2.047,-2.0881,-2.047,-2.0155,-2.0192,-2.0209,-2.0235,-2.0285,-2.0289,-2.0255,-2.0012,-1.945,-1.8979,-1.8483,-1.7843,-1.7184,-1.6481,-1.6362,-1.602,-1.5455,-1.5426,-1.5429,-1.541,-1.5409,-1.5398,-1.5377,-1.5374,-1.5336,-1.5319,-1.5291,-1.5236,-1.5196,-1.5163,-1.5108,-1.5052,-1.4984,-1.4892,-1.4822,-1.4793,-1.4865,-1.5392,-1.5446,-1.5746,-1.6178,-1.6791,-1.7153,-1.7213,-1.7411,-1.7507,-1.7206,-1.6602,-1.5966,-1.5536,-1.5166,-1.4878,-1.4676,-1.4392,-1.4149,-1.3921,-1.3722,-1.3522,-1.3263,-1.3057,-1.2849,-1.2638,-1.2389,-1.2126,-1.1799,-1.1542,-1.1319,-1.1057,-1.0753,-1.0495,-1.0351,-0.9961,-0.9457,-0.8886,-0.839,-0.8103,-0.7765,-0.744,-0.7189,-0.7027,-0.6816,-0.6689,-0.6526,-0.6184,-0.5847,-0.5712,-0.5583,-0.5323,-2.4564,-2.4564,-2.458,-2.5101,-2.5716,-2.5,-2.5164,-2.57,-2.5133,-2.4768,-2.4798,-2.4846,-2.4842,-2.4851,-2.4931,-2.4964,-2.4945,-2.4996,-2.4991,-2.4991,-2.4985,-2.455,-2.3717,-2.2481,-2.1998,-2.1292,-2.0881,-2.0489,-2.0212,-2.0183,-2.0218,-2.0271,-2.0296,-2.0335,-2.0294,-1.9922,-1.9424,-1.9128,-1.8625,-1.8002,-1.7287,-1.7212,-1.6714,-1.6098,-1.59,-1.5831,-1.5503,-1.541,-1.5408,-1.5398,-1.5403,-1.5373,-1.5363,-1.5342,-1.5315,-1.5268,-1.5236,-1.5215,-1.5158,-1.5101,-1.5216,-1.5394,-1.5374,-1.5743,-1.6354,-1.6594,-1.7038,-1.7306,-1.7926,-1.8124,-1.8039,-1.813,-1.7996,-1.7676,-1.724,-1.6712,-1.616,-1.5809,-1.555,-1.5285,-1.5059,-1.4828,-1.4564,-1.4406,-1.4181,-1.3921,-1.3656,-1.3454,-1.3229,-1.2941,-1.2696,-1.2378,-1.2054,-1.1836,-1.1579,-1.1282,-1.0943,-1.0802,-1.0505,-1.001,-0.9448,-0.8837,-0.8553,-0.8259,-0.7938,-0.7697,-0.753,-0.7321,-0.7118,-0.6865,-0.6526,-0.6313,-0.6221,-0.6007,-0.5755,-2.4478,-2.4478,-2.453,-2.503,-2.5609,-2.4955,-2.5082,-2.5639,-2.5038,-2.4729,-2.4776,-2.4772,-2.4802,-2.4813,-2.4856,-2.4903,-2.4898,-2.4964,-2.4996,-2.4991,-2.4947,-2.4645,-2.415,-2.414,-2.3335,-2.2027,-2.1588,-2.0986,-2.0489,-2.0307,-2.0211,-2.0229,-2.0271,-2.0304,-2.0289,-2.0229,-1.9877,-1.9438,-1.9306,-1.8799,-1.8179,-1.801,-1.7594,-1.6866,-1.6522,-1.6247,-1.5768,-1.5502,-1.5409,-1.5409,-1.5403,-1.5395,-1.5391,-1.5416,-1.5379,-1.5401,-1.5447,-1.5511,-1.5434,-1.5584,-1.5824,-1.6326,-1.6399,-1.6685,-1.7387,-1.7903,-1.8199,-1.8369,-1.8901,-1.8966,-1.8805,-1.8587,-1.8298,-1.8069,-1.8,-1.7592,-1.6933,-1.6474,-1.6176,-1.5909,-1.5696,-1.5463,-1.5255,-1.5029,-1.4845,-1.4533,-1.4264,-1.4019,-1.3756,-1.3488,-1.3216,-1.2918,-1.2673,-1.2389,-1.209,-1.1799,-1.1505,-1.1255,-1.0926,-1.0467,-0.9873,-0.939,-0.9039,-0.8765,-0.848,-0.8234,-0.8062,-0.7863,-0.7579,-0.7328,-0.7027,-0.6859,-0.6732,-0.6428,-0.6173,-2.4339,-2.4339,-2.4357,-2.4856,-2.543,-2.4852,-2.5016,-2.5703,-2.4954,-2.4666,-2.4714,-2.4726,-2.4757,-2.4806,-2.4813,-2.4856,-2.4903,-2.4917,-2.495,-2.4991,-2.4991,-2.4942,-2.455,-2.4295,-2.3683,-2.295,-2.1951,-2.133,-2.1025,-2.0432,-2.0155,-2.0211,-2.0229,-2.0244,-2.0285,-2.0281,-2.0241,-2.0051,-2.0006,-1.9593,-1.901,-1.8818,-1.845,-1.7668,-1.7015,-1.6631,-1.6332,-1.576,-1.5436,-1.5422,-1.5488,-1.5623,-1.5522,-1.5493,-1.5522,-1.5687,-1.6058,-1.6304,-1.6389,-1.6789,-1.728,-1.7388,-1.743,-1.7688,-1.8374,-1.8601,-1.8949,-1.9264,-1.9497,-1.9372,-1.9132,-1.893,-1.868,-1.8471,-1.8328,-1.8117,-1.7704,-1.7175,-1.6722,-1.6474,-1.6243,-1.6009,-1.5681,-1.5536,-1.5359,-1.512,-1.4876,-1.4641,-1.4342,-1.4052,-1.3769,-1.3501,-1.3195,-1.2918,-1.2567,-1.2234,-1.1872,-1.1616,-1.1292,-1.1002,-1.0408,-0.9952,-0.9677,-0.9328,-0.8975,-0.8765,-0.8553,-0.8267,-0.7979,-0.7773,-0.7523,-0.7321,-0.707,-0.6816,-0.652,-2.4209,-2.4228,-2.4247,-2.4524,-2.4838,-2.4561,-2.4706,-2.5055,-2.4756,-2.4582,-2.465,-2.4679,-2.4729,-2.4745,-2.4787,-2.4832,-2.4861,-2.4903,-2.4931,-2.4977,-2.4991,-2.4991,-2.4942,-2.4455,-2.4112,-2.3736,-2.2607,-2.1835,-2.1243,-2.0585,-2.0117,-2.0155,-2.0183,-2.0209,-2.0244,-2.026,-2.0227,-2.0227,-2.028,-2.0062,-1.9716,-1.9651,-1.9287,-1.8474,-1.7659,-1.7194,-1.7193,-1.6881,-1.6634,-1.6583,-1.6565,-1.6403,-1.6074,-1.6033,-1.6185,-1.6649,-1.6945,-1.7262,-1.7417,-1.7606,-1.7965,-1.8405,-1.8383,-1.8819,-1.926,-1.9457,-1.9525,-1.9771,-1.975,-1.9599,-1.932,-1.92,-1.9,-1.8843,-1.8678,-1.8487,-1.8229,-1.7715,-1.7224,-1.6977,-1.6773,-1.6538,-1.6309,-1.609,-1.5896,-1.5652,-1.5389,-1.512,-1.4951,-1.4658,-1.4342,-1.4052,-1.3735,-1.3399,-1.3057,-1.2673,-1.2246,-1.1982,-1.1689,-1.1431,-1.1057,-1.0639,-1.0312,-0.9883,-0.9487,-0.9248,-0.8999,-0.8707,-0.8423,-0.8177,-0.7938,-0.7704,-0.7419,-0.716,-0.6907,-2.4094,-2.4075,-2.4135,-2.4173,-2.4173,-2.4266,-2.4376,-2.4466,-2.4465,-2.4517,-2.4564,-2.465,-2.4685,-2.4698,-2.4745,-2.4791,-2.4821,-2.4861,-2.4903,-2.4931,-2.4964,-2.4977,-2.4934,-2.4828,-2.4588,-2.3928,-2.3164,-2.2394,-2.1556,-2.0718,-2.0327,-2.0165,-2.0145,-2.0183,-2.0173,-2.0199,-2.0205,-2.0211,-2.0246,-2.0262,-2.0181,-2.0178,-1.9825,-1.9295,-1.8396,-1.7999,-1.8043,-1.7948,-1.7902,-1.7921,-1.7949,-1.7665,-1.7275,-1.6972,-1.7148,-1.7929,-1.8019,-1.8184,-1.8235,-1.837,-1.8733,-1.9288,-1.9313,-1.9573,-2.0075,-2.0131,-2.0065,-1.9984,-1.9909,-1.9719,-1.949,-1.938,-1.9295,-1.917,-1.9019,-1.8861,-1.8604,-1.8153,-1.7788,-1.7439,-1.7248,-1.7035,-1.6809,-1.6602,-1.6421,-1.6191,-1.5924,-1.5652,-1.5448,-1.521,-1.4907,-1.461,-1.4278,-1.3868,-1.3501,-1.3173,-1.2731,-1.2425,-1.2162,-1.1909,-1.1653,-1.1282,-1.0878,-1.0351,-0.9961,-0.9755,-0.9478,-0.9182,-0.8901,-0.8626,-0.8357,-0.807,-0.7829,-0.7552,-0.7258,-2.4016,-2.4016,-2.4036,-2.4036,-2.4056,-2.417,-2.4209,-2.4266,-2.4303,-2.4393,-2.4498,-2.4534,-2.4601,-2.4685,-2.4717,-2.4729,-2.4791,-2.4832,-2.4842,-2.4856,-2.4884,-2.4917,-2.4931,-2.4945,-2.4858,-2.4638,-2.3961,-2.3149,-2.2266,-2.1553,-2.065,-2.0174,-2.0098,-2.0117,-2.0136,-2.0183,-2.0182,-2.0188,-2.0216,-2.0214,-2.0219,-2.0215,-2.0188,-1.9864,-1.9079,-1.8788,-1.8797,-1.8663,-1.8373,-1.797,-1.7921,-1.8273,-1.8468,-1.8147,-1.8041,-1.826,-1.8769,-1.9077,-1.9112,-1.9645,-2.0016,-2.0246,-2.018,-2.0162,-2.0346,-2.0321,-2.0265,-2.0178,-2.005,-1.9885,-1.9762,-1.9612,-1.949,-1.9365,-1.923,-1.9086,-1.8896,-1.866,-1.8351,-1.7997,-1.7738,-1.7509,-1.7296,-1.7076,-1.6876,-1.6659,-1.6405,-1.616,-1.5966,-1.571,-1.5404,-1.5106,-1.4859,-1.4374,-1.3888,-1.3602,-1.3229,-1.2918,-1.2673,-1.2389,-1.2138,-1.1847,-1.1431,-1.0981,-1.0572,-1.0273,-0.9991,-0.9658,-0.935,-0.9079,-0.8805,-0.848,-0.8201,-0.7919,-0.7587,-2.3873,-2.3912,-2.3935,-2.3937,-2.3976,-2.4036,-2.4133,-2.419,-2.4228,-2.4303,-2.4393,-2.4465,-2.4534,-2.4601,-2.465,-2.4679,-2.4742,-2.4768,-2.4798,-2.4813,-2.4823,-2.4856,-2.4856,-2.487,-2.4884,-2.479,-2.4439,-2.3657,-2.2566,-2.1695,-2.0877,-2.0221,-2.003,-2.004,-2.006,-2.0089,-2.0108,-2.0135,-2.0144,-2.0162,-2.0188,-2.0205,-2.0219,-2.0069,-1.9841,-1.965,-1.9632,-1.9631,-1.9436,-1.9273,-1.9221,-1.9439,-1.9538,-1.951,-1.9268,-1.9321,-1.9684,-1.9961,-1.996,-2.0386,-2.0492,-2.054,-2.0522,-2.0496,-2.0463,-2.041,-2.034,-2.0265,-2.0188,-2.005,-1.9909,-1.9797,-1.9676,-1.9559,-1.9419,-1.9305,-1.9182,-1.9051,-1.8789,-1.845,-1.8211,-1.7958,-1.7726,-1.7502,-1.7337,-1.7101,-1.6876,-1.667,-1.6474,-1.6188,-1.5907,-1.5565,-1.5285,-1.4814,-1.4374,-1.4052,-1.3735,-1.3467,-1.3173,-1.2883,-1.2615,-1.2354,-1.2066,-1.1689,-1.1292,-1.0888,-1.0467,-1.0099,-0.9795,-0.9527,-0.9199,-0.8926,-0.857,-0.8283,-0.7995,-2.3783,-2.3804,-2.3852,-2.3894,-2.3876,-2.3955,-2.4054,-2.4151,-2.417,-2.4209,-2.4284,-2.4393,-2.4465,-2.4498,-2.4566,-2.4647,-2.4711,-2.4742,-2.4772,-2.4783,-2.4798,-2.4798,-2.4798,-2.4813,-2.4813,-2.4808,-2.4752,-2.4077,-2.2943,-2.203,-2.1111,-2.0475,-2.0181,-1.9991,-2.0001,-2.0011,-2.003,-2.005,-2.0069,-2.0117,-2.0155,-2.0173,-2.018,-2.0186,-2.0241,-2.0227,-2.0161,-2.0152,-2.0173,-2.0173,-2.0224,-2.033,-2.039,-2.0439,-2.0472,-2.0483,-2.0549,-2.0578,-2.0562,-2.0566,-2.0584,-2.0582,-2.0552,-2.0519,-2.0513,-2.048,-2.0434,-2.0334,-2.0258,-2.0169,-2.0041,-1.9922,-1.9843,-1.9757,-1.9638,-1.9532,-1.9427,-1.9326,-1.9166,-1.8895,-1.8643,-1.8391,-1.8125,-1.7905,-1.7693,-1.7526,-1.732,-1.7126,-1.6926,-1.6696,-1.6389,-1.6022,-1.5638,-1.5225,-1.4814,-1.4533,-1.4246,-1.3954,-1.3656,-1.3353,-1.3126,-1.2861,-1.2567,-1.2234,-1.192,-1.1468,-1.1029,-1.0582,-1.0264,-0.9952,-0.9637,-0.9319,-0.9007,-0.8692,-0.8414,-2.3721,-2.3721,-2.3786,-2.3807,-2.3828,-2.3876,-2.3955,-2.4016,-2.4094,-2.4152,-2.4229,-2.4303,-2.4393,-2.4481,-2.4566,-2.4631,-2.4682,-2.4698,-2.4711,-2.4707,-2.4757,-2.4791,-2.4806,-2.4817,-2.4783,-2.4783,-2.4798,-2.4351,-2.3523,-2.2685,-2.182,-2.1047,-2.0367,-1.9998,-1.9998,-1.9971,-1.9982,-2.0011,-2.0011,-2.0021,-2.0021,-2.0079,-2.0108,-2.0126,-2.0173,-2.0208,-2.0203,-2.0227,-2.0242,-2.0318,-2.0313,-2.034,-2.0392,-2.0427,-2.0429,-2.0428,-2.0471,-2.0504,-2.0525,-2.0559,-2.0604,-2.0605,-2.0584,-2.0557,-2.0521,-2.0506,-2.0448,-2.039,-2.0334,-2.0287,-2.0192,-2.0105,-2.0041,-1.995,-1.9832,-1.9707,-1.9599,-1.9527,-1.9413,-1.9259,-1.8996,-1.8753,-1.8528,-1.829,-1.8082,-1.7927,-1.7749,-1.7549,-1.732,-1.7076,-1.6773,-1.6394,-1.6065,-1.5652,-1.5344,-1.5029,-1.4752,-1.4456,-1.4181,-1.3888,-1.3622,-1.3365,-1.3069,-1.2731,-1.2413,-1.2054,-1.1579,-1.1169,-1.0764,-1.0418,-1.0108,-0.9795,-0.9478,-0.9168,-0.8814,-2.3611,-2.3652,-2.37,-2.3783,-2.3804,-2.3828,-2.3873,-2.3937,-2.4016,-2.4094,-2.4153,-2.4229,-2.4303,-2.4429,-2.4532,-2.4547,-2.4599,-2.4615,-2.4631,-2.4629,-2.4679,-2.4679,-2.4679,-2.4695,-2.4692,-2.4692,-2.4673,-2.4617,-2.402,-2.3412,-2.2508,-2.1298,-2.0781,-2.0358,-2.0066,-1.9945,-1.9966,-1.9988,-2.0,-1.9982,-2.0011,-2.003,-2.004,-2.006,-2.0117,-2.0126,-2.0134,-2.0142,-2.0167,-2.0227,-2.0242,-2.0284,-2.0332,-2.0347,-2.0353,-2.0402,-2.041,-2.0453,-2.048,-2.0523,-2.0573,-2.0599,-2.0605,-2.0585,-2.0557,-2.0516,-2.0487,-2.0449,-2.043,-2.0377,-2.0321,-2.0246,-2.0195,-2.0116,-2.0011,-1.9899,-1.9797,-1.972,-1.9617,-1.9476,-1.9346,-1.913,-1.8913,-1.868,-1.8452,-1.8266,-1.81,-1.791,-1.7625,-1.732,-1.7002,-1.6675,-1.6421,-1.6133,-1.5839,-1.5551,-1.53,-1.5029,-1.4721,-1.4438,-1.4136,-1.3875,-1.3542,-1.3251,-1.2953,-1.2555,-1.2151,-1.1678,-1.1196,-1.0867,-1.0534,-1.0264,-0.9903,-0.9558,-0.9159,-2.3695,-2.3562,-2.3652,-2.3718,-2.3761,-2.3783,-2.381,-2.3876,-2.3955,-2.4016,-2.4113,-2.4154,-2.4266,-2.4375,-2.4464,-2.4497,-2.4512,-2.4547,-2.458,-2.458,-2.4599,-2.4599,-2.458,-2.458,-2.458,-2.4547,-2.4545,-2.4524,-2.4404,-2.3979,-2.3098,-2.1708,-2.1218,-2.0816,-2.0318,-2.0021,-1.993,-1.9971,-1.9977,-1.9969,-1.9979,-1.996,-1.996,-1.999,-2.0029,-2.0068,-2.006,-2.0069,-2.0106,-2.0161,-2.0178,-2.0222,-2.0254,-2.0292,-2.032,-2.0347,-2.0371,-2.039,-2.0456,-2.049,-2.0533,-2.0566,-2.0598,-2.0605,-2.0605,-2.0557,-2.0504,-2.0494,-2.0483,-2.0467,-2.0424,-2.0359,-2.0301,-2.0235,-2.0161,-2.0069,-1.9981,-1.9896,-1.9804,-1.9695,-1.9591,-1.9481,-1.9256,-1.9048,-1.8825,-1.8622,-1.8448,-1.8246,-1.7954,-1.7625,-1.7361,-1.7068,-1.6841,-1.6591,-1.634,-1.6065,-1.5839,-1.5551,-1.5285,-1.4982,-1.4645,-1.4347,-1.4025,-1.3742,-1.3454,-1.3148,-1.2824,-1.2211,-1.1641,-1.1345,-1.1057,-1.0715,-1.037,-0.9981,-0.9469,-2.4177,-2.3517,-2.358,-2.3607,-2.3629,-2.3743,-2.3807,-2.3816,-2.3876,-2.3996,-2.4094,-2.4172,-2.4284,-2.4358,-2.4393,-2.4428,-2.4476,-2.4512,-2.453,-2.4547,-2.4599,-2.453,-2.4495,-2.4478,-2.4478,-2.4425,-2.4425,-2.4444,-2.4442,-2.4381,-2.388,-2.3276,-2.2055,-2.1324,-2.086,-2.0539,-2.0294,-2.0281,-2.0266,-2.0115,-2.0059,-2.0013,-1.9976,-1.9922,-1.9963,-1.9996,-2.0028,-2.002,-2.0031,-2.0098,-2.0098,-2.0134,-2.0197,-2.023,-2.0281,-2.0318,-2.0327,-2.0353,-2.0394,-2.0443,-2.0499,-2.0525,-2.0547,-2.058,-2.0583,-2.0605,-2.0561,-2.0518,-2.0521,-2.0516,-2.0465,-2.043,-2.0369,-2.0334,-2.0272,-2.0211,-2.0124,-2.0041,-1.996,-1.9892,-1.98,-1.9682,-1.9596,-1.9361,-1.9097,-1.8877,-1.8678,-1.8469,-1.8249,-1.7958,-1.7755,-1.7526,-1.7288,-1.7068,-1.6789,-1.6538,-1.6297,-1.6037,-1.5754,-1.5463,-1.5134,-1.4831,-1.4582,-1.4296,-1.4006,-1.3756,-1.3433,-1.2824,-1.233,-1.1898,-1.1531,-1.1169,-1.0677,-1.0176,-0.9677,-2.4516,-2.4195,-2.3736,-2.3562,-2.3607,-2.3652,-2.3721,-2.3789,-2.3834,-2.3955,-2.4094,-2.4171,-2.4228,-2.4284,-2.4321,-2.4339,-2.4375,-2.4374,-2.441,-2.441,-2.441,-2.4393,-2.4374,-2.4374,-2.4375,-2.4338,-2.4338,-2.4338,-2.4357,-2.4375,-2.4335,-2.3712,-2.2843,-2.2252,-2.1756,-2.1371,-2.1272,-2.1234,-2.1191,-2.111,-2.0615,-2.0534,-2.0339,-1.9873,-1.9908,-1.993,-1.9963,-1.9985,-2.0017,-2.0019,-2.0049,-2.0079,-2.0135,-2.0162,-2.0216,-2.0238,-2.0277,-2.0306,-2.0354,-2.0394,-2.0443,-2.0499,-2.0531,-2.0549,-2.0551,-2.0583,-2.0566,-2.0546,-2.0542,-2.0547,-2.0492,-2.0467,-2.0456,-2.0434,-2.0385,-2.0314,-2.0246,-2.0175,-2.0106,-2.0031,-1.996,-1.9855,-1.98,-1.9707,-1.9405,-1.9146,-1.8912,-1.8698,-1.8471,-1.829,-1.8082,-1.791,-1.7687,-1.7455,-1.7216,-1.6993,-1.6789,-1.6501,-1.6231,-1.5938,-1.5652,-1.5448,-1.5163,-1.4859,-1.4533,-1.4246,-1.3901,-1.3433,-1.2941,-1.2401,-1.1982,-1.1542,-1.1019,-1.0447,-0.9952,-2.4741,-2.4302,-2.3731,-2.3539,-2.3562,-2.3585,-2.3652,-2.3721,-2.3771,-2.3876,-2.4036,-2.4132,-2.4171,-2.4209,-2.4247,-2.4303,-2.4321,-2.4303,-2.4303,-2.4303,-2.4284,-2.4266,-2.4266,-2.4247,-2.4247,-2.4228,-2.4228,-2.421,-2.421,-2.4229,-2.4211,-2.41,-2.3838,-2.3145,-2.2554,-2.223,-2.2171,-2.2133,-2.2073,-2.1938,-2.1335,-2.1287,-2.1202,-2.0558,-2.0446,-2.0301,-2.0212,-2.0134,-1.9941,-1.9974,-1.9998,-2.001,-2.0059,-2.0089,-2.0135,-2.018,-2.0222,-2.0285,-2.0306,-2.0359,-2.0415,-2.0495,-2.0506,-2.0503,-2.0514,-2.0549,-2.052,-2.0523,-2.0566,-2.0583,-2.0537,-2.0504,-2.0503,-2.0469,-2.0458,-2.0404,-2.034,-2.0269,-2.0212,-2.0148,-2.0087,-2.0022,-1.9928,-1.9835,-1.9585,-1.9313,-1.9081,-1.8913,-1.8807,-1.8585,-1.8391,-1.8229,-1.804,-1.7822,-1.7635,-1.7384,-1.715,-1.6926,-1.667,-1.6432,-1.6203,-1.5955,-1.5727,-1.5448,-1.512,-1.4797,-1.442,-1.4038,-1.3454,-1.2849,-1.2354,-1.1847,-1.1356,-1.0791,-1.038,-2.4811,-2.3565,-2.3512,-2.3517,-2.3517,-2.358,-2.3607,-2.3629,-2.3743,-2.3831,-2.3917,-2.3996,-2.4056,-2.4152,-2.419,-2.4209,-2.4266,-2.4266,-2.4266,-2.4247,-2.421,-2.4191,-2.4153,-2.4133,-2.4113,-2.4036,-2.4037,-2.4056,-2.4036,-2.4095,-2.4113,-2.4151,-2.3989,-2.3749,-2.3149,-2.2442,-2.207,-2.2067,-2.2192,-2.2188,-2.2039,-2.2047,-2.1932,-2.1554,-2.1166,-2.0931,-2.0864,-2.0352,-2.0144,-2.0141,-1.9998,-1.9974,-2.0015,-2.0067,-2.0098,-2.0088,-2.0164,-2.0227,-2.0292,-2.036,-2.0413,-2.0459,-2.0472,-2.0492,-2.0506,-2.0506,-2.0504,-2.051,-2.054,-2.0585,-2.0566,-2.0542,-2.0511,-2.0514,-2.049,-2.0465,-2.0415,-2.038,-2.0334,-2.0269,-2.0238,-2.0167,-2.006,-1.9928,-1.9707,-1.9485,-1.9237,-1.9115,-1.9051,-1.8914,-1.8733,-1.8565,-1.8371,-1.8208,-1.7997,-1.7755,-1.7549,-1.732,-1.7101,-1.6885,-1.6654,-1.6432,-1.6188,-1.5981,-1.5682,-1.5344,-1.4998,-1.4658,-1.4006,-1.3319,-1.2567,-1.2041,-1.159,-1.118,-1.0764,-2.4662,-2.4177,-2.3661,-2.3471,-2.3494,-2.3517,-2.3562,-2.3607,-2.3678,-2.3768,-2.3834,-2.3858,-2.3937,-2.4016,-2.4074,-2.4075,-2.4095,-2.4114,-2.4095,-2.4095,-2.4075,-2.4075,-2.4054,-2.4016,-2.3996,-2.3996,-2.3978,-2.3978,-2.3998,-2.3996,-2.4016,-2.4036,-2.4056,-2.3987,-2.3879,-2.3582,-2.3562,-2.3544,-2.3524,-2.3339,-2.2802,-2.2724,-2.2553,-2.2089,-2.1779,-2.1656,-2.1614,-2.0923,-2.0564,-2.0452,-2.0257,-1.9972,-1.9968,-2.0015,-2.0028,-2.0049,-2.0108,-2.0162,-2.0222,-2.028,-2.0353,-2.0404,-2.0424,-2.0449,-2.0487,-2.0511,-2.0513,-2.0509,-2.0523,-2.0555,-2.0564,-2.0527,-2.0506,-2.0537,-2.0545,-2.0509,-2.0467,-2.0461,-2.0425,-2.038,-2.032,-2.0268,-2.0156,-2.0097,-1.9912,-1.9767,-1.9561,-1.939,-1.9289,-1.9202,-1.9054,-1.8896,-1.8733,-1.8547,-1.8353,-1.8128,-1.7954,-1.776,-1.7579,-1.7368,-1.7134,-1.6894,-1.667,-1.6448,-1.6176,-1.5883,-1.5448,-1.4984,-1.4392,-1.3742,-1.3079,-1.2461,-1.1993,-1.159,-1.118,-2.4346,-2.4111,-2.3596,-2.3424,-2.3471,-2.3476,-2.3539,-2.3625,-2.3634,-2.3703,-2.3732,-2.3753,-2.3831,-2.3894,-2.3915,-2.3935,-2.3937,-2.3955,-2.3955,-2.3917,-2.3953,-2.3933,-2.3933,-2.3933,-2.3873,-2.3894,-2.3894,-2.3894,-2.3873,-2.3894,-2.3894,-2.3894,-2.3935,-2.3941,-2.3984,-2.4005,-2.4062,-2.4026,-2.3934,-2.386,-2.3548,-2.3399,-2.325,-2.2861,-2.256,-2.2367,-2.2176,-2.1757,-2.1176,-2.0904,-2.0527,-2.0057,-2.0005,-1.9926,-1.9971,-2.0007,-2.0078,-2.0126,-2.0161,-2.0214,-2.0281,-2.0313,-2.0341,-2.0383,-2.0448,-2.0454,-2.048,-2.048,-2.0497,-2.0516,-2.0552,-2.0501,-2.0525,-2.0566,-2.0544,-2.0516,-2.0543,-2.0525,-2.0483,-2.0445,-2.041,-2.0352,-2.0282,-2.0223,-2.0122,-1.9993,-1.9869,-1.9707,-1.955,-1.9464,-1.9366,-1.9202,-1.9035,-1.8861,-1.8698,-1.8491,-1.8351,-1.8205,-1.8018,-1.7805,-1.7625,-1.7358,-1.715,-1.6917,-1.6617,-1.6297,-1.5767,-1.5256,-1.4783,-1.4278,-1.3722,-1.3079,-1.2461,-1.1993,-1.159,-2.3954,-2.3366,-2.3378,-2.3383,-2.3424,-2.3471,-2.3522,-2.3585,-2.3585,-2.3611,-2.3588,-2.3682,-2.3743,-2.3804,-2.3804,-2.3789,-2.3813,-2.3813,-2.3813,-2.3813,-2.3828,-2.3807,-2.3804,-2.3783,-2.3765,-2.3721,-2.3743,-2.3765,-2.3721,-2.3765,-2.3743,-2.3743,-2.3792,-2.3834,-2.3876,-2.3935,-2.4016,-2.4056,-2.4095,-2.4003,-2.3858,-2.3988,-2.3879,-2.3603,-2.3363,-2.3176,-2.2896,-2.2465,-2.177,-2.1347,-2.0975,-2.0487,-2.0132,-1.9851,-1.9922,-1.9963,-2.0067,-2.0088,-2.0108,-2.0155,-2.0199,-2.0238,-2.0272,-2.0328,-2.0365,-2.0388,-2.0415,-2.0463,-2.0484,-2.051,-2.0511,-2.0519,-2.0527,-2.0539,-2.0526,-2.0527,-2.0583,-2.0555,-2.0523,-2.0486,-2.0483,-2.0443,-2.0394,-2.0321,-2.0255,-2.0208,-2.0077,-1.9973,-1.9832,-1.9707,-1.9592,-1.946,-1.9308,-1.9168,-1.9017,-1.8842,-1.8698,-1.8548,-1.8371,-1.8191,-1.8023,-1.7827,-1.7618,-1.7384,-1.7076,-1.668,-1.616,-1.5696,-1.5269,-1.4752,-1.4278,-1.3589,-1.2941,-1.2437,-1.2029,-2.3386,-2.3241,-2.3241,-2.3271,-2.3336,-2.3383,-2.3471,-2.3517,-2.3539,-2.3562,-2.3594,-2.3611,-2.3674,-2.3721,-2.3721,-2.3743,-2.3743,-2.3743,-2.3725,-2.3725,-2.3721,-2.3739,-2.3739,-2.3718,-2.3718,-2.3718,-2.37,-2.3696,-2.37,-2.3718,-2.3718,-2.3721,-2.3703,-2.3725,-2.3747,-2.3768,-2.3873,-2.3955,-2.3996,-2.4014,-2.4016,-2.4056,-2.4075,-2.3948,-2.3877,-2.3713,-2.3585,-2.3087,-2.253,-2.2391,-2.19,-2.1347,-2.0606,-2.0575,-2.0578,-1.9976,-1.9985,-2.0017,-2.0048,-2.0107,-2.0127,-2.0144,-2.0197,-2.0262,-2.0294,-2.0334,-2.0365,-2.0418,-2.0459,-2.0472,-2.0496,-2.051,-2.0522,-2.0521,-2.0513,-2.0522,-2.0566,-2.0585,-2.054,-2.0551,-2.0536,-2.0494,-2.0456,-2.041,-2.0355,-2.0328,-2.0294,-2.018,-2.0069,-1.9939,-1.9818,-1.9682,-1.9564,-1.9423,-1.932,-1.9159,-1.9013,-1.886,-1.8717,-1.8567,-1.8395,-1.8214,-1.804,-1.7777,-1.7439,-1.7002,-1.6528,-1.6093,-1.5725,-1.5299,-1.4828,-1.4103,-1.3421,-1.2941,-1.2473,-2.3119,-2.3168,-2.3193,-2.3241,-2.3313,-2.3354,-2.3383,-2.343,-2.3453,-2.3517,-2.3562,-2.358,-2.3585,-2.3629,-2.3611,-2.3611,-2.3611,-2.3611,-2.3611,-2.3611,-2.3634,-2.3611,-2.3611,-2.3629,-2.3629,-2.3611,-2.3611,-2.3629,-2.3611,-2.3611,-2.3629,-2.3629,-2.3652,-2.3634,-2.3638,-2.3682,-2.3728,-2.3813,-2.3855,-2.3894,-2.3933,-2.3955,-2.3976,-2.3976,-2.4016,-2.4074,-2.4077,-2.3529,-2.3346,-2.3086,-2.2491,-2.2041,-2.1417,-2.1334,-2.1395,-2.0885,-2.0576,-2.0566,-2.0508,-2.018,-2.0115,-2.0079,-2.0174,-2.0171,-2.023,-2.0258,-2.0308,-2.0347,-2.039,-2.0432,-2.0444,-2.0472,-2.0496,-2.0516,-2.0514,-2.0506,-2.0539,-2.0585,-2.0605,-2.0602,-2.0576,-2.0525,-2.0489,-2.0471,-2.0449,-2.0419,-2.041,-2.0352,-2.0229,-2.0122,-1.9992,-1.9858,-1.9774,-1.9663,-1.9572,-1.9476,-1.9328,-1.9191,-1.9081,-1.8912,-1.8771,-1.8569,-1.8373,-1.8065,-1.7715,-1.7304,-1.6935,-1.6607,-1.6258,-1.5796,-1.5374,-1.48,-1.409,-1.3421,-1.2941,-2.3119,-2.3119,-2.3168,-2.3199,-2.3289,-2.3289,-2.3289,-2.3295,-2.3407,-2.3494,-2.3471,-2.3471,-2.3494,-2.3517,-2.3499,-2.3517,-2.3539,-2.3522,-2.3522,-2.3494,-2.3539,-2.3522,-2.3522,-2.3517,-2.3539,-2.3517,-2.3517,-2.3562,-2.3517,-2.3539,-2.3539,-2.3494,-2.3562,-2.3567,-2.3549,-2.3611,-2.362,-2.3606,-2.3707,-2.3804,-2.3807,-2.3852,-2.3896,-2.3896,-2.3955,-2.3994,-2.4034,-2.389,-2.3728,-2.3272,-2.2941,-2.27,-2.2303,-2.1912,-2.198,-2.1887,-2.136,-2.1255,-2.1116,-2.085,-2.0565,-2.0437,-2.026,-2.0442,-2.0584,-2.031,-2.0277,-2.0287,-2.0334,-2.036,-2.0396,-2.0443,-2.0473,-2.048,-2.0483,-2.05,-2.0516,-2.0573,-2.0583,-2.0586,-2.0585,-2.0542,-2.0536,-2.0525,-2.0492,-2.0497,-2.0483,-2.0441,-2.0395,-2.027,-2.0177,-2.0049,-1.9982,-1.9899,-1.9821,-1.9707,-1.9625,-1.9504,-1.9405,-1.9271,-1.9093,-1.8893,-1.868,-1.8358,-1.8031,-1.7743,-1.7406,-1.7085,-1.6747,-1.6313,-1.5881,-1.5448,-1.4817,-1.409,-1.3454,-2.3119,-2.3119,-2.3119,-2.3144,-2.3168,-2.3193,-2.3217,-2.3241,-2.3313,-2.3336,-2.3336,-2.3354,-2.3401,-2.3424,-2.3407,-2.3448,-2.3494,-2.3471,-2.3494,-2.3494,-2.3494,-2.3471,-2.3494,-2.3471,-2.3494,-2.3494,-2.3494,-2.3494,-2.3494,-2.3494,-2.3494,-2.3494,-2.3539,-2.3522,-2.3504,-2.3585,-2.3549,-2.3513,-2.3594,-2.3696,-2.3721,-2.3743,-2.3768,-2.3807,-2.3868,-2.3891,-2.3915,-2.3919,-2.3886,-2.3744,-2.3802,-2.3456,-2.2881,-2.237,-2.2099,-2.2029,-2.2032,-2.1971,-2.1875,-2.1689,-2.1525,-2.1649,-2.1639,-2.1407,-2.1098,-2.0545,-2.0252,-2.0285,-2.0277,-2.0306,-2.034,-2.0392,-2.0441,-2.0454,-2.0467,-2.0484,-2.0503,-2.0531,-2.057,-2.0579,-2.0584,-2.0586,-2.0566,-2.0563,-2.0537,-2.0531,-2.0504,-2.0492,-2.0474,-2.0413,-2.0341,-2.0244,-2.0192,-2.0115,-2.0031,-1.9952,-1.9847,-1.9774,-1.9657,-1.9553,-1.9397,-1.9172,-1.8911,-1.8663,-1.838,-1.8118,-1.7859,-1.7602,-1.7248,-1.6799,-1.6432,-1.6034,-1.555,-1.4864,-1.4154,-2.3119,-2.3119,-2.3119,-2.3119,-2.3119,-2.3144,-2.3168,-2.3168,-2.3193,-2.3199,-2.3223,-2.3265,-2.3313,-2.3336,-2.336,-2.336,-2.3407,-2.3424,-2.3383,-2.3407,-2.3407,-2.3383,-2.3424,-2.3424,-2.3448,-2.3448,-2.3494,-2.3494,-2.3494,-2.3494,-2.3494,-2.3494,-2.3494,-2.3494,-2.3494,-2.3494,-2.3494,-2.3517,-2.3539,-2.3585,-2.3611,-2.3656,-2.37,-2.3761,-2.3765,-2.3768,-2.3807,-2.3831,-2.3855,-2.3917,-2.3961,-2.3968,-2.3566,-2.3307,-2.3118,-2.3017,-2.2896,-2.2641,-2.2626,-2.2515,-2.2434,-2.2469,-2.2439,-2.1964,-2.1905,-2.1384,-2.0766,-2.0709,-2.0288,-2.025,-2.0299,-2.0346,-2.0392,-2.041,-2.0429,-2.0458,-2.048,-2.0529,-2.0531,-2.0543,-2.0552,-2.0537,-2.0543,-2.0566,-2.0566,-2.0566,-2.0544,-2.0537,-2.0529,-2.0521,-2.0471,-2.0413,-2.0338,-2.0275,-2.0188,-2.0112,-2.0031,-1.9983,-1.992,-1.9755,-1.9587,-1.9382,-1.9157,-1.896,-1.8771,-1.8551,-1.8298,-1.8048,-1.771,-1.7272,-1.6952,-1.6575,-1.6102,-1.5593,-1.4986,-2.3119,-2.3119,-2.3119,-2.3119,-2.3119,-2.3119,-2.3102,-2.3102,-2.3119,-2.3119,-2.3119,-2.3217,-2.3265,-2.3289,-2.3271,-2.3271,-2.3295,-2.3336,-2.3295,-2.3295,-2.3295,-2.3336,-2.3336,-2.3295,-2.336,-2.3383,-2.343,-2.3448,-2.3448,-2.3448,-2.343,-2.3453,-2.3453,-2.3471,-2.3471,-2.3471,-2.3448,-2.3448,-2.3471,-2.3471,-2.3522,-2.3571,-2.3656,-2.3678,-2.366,-2.3682,-2.3721,-2.3743,-2.3789,-2.3831,-2.3915,-2.3943,-2.4003,-2.3878,-2.4008,-2.386,-2.356,-2.3423,-2.334,-2.3045,-2.2843,-2.2708,-2.2631,-2.2627,-2.2609,-2.2242,-2.1635,-2.1147,-2.0737,-2.0444,-2.0488,-2.0335,-2.0364,-2.0379,-2.0385,-2.0404,-2.0454,-2.05,-2.0499,-2.05,-2.0509,-2.0497,-2.0527,-2.0557,-2.058,-2.0582,-2.0604,-2.0605,-2.0584,-2.0562,-2.0515,-2.0497,-2.0467,-2.0395,-2.0332,-2.0257,-2.0195,-2.018,-2.0105,-1.9943,-1.979,-1.9626,-1.9481,-1.9343,-1.9141,-1.8927,-1.8717,-1.8475,-1.8115,-1.776,-1.7446,-1.7101,-1.6654,-1.6157,-1.5737,-2.3119,-2.3119,-2.3119,-2.3119,-2.3102,-2.3119,-2.3119,-2.3119,-2.3095,-2.3119,-2.3119,-2.3119,-2.3168,-2.3217,-2.3217,-2.3241,-2.3265,-2.3289,-2.3271,-2.3271,-2.3265,-2.3289,-2.3271,-2.3247,-2.3289,-2.3336,-2.3336,-2.3354,-2.3614,-2.3502,-2.3407,-2.3496,-2.3407,-2.3389,-2.3372,-2.3354,-2.336,-2.336,-2.336,-2.336,-2.3383,-2.3453,-2.3562,-2.3585,-2.3589,-2.3634,-2.3696,-2.37,-2.3721,-2.3765,-2.381,-2.3876,-2.3976,-2.4074,-2.4133,-2.4209,-2.3916,-2.3952,-2.3799,-2.3754,-2.3617,-2.3771,-2.3757,-2.3667,-2.3573,-2.3313,-2.2754,-2.2235,-2.1782,-2.134,-2.1168,-2.0578,-2.0427,-2.0369,-2.0353,-2.0379,-2.0418,-2.0439,-2.0443,-2.0461,-2.0496,-2.049,-2.0503,-2.0536,-2.0523,-2.0549,-2.0573,-2.0581,-2.0583,-2.0585,-2.0566,-2.0545,-2.0536,-2.0514,-2.0453,-2.0391,-2.0336,-2.0314,-2.0275,-2.0129,-2.0012,-1.9909,-1.9786,-1.9645,-1.9485,-1.931,-1.9075,-1.8859,-1.857,-1.8238,-1.7967,-1.762,-1.715,-1.6732,-1.6305]},{"header":{"parameterUnit":"m.s-1","parameterCategory":1,"la1":31.0,"la2":29.5877,"lo1":-88.7671,"lo2":-86.6584,"dy":0.0162,"dx":0.0185,"nx":115,"ny":88,"refTime":"2023-05-06T00:00:00:Z","depth":0,"parameterNumber":3,"parameterNumberName":"V-component_of_WINDS"},"data":[0.0,0.0,0.0,0.0,0.0,0.0,0.0,0.0,0.0,0.0,0.0,0.0,0.0,0.0,0.0,0.0,0.0,0.0,0.0,0.0,0.0,0.0,0.0,0.0,0.0,0.0,0.0,0.0,0.0,0.0,0.0,0.0,0.0,0.0,0.0,0.0,0.0,0.0,0.0,0.0,0.0,0.0,0.0,0.0,0.0,0.0,0.0,0.0,0.0,0.0,0.0,0.0,0.0,0.0,0.0,0.0,0.0,0.0,0.0,0.0,0.0,0.0,0.0,0.0,0.0,0.0,0.0,0.0,0.0,0.0,0.0,0.0,0.0,0.0,0.0,0.0,0.0,0.0,0.0,0.0,0.0,0.0,0.0,0.0,0.0,0.0,0.0,0.0,0.0,0.0,0.0,0.0,0.0,0.0,0.0,0.0,0.0,0.0,0.0,0.0,0.0,0.0,0.0,0.0,0.0,0.0,0.0,0.0,0.0,0.0,0.0,0.0,0.0,0.0,0.0,0.0,0.0,0.0,0.0,0.0,0.0,0.0,0.0,0.0,0.0,0.0,0.0,0.0,0.0,0.0,0.0,0.0,0.0,0.0,0.0,0.0,0.0,0.0,0.0,0.0,0.0,0.0,0.0,0.0,0.0,0.0,0.0,0.0,0.0,0.0,0.0,0.0,0.0,0.0,0.0,0.0,0.0,0.0,0.0,0.0,0.0,0.0,0.0,0.0,0.0,0.0,0.0,0.0,0.0,0.0,0.0,0.0,0.0,0.0,0.0,0.0,0.0,0.0,0.0,0.0,0.0,0.0,0.0,0.0,0.0,0.0,0.0,0.0,0.0,0.0,0.0,0.0,0.0,0.0,0.0,0.0,0.0,0.0,0.0,0.0,0.0,0.0,0.0,0.0,0.0,0.0,0.0,0.0,0.0,0.0,0.0,0.0,0.0,0.0,0.0,0.0,0.0,0.0,0.0,0.0,0.0,0.0,0.0,0.0,0.0,0.0,0.0,0.0,0.0,0.0,0.0,0.0,0.0,0.0,0.0,0.0,0.0,0.0,0.0,0.0,0.0,0.0,0.0,0.0,0.0,0.0,0.0,0.0,0.0,0.0,0.0,0.0,0.0,0.0,0.0,0.0,0.0,0.0,0.0,0.0,0.0,0.0,0.0,0.0,0.0,0.0,0.0,0.0,0.0,0.0,0.0,0.0,0.0,0.0,0.0,0.0,0.0,0.0,0.0,0.0,0.0,0.0,0.0,0.0,0.0,0.0,0.0,0.0,0.0,0.0,0.0,0.0,0.0,0.0,0.0,0.0,0.0,0.0,0.0,0.0,0.0,0.0,0.0,0.0,0.0,0.0,0.0,0.0,0.0,0.0,0.0,0.0,0.0,0.0,0.0,0.0,0.0,0.0,0.0,0.0,0.0,0.0,0.0,0.0,0.0,0.0,0.0,0.0,0.0,0.0,0.0,0.0,0.0,0.0,0.0,0.0,0.0,0.0,0.0,0.0,0.0,0.0,0.0,0.0,0.0,0.0,0.0,0.0,0.0,0.0,0.0,0.0,0.0,0.0,0.0,0.0,0.0,0.0,0.0,0.0,0.0,0.0,0.0,0.0,0.0,0.0,0.0,0.0,0.0,0.0,0.0,0.0,0.0,0.0,0.0,0.0,0.0,0.0,0.0,0.0,0.0,0.0,0.0,0.0,0.0,0.0,0.0,0.0,0.0,0.0,0.0,0.0,0.0,0.0,0.0,0.0,0.0,0.0,0.0,0.0,0.0,0.0,0.0,0.0,0.0,0.0,0.0,0.0,0.0,0.0,0.0,0.0,0.0,0.0,0.0,0.0,0.0,0.0,0.0,0.0,0.0,0.0,0.0,0.0,0.0,0.0,0.0,0.0,0.0,0.0,0.0,0.0,0.0,0.0,0.0,0.0,0.0,0.0,0.0,0.0,0.0,0.0,0.0,0.0,0.0,0.0,0.0,0.0,0.0,0.0,0.0,0.0,0.0,0.0,0.0,0.0,0.0,0.0,0.0,0.0,0.0,0.0,0.0,0.0,0.0,0.0,0.0,0.0,0.0,0.0,0.0,0.0,0.0,0.0,0.0,0.0,0.0,0.0,0.0,0.0,0.0,0.0,0.0,0.0,0.0,0.0,0.0,0.0,0.0,0.0,0.0,0.0,0.0,0.0,0.0,0.0,0.0,0.0,0.0,0.0,0.0,0.0,0.0,0.0,0.0,0.0,0.0,0.0,0.0,0.0,0.0,0.0,0.0,0.0,0.0,0.0,0.0,0.0,0.0,0.0,0.0,0.0,0.0,0.0,0.0,0.0,0.0,0.0,0.0,0.0,0.0,0.0,0.0,0.0,0.0,0.0,0.0,0.0,0.0,0.0,0.0,0.0,0.0,0.0,0.0,0.0,0.0,0.0,0.0,0.0,0.0,0.0,0.0,0.0,0.0,0.0,0.0,0.0,0.0,0.0,0.0,0.0,0.0,0.0,0.0,0.0,0.0,0.0,0.0,0.0,0.0,0.0,0.0,0.0,0.0,0.0,0.0,0.0,0.0,0.0,0.0,0.0,0.0,0.0,0.0,0.0,0.0,0.0,0.0,0.0,0.0,0.0,0.0,0.0,0.0,0.0,0.0,0.0,0.0,0.0,0.0,0.0,0.0,0.0,0.0,0.0,0.0,0.0,0.0,0.0,0.0,0.0,0.0,0.0,0.0,0.0,0.0,0.0,0.0,0.0,0.0,0.0,0.0,0.0,0.0,0.0,0.0,0.0,0.0,0.0,0.0,0.0,0.0,0.0,0.0,0.0,0.0,0.0,0.0,0.0,0.0,0.0,0.0,0.0,0.0,0.0,0.0,0.0,0.0,0.0,0.0,0.0,0.0,0.0,0.0,0.0,0.0,0.0,0.0,0.0,0.0,0.0,0.0,0.0,0.0,0.0,0.0,0.0,0.0,0.0,0.0,0.0,0.0,0.0,0.0,0.0,0.0,0.0,0.0,0.0,0.0,0.0,0.0,0.0,0.0,0.0,0.0,0.0,0.0,0.0,0.0,0.0,0.0,0.0,0.0,0.0,0.0,0.0,0.0,0.0,0.0,0.0,0.0,0.0,0.0,0.0,0.0,0.0,0.0,0.0,0.0,0.0,0.0,0.0,0.0,0.0,0.0,0.0,0.0,0.0,0.0,0.0,0.0,0.0,0.0,0.0,0.0,0.0,0.0,0.0,0.0,0.0,0.0,0.0,0.0,0.0,0.0,0.0,0.0,0.0,0.0,0.0,0.0,0.0,0.0,0.0,0.0,0.0,0.0,0.0,0.0,0.0,0.0,0.0,0.0,0.0,0.0,0.0,0.0,0.0,0.0,0.0,0.0,0.0,0.0,0.0,0.0,0.0,0.0,0.0,0.0,0.0,0.0,0.0,0.0,0.0,0.0,0.0,0.0,0.0,0.0,0.0,0.0,0.0,0.0,0.0,0.0,0.0,0.0,0.0,0.0,0.0,0.0,0.0,0.0,0.0,0.0,0.0,0.0,0.0,0.0,0.0,0.0,0.0,0.0,0.0,0.0,0.0,0.0,0.0,0.0,0.0,0.0,0.0,0.0,0.0,0.0,0.0,0.0,0.0,0.0,0.0,0.0,0.0,0.0,0.0,0.0,0.0,0.0,0.0,0.0,0.0,0.0,0.0,0.0,0.0,0.0,0.0,0.0,0.0,0.0,0.0,0.0,0.0,0.0,0.0,0.0,0.0,0.0,0.0,0.0,0.0,0.0,0.0,0.0,0.0,0.0,0.0,0.0,0.0,0.0,0.0,0.0,0.0,0.0,0.0,0.0,0.0,0.0,0.0,0.0,0.0,0.0,0.0,0.0,0.0,0.0,0.0,0.0,0.0,0.0,0.0,0.0,0.0,0.0,0.0,0.0,0.0,0.0,0.0,0.0,0.0,0.0,0.0,0.0,0.0,0.0,0.0,0.0,0.0,0.0,0.0,0.0,0.0,0.0,0.0,0.0,0.0,0.0,0.0,0.0,0.0,0.0,0.0,0.0,0.0,0.0,0.0,0.0,0.0,0.0,0.0,0.0,0.0,0.0,0.0,0.0,0.0,0.0,0.0,0.0,0.0,0.0,0.0,0.0,0.0,0.0,0.0,0.0,0.0,0.0,0.0,0.0,0.0,0.0,0.0,0.0,0.0,0.0,0.0,0.0,0.0,0.0,0.0,0.0,0.0,0.0,0.0,0.0,0.0,0.0,0.0,0.0,0.0,0.0,0.0,-1.8931,0.0,0.0,0.0,0.0,0.0,0.0,0.0,0.0,0.0,0.0,0.0,0.0,0.0,0.0,0.0,0.0,0.0,0.0,0.0,0.0,0.0,0.0,0.0,0.0,0.0,0.0,0.0,0.0,0.0,0.0,0.0,0.0,0.0,0.0,0.0,0.0,0.0,0.0,0.0,0.0,0.0,0.0,0.0,0.0,0.0,0.0,0.0,0.0,0.0,0.0,0.0,0.0,0.0,0.0,0.0,0.0,0.0,0.0,0.0,0.0,0.0,0.0,0.0,0.0,0.0,0.0,0.0,0.0,0.0,0.0,0.0,0.0,0.0,0.0,0.0,0.0,0.0,0.0,0.0,0.0,0.0,0.0,0.0,0.0,0.0,0.0,0.0,0.0,0.0,0.0,0.0,0.0,0.0,0.0,0.0,0.0,0.0,0.0,0.0,0.0,0.0,0.0,0.0,0.0,0.0,0.0,0.0,0.0,0.0,0.0,-2.038,-2.0399,-2.0424,-2.0263,-1.9787,0.0,0.0,0.0,0.0,0.0,0.0,0.0,0.0,0.0,0.0,0.0,0.0,0.0,0.0,0.0,0.0,0.0,0.0,0.0,0.0,0.0,0.0,0.0,0.0,0.0,0.0,0.0,0.0,0.0,0.0,0.0,0.0,0.0,0.0,0.0,0.0,0.0,0.0,0.0,0.0,0.0,0.0,0.0,0.0,0.0,0.0,0.0,0.0,0.0,0.0,0.0,0.0,0.0,0.0,0.0,0.0,0.0,0.0,0.0,0.0,0.0,0.0,0.0,0.0,0.0,0.0,0.0,0.0,0.0,0.0,0.0,0.0,0.0,0.0,0.0,0.0,0.0,0.0,0.0,0.0,0.0,0.0,0.0,0.0,0.0,0.0,0.0,0.0,0.0,0.0,0.0,0.0,0.0,0.0,0.0,0.0,0.0,0.0,0.0,0.0,0.0,0.0,0.0,0.0,0.0,0.0,0.0,0.0,0.0,0.0,0.0,0.0,-2.0371,-2.0286,-1.9822,0.0,0.0,0.0,0.0,0.0,0.0,0.0,0.0,0.0,0.0,0.0,0.0,0.0,0.0,0.0,0.0,0.0,0.0,0.0,0.0,0.0,0.0,0.0,0.0,0.0,0.0,0.0,0.0,0.0,0.0,0.0,0.0,0.0,0.0,0.0,0.0,0.0,0.0,0.0,0.0,0.0,0.0,0.0,0.0,0.0,0.0,0.0,0.0,0.0,0.0,0.0,0.0,0.0,0.0,0.0,0.0,0.0,0.0,0.0,0.0,0.0,0.0,0.0,0.0,0.0,0.0,0.0,0.0,0.0,0.0,0.0,0.0,0.0,0.0,0.0,0.0,0.0,0.0,0.0,0.0,0.0,0.0,0.0,0.0,0.0,0.0,0.0,0.0,0.0,0.0,0.0,0.0,0.0,0.0,0.0,0.0,0.0,0.0,0.0,0.0,0.0,0.0,0.0,0.0,0.0,0.0,0.0,0.0,0.0,0.0,-1.9309,-1.9317,-2.0087,0.0,-1.8266,0.0,0.0,0.0,0.0,0.0,0.0,0.0,0.0,0.0,0.0,0.0,0.0,0.0,0.0,0.0,0.0,0.0,0.0,0.0,0.0,0.0,0.0,0.0,0.0,0.0,0.0,0.0,0.0,0.0,0.0,0.0,0.0,0.0,0.0,0.0,0.0,0.0,0.0,0.0,0.0,0.0,0.0,0.0,0.0,0.0,0.0,0.0,0.0,0.0,0.0,0.0,0.0,0.0,0.0,0.0,0.0,0.0,0.0,0.0,0.0,0.0,0.0,0.0,0.0,0.0,0.0,0.0,0.0,0.0,0.0,0.0,0.0,0.0,0.0,0.0,0.0,0.0,0.0,0.0,0.0,0.0,0.0,0.0,0.0,0.0,0.0,0.0,0.0,0.0,0.0,0.0,0.0,0.0,0.0,0.0,0.0,0.0,0.0,0.0,0.0,0.0,0.0,0.0,0.0,0.0,0.0,0.0,0.0,0.0,0.0,-1.9433,-1.9961,-2.0311,-1.9933,0.0,0.0,0.0,0.0,0.0,0.0,0.0,0.0,0.0,0.0,0.0,0.0,0.0,0.0,0.0,0.0,0.0,0.0,0.0,0.0,0.0,0.0,0.0,0.0,0.0,0.0,0.0,0.0,0.0,0.0,0.0,0.0,0.0,0.0,0.0,0.0,0.0,0.0,0.0,0.0,0.0,0.0,0.0,0.0,0.0,0.0,0.0,0.0,0.0,0.0,0.0,0.0,0.0,0.0,0.0,0.0,0.0,0.0,0.0,0.0,0.0,0.0,0.0,0.0,0.0,0.0,0.0,0.0,0.0,0.0,0.0,0.0,0.0,0.0,0.0,0.0,0.0,0.0,0.0,0.0,0.0,0.0,0.0,0.0,0.0,0.0,0.0,0.0,0.0,0.0,0.0,0.0,0.0,0.0,0.0,0.0,0.0,0.0,0.0,0.0,0.0,0.0,0.0,0.0,0.0,0.0,0.0,0.0,0.0,0.0,-1.8379,-1.9351,-2.0389,-2.0476,-2.0074,-1.9219,0.0,0.0,0.0,0.0,0.0,0.0,0.0,0.0,0.0,0.0,0.0,0.0,0.0,0.0,0.0,0.0,0.0,0.0,0.0,0.0,0.0,0.0,0.0,0.0,0.0,0.0,0.0,0.0,0.0,0.0,0.0,0.0,0.0,0.0,0.0,0.0,0.0,0.0,0.0,0.0,0.0,0.0,0.0,0.0,0.0,0.0,0.0,0.0,0.0,0.0,0.0,0.0,0.0,0.0,0.0,0.0,0.0,0.0,0.0,0.0,0.0,0.0,0.0,0.0,0.0,0.0,0.0,0.0,0.0,0.0,0.0,0.0,0.0,0.0,0.0,0.0,0.0,0.0,0.0,0.0,0.0,0.0,0.0,0.0,0.0,0.0,0.0,0.0,0.0,0.0,0.0,0.0,0.0,0.0,0.0,0.0,0.0,0.0,0.0,0.0,0.0,0.0,0.0,0.0,0.0,0.0,0.0,0.0,-1.6661,-1.749,-1.8683,-2.0346,-2.0414,-2.0029,0.0,0.0,0.0,0.0,0.0,0.0,0.0,0.0,0.0,0.0,0.0,0.0,0.0,0.0,0.0,0.0,0.0,0.0,0.0,0.0,0.0,0.0,0.0,0.0,0.0,0.0,0.0,0.0,0.0,0.0,0.0,0.0,0.0,0.0,0.0,0.0,0.0,0.0,0.0,0.0,0.0,0.0,0.0,0.0,0.0,0.0,0.0,0.0,0.0,0.0,0.0,0.0,0.0,0.0,0.0,0.0,0.0,0.0,0.0,0.0,0.0,0.0,0.0,0.0,0.0,0.0,0.0,0.0,0.0,0.0,0.0,0.0,0.0,0.0,0.0,0.0,0.0,0.0,0.0,0.0,0.0,0.0,0.0,0.0,0.0,0.0,0.0,0.0,0.0,0.0,0.0,0.0,0.0,0.0,0.0,0.0,0.0,0.0,0.0,0.0,0.0,0.0,0.0,0.0,0.0,0.0,0.0,0.0,0.0,-1.7272,-1.8628,-1.9636,-2.025,-2.0313,-2.0221,0.0,0.0,0.0,0.0,0.0,0.0,0.0,0.0,0.0,0.0,0.0,0.0,0.0,0.0,0.0,0.0,0.0,0.0,0.0,0.0,0.0,0.0,0.0,0.0,0.0,0.0,0.0,0.0,0.0,0.0,0.0,0.0,0.0,0.0,0.0,0.0,0.0,0.0,0.0,0.0,0.0,0.0,0.0,0.0,0.0,0.0,0.0,0.0,0.0,0.0,0.0,0.0,0.0,0.0,0.0,0.0,0.0,0.0,0.0,0.0,0.0,0.0,0.0,0.0,0.0,0.0,0.0,0.0,0.0,0.0,0.0,0.0,0.0,0.0,0.0,0.0,0.0,0.0,0.0,0.0,0.0,0.0,0.0,0.0,0.0,0.0,0.0,0.0,0.0,0.0,0.0,0.0,0.0,0.0,0.0,0.0,0.0,0.0,0.0,0.0,0.0,0.0,0.0,0.0,0.0,0.0,0.0,0.0,0.0,-1.7581,0.0,-1.9856,0.0,-2.0208,-2.027,0.0,0.0,0.0,0.0,0.0,0.0,0.0,0.0,0.0,0.0,0.0,0.0,0.0,0.0,0.0,0.0,0.0,0.0,0.0,0.0,0.0,0.0,0.0,0.0,0.0,0.0,0.0,0.0,0.0,0.0,0.0,0.0,0.0,0.0,0.0,0.0,0.0,0.0,0.0,0.0,0.0,0.0,0.0,0.0,0.0,0.0,0.0,0.0,0.0,0.0,0.0,0.0,0.0,0.0,0.0,0.0,0.0,0.0,0.0,0.0,0.0,0.0,0.0,0.0,0.0,0.0,0.0,0.0,0.0,0.0,0.0,0.0,0.0,0.0,0.0,0.0,0.0,0.0,0.0,0.0,0.0,0.0,0.0,0.0,0.0,0.0,0.0,0.0,0.0,0.0,0.0,0.0,0.0,0.0,0.0,0.0,0.0,0.0,0.0,0.0,0.0,0.0,0.0,0.0,0.0,0.0,0.0,0.0,-1.5857,-1.7331,-1.826,-1.9133,-1.9941,-2.0041,-2.0159,0.0,0.0,0.0,0.0,0.0,0.0,0.0,0.0,0.0,0.0,0.0,0.0,0.0,0.0,0.0,0.0,0.0,0.0,0.0,0.0,0.0,0.0,0.0,0.0,0.0,0.0,0.0,0.0,0.0,0.0,0.0,0.0,0.0,0.0,0.0,0.0,0.0,0.0,0.0,0.0,0.0,0.0,0.0,0.0,0.0,0.0,0.0,0.0,0.0,0.0,0.0,0.0,0.0,0.0,0.0,0.0,0.0,0.0,0.0,0.0,0.0,0.0,0.0,0.0,0.0,0.0,0.0,0.0,0.0,0.0,0.0,0.0,0.0,0.0,0.0,0.0,0.0,0.0,0.0,0.0,0.0,0.0,0.0,0.0,0.0,0.0,0.0,0.0,0.0,0.0,0.0,0.0,0.0,0.0,0.0,0.0,0.0,0.0,0.0,0.0,0.0,0.0,0.0,0.0,0.0,0.0,0.0,0.0,0.0,-1.6436,-1.782,-1.8682,-1.8979,-1.9614,-2.0031,0.0,0.0,0.0,0.0,0.0,0.0,0.0,0.0,0.0,0.0,0.0,0.0,0.0,0.0,0.0,0.0,0.0,0.0,0.0,0.0,0.0,0.0,0.0,0.0,0.0,0.0,0.0,0.0,0.0,0.0,0.0,0.0,0.0,0.0,0.0,0.0,0.0,0.0,0.0,0.0,0.0,0.0,0.0,0.0,0.0,0.0,0.0,0.0,0.0,0.0,0.0,0.0,0.0,0.0,0.0,0.0,0.0,0.0,0.0,0.0,0.0,0.0,0.0,0.0,0.0,0.0,0.0,0.0,0.0,0.0,0.0,0.0,0.0,0.0,0.0,0.0,0.0,0.0,0.0,0.0,0.0,0.0,0.0,0.0,0.0,0.0,0.0,0.0,0.0,0.0,0.0,0.0,0.0,0.0,0.0,0.0,0.0,0.0,0.0,0.0,0.0,0.0,0.0,0.0,0.0,0.0,0.0,0.0,0.0,-1.547,-1.6806,-1.7835,-1.8451,-1.9058,-1.9617,-2.0077,0.0,0.0,0.0,0.0,0.0,0.0,0.0,0.0,0.0,0.0,0.0,0.0,0.0,0.0,0.0,0.0,0.0,0.0,0.0,0.0,0.0,0.0,0.0,0.0,0.0,0.0,0.0,0.0,0.0,0.0,0.0,0.0,0.0,0.0,0.0,0.0,0.0,0.0,0.0,0.0,0.0,0.0,0.0,0.0,0.0,0.0,0.0,0.0,0.0,0.0,0.0,0.0,0.0,0.0,0.0,0.0,0.0,0.0,0.0,0.0,0.0,0.0,0.0,0.0,0.0,0.0,0.0,0.0,0.0,0.0,0.0,0.0,0.0,0.0,0.0,0.0,0.0,0.0,0.0,0.0,0.0,0.0,0.0,0.0,0.0,0.0,0.0,0.0,0.0,0.0,0.0,0.0,0.0,0.0,0.0,0.0,0.0,0.0,0.0,0.0,0.0,0.0,0.0,0.0,0.0,0.0,0.0,0.0,-1.4404,-1.5328,-1.6588,-1.8155,-1.8359,-1.8881,0.0,0.0,0.0,0.0,0.0,0.0,0.0,0.0,0.0,0.0,0.0,0.0,0.0,0.0,0.0,0.0,0.0,0.0,0.0,0.0,0.0,0.0,0.0,0.0,0.0,0.0,0.0,0.0,0.0,0.0,0.0,0.0,0.0,0.0,0.0,0.0,0.0,0.0,0.0,0.0,0.0,0.0,0.0,0.0,0.0,0.0,0.0,0.0,0.0,0.0,0.0,0.0,0.0,0.0,0.0,0.0,0.0,0.0,0.0,0.0,0.0,0.0,0.0,0.0,0.0,0.0,0.0,0.0,0.0,0.0,0.0,0.0,0.0,0.0,0.0,0.0,0.0,0.0,0.0,0.0,0.0,0.0,0.0,0.0,0.0,0.0,0.0,0.0,0.0,0.0,0.0,0.0,0.0,0.0,0.0,0.0,0.0,0.0,0.0,0.0,0.0,0.0,0.0,0.0,0.0,0.0,0.0,0.0,0.0,-1.4368,-1.4636,-1.5325,-1.6454,-1.7156,-1.7986,0.0,0.0,0.0,0.0,0.0,0.0,0.0,0.0,0.0,0.0,0.0,0.0,0.0,0.0,0.0,0.0,0.0,0.0,0.0,0.0,0.0,0.0,0.0,0.0,0.0,0.0,0.0,0.0,0.0,0.0,0.0,0.0,0.0,0.0,0.0,0.0,0.0,0.0,0.0,0.0,0.0,0.0,0.0,0.0,0.0,0.0,0.0,0.0,0.0,0.0,0.0,0.0,0.0,0.0,0.0,0.0,0.0,0.0,0.0,0.0,0.0,0.0,0.0,0.0,0.0,0.0,0.0,0.0,0.0,0.0,0.0,0.0,0.0,0.0,0.0,0.0,0.0,0.0,0.0,0.0,0.0,0.0,0.0,0.0,0.0,0.0,0.0,0.0,0.0,0.0,0.0,0.0,0.0,0.0,0.0,0.0,0.0,0.0,0.0,0.0,0.0,0.0,0.0,0.0,0.0,0.0,0.0,0.0,-1.5148,-1.4237,-1.4281,-1.4587,-1.516,-1.6102,-1.7071,0.0,0.0,0.0,0.0,0.0,0.0,0.0,0.0,0.0,0.0,0.0,0.0,0.0,0.0,0.0,0.0,0.0,0.0,0.0,0.0,0.0,0.0,0.0,0.0,0.0,0.0,0.0,0.0,0.0,0.0,0.0,0.0,0.0,0.0,0.0,0.0,0.0,0.0,0.0,0.0,0.0,0.0,0.0,0.0,0.0,0.0,0.0,0.0,0.0,0.0,0.0,0.0,0.0,0.0,0.0,0.0,0.0,0.0,0.0,0.0,0.0,0.0,0.0,0.0,0.0,0.0,0.0,0.0,0.0,0.0,0.0,0.0,0.0,0.0,0.0,0.0,0.0,0.0,0.0,0.0,0.0,0.0,0.0,0.0,0.0,0.0,0.0,0.0,0.0,0.0,0.0,0.0,0.0,0.0,0.0,0.0,0.0,0.0,0.0,0.0,0.0,0.0,0.0,0.0,0.0,0.0,0.0,0.0,-1.4894,-1.4105,-1.4154,-1.4219,-1.4312,-1.5197,-1.613,0.0,0.0,0.0,0.0,0.0,0.0,0.0,0.0,0.0,0.0,0.0,0.0,0.0,0.0,0.0,0.0,0.0,0.0,0.0,0.0,0.0,0.0,0.0,0.0,0.0,0.0,0.0,0.0,0.0,0.0,0.0,0.0,0.0,0.0,0.0,0.0,0.0,0.0,0.0,0.0,0.0,0.0,0.0,0.0,0.0,0.0,0.0,0.0,0.0,0.0,0.0,0.0,0.0,0.0,0.0,0.0,0.0,0.0,0.0,0.0,0.0,0.0,0.0,0.0,0.0,0.0,0.0,0.0,0.0,0.0,0.0,0.0,0.0,0.0,0.0,0.0,0.0,0.0,0.0,0.0,0.0,0.0,0.0,0.0,0.0,0.0,0.0,0.0,0.0,0.0,0.0,0.0,0.0,0.0,0.0,0.0,0.0,0.0,0.0,0.0,0.0,0.0,0.0,0.0,0.0,0.0,0.0,0.0,-1.4211,-1.4019,-1.4078,-1.4195,-1.4304,-1.4593,-1.5235,0.0,0.0,0.0,0.0,0.0,0.0,0.0,0.0,0.0,0.0,0.0,0.0,0.0,0.0,0.0,0.0,0.0,0.0,0.0,0.0,0.0,0.0,0.0,0.0,0.0,0.0,0.0,0.0,0.0,0.0,0.0,0.0,0.0,0.0,0.0,0.0,0.0,0.0,0.0,0.0,0.0,0.0,0.0,0.0,0.0,0.0,0.0,0.0,-1.9844,0.0,0.0,0.0,0.0,0.0,0.0,0.0,0.0,0.0,0.0,0.0,0.0,0.0,0.0,0.0,0.0,0.0,0.0,0.0,0.0,0.0,0.0,0.0,0.0,0.0,0.0,0.0,0.0,0.0,0.0,0.0,0.0,0.0,0.0,0.0,0.0,0.0,0.0,0.0,0.0,0.0,0.0,0.0,0.0,0.0,0.0,0.0,0.0,0.0,0.0,0.0,0.0,0.0,0.0,0.0,0.0,0.0,0.0,0.0,-1.3949,-1.3949,-1.4023,-1.4109,-1.4203,-1.4362,-1.4701,0.0,0.0,0.0,0.0,0.0,0.0,0.0,0.0,0.0,0.0,0.0,0.0,0.0,0.0,0.0,0.0,0.0,0.0,0.0,0.0,0.0,0.0,0.0,0.0,0.0,0.0,0.0,0.0,0.0,0.0,0.0,0.0,0.0,0.0,0.0,0.0,0.0,0.0,0.0,0.0,0.0,0.0,0.0,0.0,0.0,0.0,0.0,0.0,0.0,0.0,0.0,0.0,0.0,0.0,0.0,0.0,0.0,0.0,0.0,0.0,0.0,0.0,0.0,0.0,0.0,0.0,0.0,0.0,0.0,0.0,0.0,0.0,0.0,0.0,0.0,0.0,0.0,0.0,0.0,0.0,0.0,0.0,0.0,0.0,0.0,0.0,0.0,0.0,0.0,0.0,0.0,0.0,0.0,0.0,0.0,0.0,0.0,0.0,0.0,0.0,0.0,0.0,0.0,0.0,0.0,0.0,0.0,-1.4264,-1.3891,-1.3888,-1.3963,-1.4037,-1.4105,-1.4273,-1.4435,-1.4589,0.0,0.0,0.0,0.0,0.0,0.0,0.0,0.0,0.0,0.0,0.0,0.0,0.0,0.0,0.0,0.0,0.0,0.0,0.0,0.0,0.0,0.0,0.0,0.0,0.0,0.0,0.0,0.0,0.0,0.0,0.0,0.0,0.0,0.0,0.0,0.0,0.0,0.0,-1.7334,-1.8831,0.0,0.0,0.0,0.0,0.0,0.0,0.0,0.0,-1.9633,0.0,0.0,0.0,0.0,0.0,0.0,0.0,0.0,0.0,0.0,0.0,0.0,0.0,0.0,0.0,0.0,0.0,0.0,0.0,0.0,0.0,0.0,0.0,0.0,0.0,0.0,0.0,0.0,0.0,0.0,0.0,0.0,0.0,0.0,0.0,0.0,0.0,0.0,0.0,0.0,0.0,0.0,0.0,0.0,0.0,0.0,0.0,0.0,0.0,0.0,0.0,0.0,0.0,0.0,0.0,0.0,-1.4239,-1.3997,-1.3883,-1.3906,-1.3966,-1.4023,-1.4105,-1.4224,-1.4393,-1.4537,0.0,0.0,0.0,0.0,0.0,0.0,0.0,0.0,0.0,0.0,0.0,0.0,0.0,0.0,0.0,0.0,0.0,0.0,0.0,0.0,0.0,0.0,0.0,0.0,0.0,0.0,0.0,0.0,0.0,0.0,0.0,0.0,0.0,0.0,0.0,0.0,0.0,0.0,0.0,-1.9056,-1.9625,0.0,0.0,0.0,0.0,0.0,0.0,0.0,0.0,-1.9559,0.0,0.0,0.0,0.0,0.0,0.0,0.0,0.0,0.0,0.0,0.0,0.0,0.0,0.0,0.0,0.0,0.0,0.0,0.0,0.0,0.0,0.0,0.0,0.0,0.0,0.0,0.0,0.0,0.0,0.0,0.0,0.0,0.0,0.0,0.0,0.0,0.0,0.0,0.0,0.0,0.0,0.0,0.0,0.0,0.0,0.0,0.0,0.0,0.0,0.0,0.0,0.0,0.0,0.0,0.0,-1.4129,-1.397,-1.3959,-1.3952,-1.4012,-1.4082,-1.4141,-1.4275,-1.4404,0.0,0.0,0.0,0.0,0.0,0.0,0.0,0.0,0.0,0.0,0.0,0.0,0.0,0.0,0.0,0.0,0.0,0.0,0.0,0.0,0.0,0.0,0.0,0.0,0.0,0.0,0.0,0.0,0.0,0.0,0.0,0.0,0.0,0.0,0.0,0.0,0.0,0.0,0.0,0.0,-1.899,-1.9464,-1.942,0.0,0.0,0.0,0.0,0.0,0.0,-1.9387,-1.9416,0.0,0.0,0.0,0.0,0.0,0.0,0.0,0.0,0.0,0.0,0.0,0.0,0.0,0.0,0.0,0.0,0.0,0.0,0.0,0.0,0.0,0.0,0.0,0.0,0.0,0.0,0.0,0.0,0.0,0.0,0.0,0.0,0.0,0.0,0.0,0.0,0.0,0.0,0.0,0.0,0.0,0.0,0.0,0.0,0.0,0.0,0.0,0.0,0.0,0.0,0.0,0.0,0.0,0.0,0.0,-1.4181,-1.4058,-1.4026,-1.4009,-1.4082,-1.4145,-1.4237,-1.4375,-1.4515,0.0,0.0,0.0,0.0,0.0,0.0,0.0,0.0,0.0,0.0,0.0,0.0,0.0,0.0,0.0,0.0,0.0,0.0,0.0,0.0,0.0,0.0,0.0,0.0,0.0,0.0,0.0,0.0,0.0,0.0,0.0,0.0,0.0,0.0,0.0,0.0,0.0,0.0,0.0,0.0,0.0,-1.9329,-1.9285,-1.9202,0.0,0.0,0.0,0.0,-1.9243,-1.9259,0.0,0.0,0.0,0.0,0.0,0.0,0.0,0.0,0.0,0.0,0.0,0.0,0.0,0.0,0.0,0.0,0.0,0.0,0.0,0.0,0.0,0.0,0.0,0.0,0.0,0.0,0.0,0.0,0.0,0.0,0.0,0.0,0.0,0.0,0.0,0.0,0.0,0.0,0.0,0.0,0.0,0.0,0.0,0.0,0.0,0.0,0.0,0.0,0.0,0.0,0.0,0.0,0.0,0.0,0.0,0.0,-1.4275,-1.4141,-1.4109,-1.4096,-1.4149,-1.4245,-1.4375,-1.4492,-1.4627,0.0,0.0,0.0,0.0,0.0,0.0,0.0,0.0,0.0,0.0,0.0,0.0,0.0,0.0,0.0,0.0,0.0,0.0,0.0,0.0,0.0,0.0,0.0,0.0,0.0,0.0,0.0,0.0,0.0,0.0,0.0,0.0,0.0,0.0,0.0,0.0,0.0,0.0,0.0,0.0,0.0,-1.9202,-1.912,-1.9035,-1.8983,0.0,0.0,-1.9052,-1.9115,-1.9166,0.0,0.0,0.0,0.0,0.0,0.0,0.0,0.0,0.0,0.0,0.0,0.0,0.0,0.0,0.0,0.0,0.0,0.0,0.0,0.0,0.0,0.0,0.0,0.0,0.0,0.0,0.0,0.0,0.0,0.0,0.0,0.0,0.0,0.0,0.0,0.0,0.0,0.0,0.0,0.0,0.0,0.0,0.0,0.0,0.0,0.0,0.0,0.0,0.0,0.0,0.0,0.0,0.0,0.0,0.0,-1.5991,-1.4386,-1.4268,-1.4219,-1.4252,-1.4338,-1.4421,-1.4519,-1.4648,-1.4776,0.0,0.0,0.0,0.0,0.0,0.0,0.0,0.0,0.0,0.0,0.0,0.0,0.0,0.0,0.0,0.0,0.0,0.0,0.0,0.0,0.0,0.0,0.0,0.0,0.0,0.0,0.0,0.0,0.0,0.0,0.0,0.0,0.0,0.0,0.0,0.0,0.0,0.0,0.0,0.0,0.0,0.0,-1.8281,-1.8214,0.0,0.0,0.0,-1.8949,-1.9017,0.0,0.0,0.0,0.0,0.0,0.0,0.0,0.0,0.0,0.0,0.0,0.0,0.0,0.0,0.0,0.0,0.0,0.0,0.0,0.0,0.0,0.0,0.0,0.0,0.0,0.0,0.0,0.0,0.0,0.0,0.0,0.0,0.0,0.0,0.0,0.0,0.0,0.0,0.0,0.0,0.0,0.0,0.0,0.0,0.0,0.0,0.0,0.0,0.0,0.0,0.0,0.0,0.0,0.0,0.0,0.0,0.0,-1.4517,-1.4428,-1.4428,-1.4456,-1.4555,-1.461,-1.4681,-1.4811,0.0,0.0,0.0,0.0,0.0,0.0,0.0,0.0,0.0,0.0,0.0,0.0,0.0,0.0,0.0,0.0,0.0,0.0,0.0,0.0,0.0,0.0,0.0,0.0,0.0,0.0,0.0,-1.4985,0.0,0.0,0.0,0.0,0.0,0.0,0.0,0.0,0.0,0.0,0.0,0.0,0.0,0.0,-1.6917,-1.7337,-1.7537,-1.7841,0.0,0.0,-1.8932,-1.8984,-1.9051,-1.9117,0.0,0.0,0.0,0.0,0.0,0.0,0.0,0.0,0.0,0.0,0.0,0.0,0.0,0.0,0.0,0.0,0.0,0.0,0.0,0.0,0.0,0.0,0.0,0.0,0.0,0.0,0.0,0.0,0.0,0.0,0.0,0.0,0.0,0.0,0.0,0.0,0.0,0.0,0.0,0.0,0.0,0.0,0.0,0.0,0.0,0.0,0.0,0.0,0.0,0.0,0.0,0.0,0.0,0.0,0.0,-1.4753,-1.4668,-1.467,-1.469,-1.4747,-1.4846,-1.4965,-1.5035,-1.5107,0.0,0.0,0.0,0.0,0.0,0.0,0.0,0.0,0.0,0.0,0.0,0.0,0.0,0.0,0.0,0.0,0.0,0.0,0.0,0.0,0.0,0.0,0.0,0.0,0.0,0.0,0.0,0.0,0.0,0.0,0.0,0.0,0.0,0.0,0.0,0.0,0.0,0.0,0.0,0.0,0.0,-1.6673,-1.6586,-1.7213,-1.7714,0.0,0.0,-1.8931,-1.8984,-1.9053,-1.9104,-1.9104,0.0,0.0,0.0,0.0,0.0,0.0,0.0,0.0,0.0,0.0,0.0,0.0,0.0,0.0,0.0,0.0,0.0,0.0,0.0,0.0,0.0,0.0,0.0,0.0,0.0,0.0,0.0,0.0,0.0,0.0,0.0,0.0,0.0,0.0,0.0,0.0,0.0,0.0,0.0,0.0,0.0,0.0,0.0,0.0,0.0,0.0,0.0,0.0,0.0,0.0,0.0,0.0,0.0,-1.6527,-1.485,-1.4821,-1.4837,-1.4896,-1.4947,-1.5028,-1.512,-1.5201,-1.5231,0.0,0.0,0.0,0.0,0.0,0.0,0.0,0.0,0.0,0.0,0.0,0.0,0.0,0.0,0.0,0.0,0.0,0.0,0.0,0.0,0.0,0.0,0.0,0.0,0.0,0.0,0.0,0.0,-1.4919,-1.4859,-1.4859,0.0,0.0,0.0,0.0,0.0,0.0,0.0,0.0,0.0,0.0,-1.5415,-1.5778,-1.6486,0.0,0.0,-1.8496,-1.9035,-1.9067,-1.9084,-1.9101,-1.9101,-1.9102,0.0,0.0,0.0,0.0,0.0,0.0,0.0,0.0,0.0,0.0,0.0,0.0,0.0,0.0,0.0,0.0,0.0,0.0,0.0,0.0,0.0,0.0,0.0,0.0,0.0,0.0,0.0,0.0,0.0,0.0,0.0,0.0,0.0,0.0,0.0,0.0,0.0,0.0,0.0,0.0,0.0,0.0,0.0,0.0,0.0,0.0,0.0,0.0,0.0,0.0,0.0,0.0,-1.6743,-1.4999,-1.4999,-1.5042,-1.5094,-1.5138,-1.5173,-1.5231,-1.5271,-1.529,0.0,0.0,0.0,0.0,0.0,0.0,0.0,0.0,0.0,0.0,0.0,0.0,0.0,0.0,0.0,0.0,0.0,0.0,0.0,0.0,0.0,0.0,0.0,0.0,0.0,0.0,0.0,0.0,-1.496,-1.4902,-1.4931,0.0,0.0,0.0,0.0,0.0,0.0,0.0,0.0,0.0,0.0,-1.4672,-1.5356,-1.6139,-1.6953,-1.7747,-1.8594,-1.917,-1.915,-1.9166,-1.9166,-1.915,0.0,0.0,0.0,0.0,0.0,0.0,0.0,0.0,0.0,0.0,0.0,0.0,0.0,0.0,0.0,0.0,0.0,0.0,0.0,0.0,0.0,0.0,0.0,0.0,0.0,0.0,0.0,0.0,0.0,0.0,0.6924,0.0,0.0,0.0,0.0,0.0,0.0,0.0,0.0,0.0,0.0,0.0,0.0,0.0,0.0,0.0,0.0,0.0,0.0,0.0,0.0,0.0,0.0,-1.6943,-1.5241,-1.5187,-1.5231,-1.5283,-1.5287,-1.5293,-1.5286,-1.5293,-1.5292,-1.5273,0.0,0.0,0.0,0.0,0.0,0.0,0.0,0.0,0.0,0.0,0.0,0.0,0.0,0.0,0.0,0.0,0.0,0.0,0.0,0.0,0.0,0.0,0.0,0.0,0.0,0.0,-1.5106,-1.4984,-1.4919,0.0,0.0,0.0,0.0,0.0,0.0,0.0,0.0,0.0,0.0,-1.4526,-1.4769,-1.5499,-1.6287,-1.7085,-1.7881,-1.8718,-1.9282,-1.9301,-1.9282,-1.9285,0.0,0.0,0.0,0.0,0.0,0.0,0.0,0.0,0.0,0.0,0.0,0.0,0.0,0.0,0.0,0.0,0.0,0.0,0.0,0.0,0.0,0.0,0.0,0.0,0.0,0.0,0.0,1.099,1.1037,0.0,0.0,0.0,0.0,0.0,0.0,0.0,0.0,0.0,0.0,0.0,0.8359,0.7986,0.0,0.0,0.0,0.0,0.0,0.0,0.0,0.0,0.0,0.0,0.0,0.0,-1.6936,-1.5282,-1.5188,-1.5202,-1.5233,-1.5234,-1.5225,-1.5238,-1.5187,-1.5117,-1.4978,0.0,0.0,0.0,0.0,0.0,0.0,0.0,0.0,0.0,0.0,0.0,0.0,0.0,0.0,0.0,0.0,0.0,0.0,0.0,0.0,0.0,0.0,0.0,0.0,0.0,-1.5234,0.0,0.0,0.0,0.0,0.0,0.0,0.0,0.0,0.0,0.0,0.0,-1.4744,-1.4683,-1.4651,-1.4884,-1.5643,-1.6415,-1.7211,0.0,0.0,0.0,0.0,0.0,0.0,0.0,0.0,0.0,0.0,0.0,0.0,0.0,0.0,-1.9264,-1.9168,-1.917,-1.9135,-1.9119,0.0,0.0,0.0,0.0,0.0,0.0,0.0,0.0,0.0,0.0,0.0,0.0,0.0,0.0,1.359,0.0,1.3632,0.0,0.0,0.0,0.0,0.0,0.0,0.0,0.0,1.1699,1.1738,1.1851,1.1614,1.0093,0.0,0.5393,0.2163,0.0,0.0,0.0,0.0,0.0,0.0,0.0,0.0,-1.6515,-1.5163,-1.5095,-1.508,-1.5054,-1.5054,-1.5062,-1.502,-1.489,-1.4733,-1.4569,-1.4459,-1.4335,0.0,0.0,0.0,0.0,0.0,0.0,0.0,0.0,0.0,0.0,0.0,0.0,0.0,0.0,0.0,0.0,0.0,0.0,0.0,0.0,0.0,0.0,0.0,-1.5229,0.0,0.0,0.0,0.0,0.0,0.0,0.0,0.0,0.0,-1.484,-1.4822,-1.4823,-1.4754,-1.4985,-1.5417,-1.6146,0.0,0.0,0.0,0.0,0.0,0.0,0.0,-1.9383,-1.9438,-1.9393,-1.9378,-1.9372,-1.9353,-1.9387,-1.9438,0.0,0.0,-1.9264,-1.923,-1.9232,-1.92,-1.92,-1.92,-1.9232,-1.923,-1.9248,0.0,0.0,0.0,0.0,0.0,0.0,0.0,0.0,1.2669,1.2573,0.0,1.2521,0.0,0.0,0.0,0.0,0.0,1.4517,0.0,0.0,1.3316,1.3423,1.3409,1.3423,1.3473,1.3241,1.0094,0.7782,0.576,-0.3441,0.0,0.0,0.0,0.0,0.0,0.0,-1.5722,-1.4876,-1.4832,-1.4826,-1.4768,-1.4756,-1.4719,-1.4651,-1.441,-1.4198,-1.4069,-1.3888,-1.3773,-1.376,-1.378,0.0,0.0,0.0,0.0,0.0,0.0,0.0,0.0,0.0,0.0,0.0,0.0,0.0,0.0,0.0,0.0,0.0,0.0,0.0,0.0,-1.5287,0.0,0.0,0.0,0.0,0.0,0.0,0.0,0.0,0.0,0.0,-1.4925,-1.4902,-1.4886,-1.4813,0.0,0.0,0.0,0.0,-1.8572,-1.9369,-1.9499,-1.9499,-1.9499,-1.9518,-1.9504,-1.9497,0.0,0.0,-1.9516,-1.9497,-1.9516,-1.9516,-1.9516,-1.9468,-1.9338,-1.9305,-1.9274,-1.9232,-1.9216,-1.9232,-1.9292,-1.9308,-1.9357,1.0376,0.0,0.0,0.0,0.0,1.113,1.1133,1.1123,1.1037,1.1002,1.1038,1.114,0.0,0.0,0.0,0.0,0.0,0.0,1.2244,1.198,1.198,1.2018,1.2077,1.2134,1.2106,1.1945,1.093,1.0033,0.8881,0.1952,-0.3878,-0.846,0.0,0.0,0.0,0.0,-1.4839,-1.4043,-1.4069,-1.4081,-1.4007,-1.4077,-1.4021,-1.385,-1.3726,-1.3589,-1.3404,-1.3278,-1.3176,-1.3075,-1.3177,0.0,0.0,0.0,0.0,0.0,0.0,0.0,0.0,0.0,0.0,0.0,0.0,0.0,0.0,0.0,0.0,0.0,0.0,0.0,-1.5409,-1.5354,-1.5322,0.0,0.0,0.0,0.0,0.0,0.0,0.0,0.0,0.0,-1.514,-1.5042,-1.4955,0.0,0.0,-1.6359,-1.7139,-1.7919,-1.8746,-1.9516,-1.9647,0.0,0.0,-1.9601,-1.9587,-1.9633,-1.9633,-1.9633,-1.9652,-1.9633,-1.9652,-1.9652,-1.9652,-1.962,-1.9546,-1.9475,-1.9435,-1.9424,-1.9424,-1.9442,-1.9435,-1.9435,-1.945,0.853,0.9357,0.9664,0.9779,0.9779,0.9846,0.9858,0.9891,0.9876,0.9888,0.9915,0.9923,1.0058,1.0302,1.0425,0.0,0.0,0.0,1.063,1.0533,1.0579,1.0588,1.0583,1.0629,1.0578,1.0432,1.0162,0.9626,0.881,0.41,-0.0571,-0.5289,0.0,0.0,-1.2961,-1.3346,-1.3332,-1.2911,-1.3043,-1.3129,-1.3115,-1.3167,-1.3137,-1.3025,-1.2957,-1.2831,-1.2681,-1.2571,-1.2476,-1.2399,-1.2489,-1.2549,0.0,0.0,0.0,0.0,0.0,0.0,0.0,0.0,0.0,0.0,0.0,-1.4925,0.0,0.0,0.0,0.0,-1.5324,-1.5404,-1.5406,-1.5415,0.0,0.0,0.0,0.0,0.0,0.0,0.0,-1.5346,-1.5319,-1.5283,-1.5246,-1.5164,-1.5047,-1.4965,-1.5921,-1.6808,-1.7283,0.0,-1.9189,-1.9669,-1.9744,-1.9744,-1.9725,-1.9712,-1.9681,-1.9744,-1.9738,-1.9732,-1.9732,-1.9745,-1.9726,-1.9751,-1.9751,-1.9719,-1.9681,-1.9665,-1.9597,-1.9559,-1.9545,-1.9545,-1.9536,-1.9536,-1.9555,0.7026,0.7114,0.8068,0.8558,0.8627,0.8714,0.8824,0.8924,0.9001,0.9044,0.9057,0.8879,0.897,0.9277,0.9278,0.0,0.9253,0.9253,0.9188,0.9071,0.9112,0.9124,0.9045,0.9033,0.8954,0.8798,0.8273,0.7424,0.6244,0.3848,0.1459,-0.0949,-0.6437,-0.9632,-1.0523,-1.104,-1.1404,-1.1602,-1.1803,-1.1948,-1.207,-1.2136,-1.2152,-1.2179,-1.2127,-1.2036,-1.1891,-1.1773,-1.1723,-1.1702,-1.1723,-1.1809,-1.1999,0.0,0.0,0.0,0.0,0.0,0.0,0.0,0.0,0.0,0.0,0.0,0.0,0.0,0.0,0.0,-1.5271,0.0,-1.5387,-1.541,0.0,0.0,0.0,-1.5418,-1.5418,-1.5416,-1.5412,-1.5418,0.0,0.0,-1.5313,-1.5248,-1.519,-1.5139,-1.65,-1.7492,-1.7423,-1.8787,-1.9818,-1.9813,-1.9801,-1.982,-1.982,-1.9801,-1.9801,-1.9813,-1.9806,-1.9842,-1.9823,-1.9828,-1.9809,-1.9823,-1.9811,-1.9811,-1.9813,-1.982,-1.9782,-1.9652,-1.9643,-1.9625,-1.9633,-1.9628,-1.9647,0.6259,0.6295,0.6533,0.6817,0.713,0.7316,0.7387,0.743,0.7607,0.7712,0.7765,0.7964,0.8126,0.824,0.8298,0.8188,0.795,0.795,0.7883,0.7759,0.7759,0.7741,0.7665,0.7549,0.7434,0.7241,0.6754,0.596,0.4859,0.317,0.1355,-0.0578,-0.3254,-0.5844,-0.8294,-0.908,-0.9578,-0.9899,-1.0179,-1.0504,-1.0809,-1.0994,-1.1113,-1.115,-1.1142,-1.1088,-1.0996,-1.0987,-1.0954,-1.0982,-1.0954,-1.1038,-1.1187,-1.1618,0.0,0.0,0.0,0.0,0.0,0.0,0.0,0.0,0.0,-1.4471,-1.4587,0.0,-1.4818,0.0,-1.5178,-1.5326,-1.5314,-1.5385,0.0,0.0,-1.541,-1.541,-1.5408,-1.5407,-1.5403,-1.5409,-1.5385,-1.5379,-1.5382,-1.5326,-1.5513,-1.613,-1.699,-1.7551,-1.7547,-1.8896,-1.9963,-1.9949,-1.9949,-1.9949,-1.9949,-1.9949,-1.996,-1.9945,-1.9936,-1.9947,-1.995,-1.996,-1.996,-1.996,-1.9958,-1.9955,-1.9945,-1.9952,-1.9957,-1.9903,-1.9832,-1.9757,-1.977,-1.977,-1.9751,0.5545,0.5593,0.5631,0.58,0.5997,0.6467,0.6701,0.6831,0.7025,0.7141,0.7157,0.7467,0.7503,0.7374,0.7484,0.7345,0.7023,0.7023,0.6897,0.6674,0.6652,0.6592,0.6493,0.6326,0.6136,0.593,0.5435,0.4745,0.3819,0.2635,0.1286,-0.0231,-0.1646,-0.3465,-0.5568,-0.6967,-0.7855,-0.8224,-0.8756,-0.9267,-0.9666,-0.9856,-1.0007,-1.0095,-1.0132,-1.0145,-1.0083,-1.0095,-1.0133,-1.0121,-1.0133,-1.0196,-1.036,-1.0776,-1.099,0.0,0.0,0.0,0.0,0.0,0.0,0.0,0.0,0.0,0.0,0.0,-1.4681,-1.4906,-1.5088,-1.5221,-1.5265,-1.5306,-1.5354,-1.5342,-1.5373,-1.5418,-1.5421,-1.5406,-1.541,-1.5409,-1.5407,-1.5404,-1.5418,-1.5385,-1.5662,-1.6525,-1.7277,-1.7844,-1.8202,-1.9294,-2.0098,-2.0088,-2.0068,-2.0049,-2.0049,-2.0078,-2.0088,-2.0089,-2.0108,-2.0098,-2.0088,-2.0116,-2.0125,-2.0097,-2.0079,-2.0088,-2.0089,-2.005,-2.002,-2.0029,-1.9988,-1.9911,-1.9903,-1.991,-1.991,0.5007,0.4979,0.5106,0.5179,0.5193,0.5873,0.6295,0.6598,0.681,0.6937,0.6965,0.7157,0.702,0.6694,0.6826,0.6714,0.6307,0.6307,0.6153,0.5858,0.5794,0.5677,0.5533,0.5336,0.5093,0.4871,0.4366,0.3779,0.3122,0.2266,0.1235,0.0033,-0.1,-0.1996,-0.2984,-0.4897,-0.6165,-0.6742,-0.7511,-0.8101,-0.8552,-0.8755,-0.8892,-0.9031,-0.9177,-0.9227,-0.9174,-0.9254,-0.9307,-0.9295,-0.928,-0.9387,-0.9583,-0.9813,-1.0084,0.0,-1.0804,0.0,0.0,0.0,0.0,0.0,0.0,0.0,0.0,-1.4356,-1.4585,-1.4837,-1.498,-1.5095,-1.5174,-1.5246,-1.5276,-1.529,-1.5349,-1.5379,-1.5385,-1.5399,-1.5392,-1.5401,-1.5407,-1.541,-1.541,-1.5467,-1.5887,-1.68,-1.7626,-1.8403,-1.9076,-1.9778,-2.0227,-2.0222,-2.0169,-2.0133,-2.0142,-2.0197,-2.0225,-2.0214,-2.0211,-2.0208,-2.0227,-2.0273,-2.0292,-2.0246,-2.0208,-2.02,-2.0214,-2.0178,-2.0142,-2.0114,-2.0134,-2.0098,-2.0017,-2.0015,-2.0034,0.506,0.491,0.4951,0.5001,0.5072,0.5159,0.5496,0.5933,0.6227,0.652,0.6768,0.6939,0.6787,0.6481,0.6513,0.6263,0.5834,0.5834,0.5772,0.5661,0.554,0.5352,0.511,0.4905,0.4627,0.4258,0.3826,0.3331,0.2779,0.1973,0.1104,0.0235,-0.0601,-0.1403,-0.2142,0.0,0.0,0.0,-0.6471,-0.6981,-0.7325,-0.7686,-0.7964,-0.821,-0.8312,0.0,-0.8578,-0.8612,-0.8657,-0.8668,-0.8717,0.0,0.0,0.0,0.0,0.0,0.0,0.0,0.0,0.0,0.0,0.0,-1.2836,-1.3278,-1.3761,-1.4141,-1.4433,-1.4629,-1.4822,-1.4968,-1.503,-1.5101,-1.5168,-1.5211,-1.5221,-1.5248,-1.5303,-1.5316,-1.5332,-1.5407,-1.5418,-1.5403,-1.5485,-1.6003,-1.6775,-1.7637,-1.8454,-1.9262,-2.0065,-2.0269,-2.0334,-2.0269,-2.0268,-2.0272,-2.0265,-2.0272,-2.0287,-2.0275,-2.0282,-2.0288,-2.036,-2.0385,-2.0385,-2.0353,-2.0321,-2.0295,-2.0282,-2.0287,-2.0265,-2.0265,-2.0269,-2.0222,-2.0108,-2.0079,-2.006,0.4954,0.0,0.4914,0.5009,0.0,0.5088,0.5316,0.5624,0.5853,0.6099,0.6355,0.6483,0.6409,0.6198,0.628,0.6046,0.5553,0.5553,0.5444,0.5259,0.5109,0.5005,0.4848,0.4593,0.4337,0.3927,0.3548,0.3053,0.2477,0.1873,0.1141,0.0403,-0.0268,-0.0938,-0.1546,-0.2308,-0.3482,-0.4992,-0.5487,-0.5991,-0.6397,-0.6777,-0.7077,-0.7345,-0.7492,0.0,0.0,0.0,0.0,0.0,0.0,0.0,0.0,0.0,0.0,-0.9166,-0.9866,-1.0379,-1.0621,-1.1127,-1.1557,-1.194,-1.2475,-1.3053,-1.3653,-1.3973,-1.4239,-1.4433,-1.4608,-1.4757,-1.484,-1.4923,-1.5045,-1.5082,-1.514,-1.5168,-1.5197,-1.5226,-1.5272,-1.5334,-1.5349,-1.5495,-1.5952,-1.6353,-1.7194,-1.8365,-1.8936,-1.9529,-2.0309,-2.0467,-2.0424,-2.0366,-2.038,-2.0408,-2.0363,-2.0388,-2.0394,-2.0385,-2.0385,-2.041,-2.0429,-2.0432,-2.0446,-2.0438,-2.0413,-2.0408,-2.0408,-2.0371,-2.0359,-2.034,-2.0347,-2.034,-2.0258,-2.0222,-2.0208,0.4881,0.4853,0.4956,0.5043,0.5153,0.5178,0.533,0.5538,0.0,0.0,0.0,0.6099,0.6099,0.5933,0.6062,0.5857,0.5378,0.5373,0.523,0.4966,0.4855,0.4757,0.4683,0.4457,0.4158,0.3782,0.3385,0.287,0.2343,0.1816,0.1241,0.0571,0.0,-0.0538,-0.1212,-0.1978,-0.2896,-0.4033,-0.4547,-0.5086,-0.5564,-0.5921,-0.6268,-0.6548,-0.6738,-0.6927,-0.7047,-0.7225,-0.7353,-0.7471,-0.75,-0.7579,-0.7772,-0.8023,-0.8319,-0.8617,-0.9143,-0.9647,-1.0084,-1.0592,-1.1089,-1.1557,-1.2215,-1.2875,-1.3556,-1.3801,-1.3983,-1.4208,-1.4337,-1.4475,-1.4629,-1.4747,-1.4859,-1.4936,-1.5,-1.504,-1.5057,-1.5126,-1.518,-1.5255,-1.5429,-1.5738,-1.6439,-1.6874,-1.7525,-1.8806,-1.9315,-1.9639,-2.0282,-2.0484,-2.0467,-2.0429,-2.0464,-2.0483,-2.0434,-2.0457,-2.0503,-2.0492,-2.0492,-2.0515,-2.0511,-2.0515,-2.0502,-2.0506,-2.0502,-2.0502,-2.0502,-2.0458,-2.0415,-2.0415,-2.0425,-2.0429,-2.0413,-2.0379,-2.0337,0.5182,0.5043,0.5095,0.5056,0.5009,0.5135,0.5404,0.5748,0.5726,0.5723,0.5766,0.5933,0.5938,0.5761,0.5766,0.5615,0.532,0.532,0.5262,0.5237,0.5189,0.4964,0.4707,0.4549,0.42,0.3703,0.333,0.2886,0.2428,0.185,0.1239,0.0773,0.0269,-0.037,-0.1179,-0.1611,-0.2142,-0.2772,-0.3686,-0.4344,-0.4756,-0.5214,-0.5592,-0.5928,-0.6129,-0.6352,-0.6582,-0.6772,-0.6924,-0.7005,-0.7116,-0.7205,-0.7314,-0.7549,-0.785,-0.8244,-0.8617,-0.9062,-0.9635,-1.0122,-1.076,-1.1512,-1.1903,-1.2439,-1.3193,-1.3459,-1.3646,-1.3853,-1.4051,-1.4208,-1.4344,-1.4489,-1.4598,-1.4718,-1.4804,-1.4856,-1.492,-1.4977,-1.5066,-1.5178,-1.5811,-1.624,-1.6637,-1.7703,-1.8627,-1.9123,-1.9692,-2.0259,-2.0354,-2.0464,-2.0485,-2.05,-2.0497,-2.0494,-2.049,-2.049,-2.0506,-2.0509,-2.0509,-2.0511,-2.0503,-2.0515,-2.05,-2.0504,-2.0506,-2.0506,-2.0515,-2.0499,-2.0487,-2.049,-2.048,-2.0492,-2.0488,-2.0458,-2.0463,0.5249,0.523,0.5226,0.5235,0.5357,0.5413,0.5534,0.5599,0.5717,0.5686,0.5642,0.5631,0.5588,0.5507,0.5501,0.5415,0.5241,0.5241,0.5198,0.5116,0.5024,0.488,0.4758,0.4584,0.4232,0.381,0.3453,0.3021,0.251,0.1983,0.1487,0.1012,0.037,-0.0235,-0.0808,-0.1176,-0.1611,-0.2075,-0.3068,-0.3793,-0.421,-0.4628,-0.5017,-0.5372,-0.5609,-0.5859,-0.6122,-0.6276,-0.6429,-0.6582,-0.6703,-0.6824,-0.6975,-0.7214,-0.748,-0.7802,-0.8127,-0.854,-0.9085,-0.9777,-1.047,-1.1164,-1.1453,-1.1852,-1.2427,-1.2947,-1.3328,-1.3572,-1.3739,-1.3913,-1.4078,-1.4208,-1.4332,-1.4467,-1.4574,-1.4668,-1.4729,-1.4784,-1.5045,-1.5567,-1.5991,-1.6595,-1.7538,-1.8346,-1.9085,-1.9545,-2.007,-2.0294,-2.033,-2.0374,-2.0411,-2.0476,-2.0504,-2.0507,-2.0508,-2.0508,-2.0508,-2.0506,-2.0506,-2.0505,-2.0504,-2.0515,-2.0511,-2.0513,-2.05,-2.0516,-2.0508,-2.0508,-2.0508,-2.0504,-2.0499,-2.0514,-2.0506,-2.051,-2.0504,0.5301,0.5301,0.5301,0.5407,0.5609,0.5686,0.5631,0.556,0.5745,0.5768,0.5641,0.55,0.541,0.536,0.5365,0.5291,0.5159,0.5106,0.5067,0.4937,0.4845,0.4757,0.4718,0.4543,0.4293,0.3909,0.358,0.3149,0.2607,0.2171,0.1667,0.1117,0.0437,-0.0034,-0.0403,-0.0774,-0.1176,-0.1611,-0.2441,-0.3167,-0.3723,-0.4113,-0.45,-0.4768,-0.5074,-0.5327,-0.5592,-0.578,-0.5928,-0.6153,-0.6276,-0.6437,-0.659,-0.6803,-0.7026,-0.7324,-0.7627,-0.8099,-0.8656,-0.9449,-1.016,-1.0667,-1.0973,-1.1318,-1.1723,-1.232,-1.2852,-1.321,-1.3378,-1.3537,-1.3739,-1.3899,-1.4038,-1.417,-1.432,-1.4434,-1.4501,-1.4725,-1.5133,-1.588,-1.6313,-1.7162,-1.8266,-1.8789,-1.9219,-1.983,-2.0088,-2.0154,-2.0231,-2.0246,-2.0283,-2.0386,-2.0445,-2.047,-2.048,-2.0482,-2.0486,-2.0471,-2.0474,-2.0494,-2.0495,-2.0516,-2.05,-2.0501,-2.0501,-2.0503,-2.0507,-2.0508,-2.0508,-2.0507,-2.0505,-2.0501,-2.0513,-2.0525,-2.0525,0.5301,0.5301,0.5301,0.5407,0.5618,0.571,0.5842,0.5895,0.5906,0.5886,0.5862,0.5849,0.5681,0.5513,0.5448,0.5295,0.5048,0.4893,0.4845,0.4801,0.4661,0.4578,0.4543,0.4504,0.4272,0.3923,0.3676,0.3303,0.2827,0.2312,0.1667,0.0982,0.0606,0.0269,-0.0067,-0.037,-0.0773,-0.1246,-0.1747,-0.2411,-0.3138,-0.3569,-0.3901,-0.4161,-0.4505,-0.4794,-0.5049,-0.5271,-0.5498,-0.5742,-0.5811,-0.5936,-0.6091,-0.6245,-0.6521,-0.6846,-0.7136,-0.7686,-0.8617,-0.9112,-0.9607,-1.011,-1.0434,-1.0784,-1.1227,-1.1542,-1.2056,-1.2649,-1.2946,-1.3142,-1.3345,-1.3524,-1.3711,-1.3856,-1.4019,-1.4177,-1.4353,-1.4932,-1.5508,-1.5698,-1.7027,-1.8141,-1.846,-1.9033,-1.9532,-1.9756,-1.989,-1.9953,-2.0002,-2.0012,-2.005,-2.0156,-2.0283,-2.0366,-2.0391,-2.0405,-2.0398,-2.041,-2.0402,-2.0441,-2.0472,-2.0496,-2.0499,-2.0494,-2.049,-2.0497,-2.0492,-2.0501,-2.051,-2.0516,-2.0503,-2.0507,-2.0508,-2.0546,-2.0558,0.5301,0.5301,0.5301,0.5407,0.5622,0.5736,0.5845,0.5991,0.6079,0.6086,0.6057,0.6049,0.5889,0.5572,0.5353,0.5204,0.5029,0.4812,0.4705,0.4661,0.4583,0.4543,0.4504,0.4412,0.4188,0.3924,0.3727,0.3432,0.2941,0.2289,0.1727,0.1266,0.0923,0.0572,0.0235,-0.0067,-0.0403,-0.0808,-0.1308,-0.1773,-0.2275,-0.2973,-0.3504,-0.3798,-0.4091,-0.4344,-0.4532,-0.4832,-0.5062,-0.5182,-0.5404,-0.5529,-0.5585,-0.5842,-0.6114,-0.636,-0.6837,-0.7462,-0.8135,-0.854,-0.9019,-0.9581,-0.9868,-1.0209,-1.0688,-1.101,-1.14,-1.1852,-1.2364,-1.2746,-1.298,-1.3158,-1.3312,-1.3491,-1.3632,-1.3961,-1.4574,-1.4962,-1.5562,-1.6649,-1.7433,-1.8179,-1.875,-1.9234,-1.9504,-1.9553,-1.9638,-1.967,-1.9757,-1.9757,-1.9793,-1.9855,-1.9963,-2.0103,-2.0234,-2.0295,-2.0296,-2.034,-2.0357,-2.0377,-2.0418,-2.0424,-2.0434,-2.0444,-2.0439,-2.0428,-2.0426,-2.0483,-2.0516,-2.0503,-2.0503,-2.0516,-2.0515,-2.0519,-2.0526,0.5407,0.5352,0.5407,0.5517,0.5677,0.5791,0.5896,0.6,0.6119,0.6173,0.6173,0.6173,0.6014,0.5723,0.5415,0.5248,0.5128,0.4789,0.4608,0.4599,0.4525,0.446,0.4412,0.432,0.4144,0.3924,0.3788,0.3487,0.2965,0.24,0.1946,0.1599,0.1226,0.0887,0.0538,0.0235,-0.0101,-0.047,-0.0938,-0.1308,-0.1644,-0.2374,-0.2977,-0.3368,-0.3663,-0.3853,-0.4048,-0.4409,-0.4614,-0.4646,-0.4922,-0.5119,-0.5189,-0.5435,-0.5686,-0.5967,-0.6513,-0.7086,-0.7559,-0.7945,-0.8439,-0.8992,-0.9292,-0.9649,-1.0122,-1.0458,-1.0774,-1.1089,-1.1644,-1.2123,-1.2553,-1.2743,-1.2911,-1.3123,-1.3396,-1.3939,-1.4573,-1.5072,-1.5993,-1.7188,-1.7648,-1.8127,-1.8837,-1.9148,-1.9256,-1.9271,-1.9313,-1.9405,-1.9471,-1.9504,-1.9518,-1.9596,-1.9643,-1.9786,-2.0012,-2.0115,-2.0142,-2.0192,-2.0215,-2.0231,-2.0301,-2.0314,-2.0334,-2.0321,-2.0357,-2.038,-2.036,-2.042,-2.0467,-2.0469,-2.0472,-2.0492,-2.05,-2.0509,-2.0519,0.5567,0.5622,0.5736,0.5795,0.5791,0.595,0.6,0.6,0.6173,0.6173,0.6173,0.6173,0.6164,0.6112,0.5802,0.5479,0.5193,0.4845,0.4705,0.4634,0.4442,0.4324,0.432,0.4276,0.4144,0.3928,0.388,0.3547,0.295,0.2711,0.2352,0.1831,0.1593,0.1235,0.0816,0.0472,0.0101,-0.0303,-0.0706,-0.1043,-0.1311,-0.1747,-0.2245,-0.2782,-0.3167,-0.3429,-0.363,-0.3896,-0.4091,-0.421,-0.443,-0.4628,-0.4806,-0.4966,-0.5271,-0.5742,-0.6129,-0.6543,-0.7017,-0.7403,-0.7869,-0.8354,-0.8679,-0.905,-0.9569,-0.9868,-1.0172,-1.0494,-1.0845,-1.1333,-1.1967,-1.224,-1.2506,-1.278,-1.3437,-1.3916,-1.4286,-1.564,-1.6584,-1.7104,-1.7748,-1.8235,-1.8586,-1.8807,-1.8895,-1.8948,-1.8981,-1.9064,-1.9148,-1.9182,-1.923,-1.9289,-1.9383,-1.9499,-1.9762,-1.9866,-1.992,-1.9972,-2.0012,-2.0031,-2.0078,-2.0131,-2.0164,-2.0215,-2.0246,-2.0287,-2.0288,-2.0315,-2.0352,-2.036,-2.0405,-2.0419,-2.0452,-2.0492,-2.051,0.5732,0.5732,0.5791,0.585,0.595,0.6,0.6059,0.6119,0.6173,0.6173,0.6173,0.6173,0.6173,0.6059,0.5932,0.5681,0.5382,0.4939,0.4697,0.4548,0.4475,0.4386,0.428,0.432,0.4188,0.406,0.3928,0.3679,0.3231,0.2893,0.256,0.2305,0.1873,0.151,0.1163,0.0821,0.0437,0.0067,-0.037,-0.0707,-0.0908,-0.1311,-0.168,-0.2042,-0.2507,-0.29,-0.3134,-0.3368,-0.3565,-0.3723,-0.3891,-0.4091,-0.4285,-0.457,-0.489,-0.5277,-0.5592,-0.5983,-0.6405,-0.6777,-0.7216,-0.7772,-0.806,-0.8439,-0.8871,-0.9224,-0.9557,-0.9893,-1.021,-1.0616,-1.1052,-1.1549,-1.217,-1.2762,-1.3214,-1.3923,-1.4889,-1.5778,-1.6442,-1.7138,-1.7769,-1.8138,-1.8225,-1.8391,-1.8528,-1.8528,-1.8604,-1.8698,-1.8735,-1.8789,-1.8843,-1.8948,-1.9017,-1.9099,-1.9323,-1.9545,-1.9657,-1.9757,-1.9804,-1.9862,-1.9899,-1.9952,-1.9983,-2.006,-2.0116,-2.0161,-2.0175,-2.0204,-2.0241,-2.0295,-2.0328,-2.0352,-2.0363,-2.0415,-2.0419,0.5845,0.59,0.59,0.5955,0.6059,0.6059,0.6114,0.6173,0.6173,0.6173,0.6173,0.6173,0.6173,0.6059,0.6,0.5882,0.5624,0.5229,0.4927,0.4763,0.4648,0.4525,0.4369,0.43,0.4236,0.4108,0.3928,0.3704,0.3435,0.3083,0.2808,0.2625,0.2199,0.1834,0.149,0.1089,0.072,0.0338,-0.0067,-0.037,-0.0606,-0.0943,-0.1211,-0.1408,-0.1878,-0.2308,-0.2706,-0.2944,-0.3109,-0.3274,-0.3438,-0.3635,-0.3896,-0.4215,-0.4505,-0.48,-0.5106,-0.5484,-0.5851,-0.6191,-0.6626,-0.7148,-0.7491,-0.784,-0.8269,-0.8623,-0.8942,-0.9251,-0.9569,-0.9905,-1.0405,-1.0974,-1.1651,-1.2506,-1.3169,-1.3992,-1.5143,-1.5713,-1.6353,-1.7028,-1.7469,-1.7704,-1.7794,-1.7954,-1.8061,-1.8086,-1.8208,-1.8307,-1.8351,-1.8393,-1.8469,-1.8601,-1.8678,-1.877,-1.8931,-1.9113,-1.9357,-1.9462,-1.9564,-1.9643,-1.972,-1.9762,-1.9828,-1.9904,-1.9977,-2.002,-2.0069,-2.0106,-2.015,-2.023,-2.0269,-2.0287,-2.0308,-2.0334,-2.0346,0.6,0.6059,0.6119,0.6228,0.6228,0.6232,0.6173,0.6232,0.6173,0.6173,0.6173,0.6173,0.6173,0.6173,0.6059,0.5996,0.5892,0.5628,0.5375,0.5217,0.4969,0.4709,0.4516,0.4373,0.4248,0.4064,0.3836,0.366,0.3575,0.3426,0.3144,0.2749,0.2503,0.2149,0.1719,0.1348,0.0921,0.0547,0.0203,-0.0101,-0.0303,-0.0606,-0.084,-0.0942,-0.1211,-0.168,-0.2341,-0.2543,-0.2712,-0.2815,-0.301,-0.3344,-0.3602,-0.3793,-0.4053,-0.4382,-0.4704,-0.5042,-0.539,-0.5734,-0.6137,-0.6526,-0.6906,-0.7255,-0.7656,-0.8003,-0.8287,-0.8578,-0.89,-0.9341,-1.0044,-1.0578,-1.1212,-1.1994,-1.3281,-1.4191,-1.4803,-1.5598,-1.6324,-1.6722,-1.7027,-1.7216,-1.732,-1.7462,-1.7579,-1.7687,-1.78,-1.7905,-1.7971,-1.8023,-1.8107,-1.8225,-1.8348,-1.8467,-1.8563,-1.8695,-1.8948,-1.918,-1.9289,-1.938,-1.9495,-1.9545,-1.963,-1.9713,-1.9861,-1.99,-1.9966,-2.001,-2.0031,-2.0088,-2.0134,-2.0197,-2.0211,-2.0215,-2.0272,0.649,0.6485,0.6544,0.6549,0.649,0.6386,0.6332,0.6332,0.6228,0.6173,0.6173,0.6173,0.6173,0.6173,0.6173,0.6119,0.6114,0.6044,0.5788,0.5444,0.5217,0.4971,0.4713,0.4533,0.4353,0.4128,0.402,0.3836,0.3707,0.3578,0.3369,0.306,0.2763,0.2406,0.2043,0.1702,0.1332,0.0923,0.0514,0.0269,0.0101,-0.0269,-0.0505,-0.0572,-0.0808,-0.1142,-0.1477,-0.1911,-0.2181,-0.2314,-0.2477,-0.2742,-0.3043,-0.3307,-0.3569,-0.3826,-0.4118,-0.4441,-0.475,-0.5106,-0.5484,-0.5882,-0.6221,-0.6587,-0.6969,-0.7334,-0.7637,-0.8006,-0.8513,-0.9096,-0.9612,-1.0521,-1.143,-1.2446,-1.3179,-1.396,-1.4672,-1.5403,-1.5938,-1.6203,-1.6474,-1.6659,-1.6747,-1.6926,-1.7076,-1.7183,-1.7296,-1.7392,-1.7549,-1.7602,-1.7715,-1.7883,-1.8014,-1.8142,-1.8229,-1.8348,-1.8566,-1.8825,-1.8982,-1.9132,-1.9259,-1.935,-1.9442,-1.9541,-1.9668,-1.9776,-1.9849,-1.9908,-1.9934,-1.9969,-2.0011,-2.0041,-2.0069,-2.0125,-2.0169,0.6707,0.6707,0.6707,0.6752,0.6759,0.6584,0.6544,0.6593,0.6475,0.6337,0.6282,0.6277,0.6232,0.6232,0.6173,0.6173,0.6173,0.6173,0.6049,0.576,0.5523,0.5296,0.4974,0.465,0.4398,0.4216,0.4108,0.402,0.3836,0.3704,0.3527,0.3331,0.2999,0.2681,0.2349,0.2028,0.1672,0.1315,0.0953,0.0652,0.0439,0.0101,-0.0101,-0.0168,-0.0471,-0.0673,-0.0807,-0.1243,-0.1611,-0.1845,-0.2042,-0.2278,-0.255,-0.2779,-0.3039,-0.3331,-0.3626,-0.3956,-0.4274,-0.4608,-0.4922,-0.532,-0.5634,-0.5975,-0.6368,-0.6741,-0.716,-0.7583,-0.8185,-0.8838,-0.9463,-1.0242,-1.1297,-1.2195,-1.2903,-1.3613,-1.446,-1.5043,-1.5404,-1.5638,-1.5868,-1.608,-1.6231,-1.6367,-1.6554,-1.6696,-1.6809,-1.6926,-1.7093,-1.7191,-1.7361,-1.7542,-1.7658,-1.7777,-1.7893,-1.8023,-1.8187,-1.843,-1.866,-1.886,-1.9016,-1.9115,-1.9214,-1.9383,-1.9513,-1.9582,-1.9649,-1.9776,-1.9837,-1.9877,-1.9873,-1.9947,-1.9998,-2.0039,-2.0079,0.6761,0.6756,0.6756,0.6889,0.7043,0.6803,0.6824,0.6925,0.6748,0.6593,0.6436,0.6386,0.6332,0.6228,0.6232,0.6173,0.6173,0.6173,0.6173,0.6054,0.5885,0.5578,0.5224,0.4751,0.4454,0.4321,0.416,0.4108,0.4064,0.3836,0.366,0.353,0.3199,0.2936,0.2676,0.2312,0.2003,0.1692,0.1326,0.1037,0.0819,0.0509,0.0337,0.0303,-0.0067,-0.0269,-0.0303,-0.0605,-0.0973,-0.1406,-0.1711,-0.1911,-0.2081,-0.2311,-0.261,-0.2867,-0.3233,-0.3565,-0.3896,-0.4156,-0.4473,-0.482,-0.5106,-0.5417,-0.5822,-0.6304,-0.6794,-0.7214,-0.7885,-0.8592,-0.931,-0.9913,-1.0568,-1.1435,-1.2471,-1.3403,-1.4098,-1.4529,-1.4766,-1.4968,-1.5225,-1.5507,-1.5623,-1.5839,-1.6009,-1.6203,-1.6351,-1.6474,-1.6633,-1.6789,-1.6952,-1.7126,-1.7288,-1.7455,-1.7562,-1.776,-1.7893,-1.8061,-1.831,-1.8584,-1.8789,-1.8931,-1.9034,-1.9196,-1.9353,-1.9394,-1.9485,-1.9587,-1.9673,-1.9694,-1.9757,-1.9849,-1.9908,-1.9922,-1.9977,0.73,0.73,0.73,0.7389,0.7453,0.7132,0.7054,0.7115,0.6858,0.6701,0.6598,0.649,0.6381,0.6332,0.6228,0.6173,0.6228,0.6173,0.6173,0.6168,0.6126,0.5779,0.5289,0.4777,0.4491,0.4438,0.4304,0.4192,0.4108,0.402,0.3888,0.3622,0.3486,0.3208,0.2857,0.2647,0.233,0.2024,0.1757,0.1466,0.1189,0.0893,0.0699,0.0641,0.0337,0.0168,0.0101,-0.0202,-0.0605,-0.1008,-0.1311,-0.151,-0.1678,-0.1911,-0.2175,-0.2441,-0.2639,-0.2937,-0.3303,-0.3597,-0.3886,-0.4215,-0.4523,-0.4938,-0.545,-0.5813,-0.6282,-0.6825,-0.752,-0.8136,-0.8723,-0.9355,-1.0107,-1.1014,-1.2006,-1.2871,-1.3387,-1.3776,-1.4057,-1.4296,-1.4582,-1.4845,-1.5059,-1.524,-1.5419,-1.5667,-1.5839,-1.6009,-1.6176,-1.6367,-1.6538,-1.6773,-1.6952,-1.7101,-1.7272,-1.7462,-1.7641,-1.7749,-1.7971,-1.8263,-1.8526,-1.8734,-1.886,-1.8981,-1.9132,-1.9227,-1.9308,-1.9383,-1.9427,-1.9504,-1.9614,-1.9738,-1.9757,-1.9794,-1.9866,0.7568,0.7568,0.7515,0.7614,0.774,0.7405,0.7335,0.7309,0.7088,0.6869,0.6761,0.6657,0.6598,0.6485,0.6332,0.6282,0.6277,0.6232,0.6173,0.6173,0.6114,0.5837,0.5367,0.4984,0.4726,0.4477,0.4438,0.4308,0.4204,0.4152,0.3976,0.3803,0.367,0.3448,0.3214,0.2933,0.2687,0.2391,0.2163,0.1932,0.1626,0.1355,0.1205,0.1055,0.0764,0.0518,0.0372,0.0101,-0.0235,-0.0605,-0.0908,-0.1075,-0.1209,-0.1444,-0.1711,-0.1942,-0.2175,-0.2444,-0.2775,-0.3072,-0.3373,-0.3731,-0.4048,-0.4477,-0.4961,-0.5432,-0.595,-0.6471,-0.7197,-0.774,-0.8268,-0.8941,-0.967,-1.036,-1.1142,-1.192,-1.2626,-1.3032,-1.334,-1.3643,-1.3921,-1.4195,-1.4438,-1.4596,-1.4814,-1.5059,-1.53,-1.5477,-1.5696,-1.5909,-1.6105,-1.6351,-1.6591,-1.6747,-1.6926,-1.7126,-1.7344,-1.7455,-1.7658,-1.7966,-1.8246,-1.8528,-1.866,-1.8771,-1.893,-1.9051,-1.9117,-1.9198,-1.9295,-1.9387,-1.9504,-1.9574,-1.9582,-1.9649,-1.9745,0.7777,0.7777,0.7676,0.7712,0.7891,0.7689,0.7609,0.7656,0.7417,0.7149,0.6987,0.6928,0.682,0.6707,0.6544,0.644,0.6381,0.6282,0.6232,0.6173,0.6105,0.586,0.5575,0.5352,0.5013,0.4682,0.4589,0.4413,0.4308,0.4224,0.4112,0.4024,0.3803,0.3626,0.3486,0.3249,0.2971,0.2732,0.2542,0.235,0.2111,0.1853,0.1694,0.1513,0.1155,0.0851,0.0654,0.0406,0.0202,-0.0168,-0.0471,-0.0672,-0.0773,-0.101,-0.1244,-0.1449,-0.176,-0.2042,-0.2307,-0.2608,-0.2933,-0.3321,-0.3636,-0.4044,-0.4537,-0.5091,-0.5607,-0.6102,-0.6833,-0.7328,-0.7934,-0.8618,-0.9173,-0.9658,-1.0029,-1.0728,-1.1638,-1.2246,-1.2638,-1.2941,-1.3229,-1.3501,-1.3735,-1.3954,-1.4149,-1.447,-1.4707,-1.4968,-1.521,-1.5448,-1.5681,-1.5953,-1.6148,-1.6367,-1.6565,-1.6773,-1.6977,-1.7167,-1.7401,-1.7681,-1.7997,-1.8232,-1.843,-1.8584,-1.8715,-1.8825,-1.8878,-1.8983,-1.9119,-1.9216,-1.9308,-1.9368,-1.9413,-1.9495,-1.9577,0.8262,0.8262,0.8209,0.8256,0.8324,0.7955,0.7888,0.7981,0.7629,0.7365,0.7203,0.709,0.6982,0.6879,0.6707,0.6544,0.644,0.6386,0.6337,0.6173,0.6173,0.6046,0.5837,0.5553,0.525,0.5035,0.4666,0.4485,0.4421,0.4296,0.4192,0.4112,0.4024,0.3843,0.3622,0.353,0.3296,0.2997,0.2901,0.2754,0.2545,0.2352,0.2143,0.1935,0.1601,0.1272,0.107,0.0826,0.064,0.0471,0.0101,-0.0239,-0.0406,-0.0676,-0.0881,-0.1063,-0.1334,-0.1642,-0.194,-0.221,-0.2506,-0.2949,-0.327,-0.3679,-0.4284,-0.4595,-0.5122,-0.566,-0.6101,-0.667,-0.744,-0.7938,-0.8464,-0.891,-0.9288,-0.9734,-1.0428,-1.1207,-1.1872,-1.2246,-1.252,-1.2849,-1.3216,-1.3387,-1.3589,-1.3855,-1.4117,-1.4388,-1.4658,-1.4937,-1.5225,-1.5463,-1.5725,-1.5953,-1.6231,-1.6459,-1.6722,-1.6901,-1.7142,-1.7353,-1.767,-1.7954,-1.8103,-1.8307,-1.8505,-1.8584,-1.866,-1.8789,-1.8913,-1.8999,-1.9099,-1.9198,-1.9292,-1.9383,-1.9485,0.8692,0.8639,0.8527,0.8504,0.8492,0.8277,0.8087,0.796,0.7805,0.7574,0.7419,0.7252,0.7149,0.7095,0.6874,0.6712,0.6603,0.644,0.6332,0.6228,0.6173,0.6173,0.6046,0.5815,0.5567,0.5371,0.496,0.4741,0.4612,0.4422,0.4276,0.4192,0.4152,0.402,0.3843,0.3755,0.3612,0.3385,0.3303,0.3178,0.2991,0.2762,0.2539,0.2268,0.2012,0.1769,0.158,0.1329,0.1236,0.1123,0.0759,0.0322,0.0,-0.028,-0.0459,-0.0618,-0.0962,-0.1207,-0.1486,-0.1773,-0.2087,-0.2505,-0.2788,-0.3276,-0.3787,-0.4091,-0.4508,-0.5067,-0.5524,-0.6039,-0.6937,-0.737,-0.7821,-0.8193,-0.8561,-0.8967,-0.9439,-1.0331,-1.1132,-1.1505,-1.1799,-1.2126,-1.2401,-1.2684,-1.2988,-1.3251,-1.3555,-1.3855,-1.4065,-1.4342,-1.4658,-1.4937,-1.5255,-1.5551,-1.5839,-1.6148,-1.6474,-1.6644,-1.685,-1.7027,-1.7272,-1.7532,-1.7772,-1.8014,-1.8225,-1.8348,-1.845,-1.8567,-1.8698,-1.8807,-1.893,-1.9069,-1.9202,-1.928,-1.9372,0.9008,0.9001,0.8784,0.8679,0.8679,0.8533,0.8334,0.8068,0.8008,0.7848,0.7568,0.7419,0.7371,0.7257,0.7095,0.6933,0.6825,0.6603,0.644,0.6332,0.6282,0.6228,0.6159,0.6018,0.5846,0.5579,0.5242,0.5016,0.4828,0.4546,0.4413,0.4332,0.4236,0.4152,0.4104,0.3972,0.3836,0.37,0.3615,0.3527,0.3422,0.3196,0.2919,0.2626,0.2422,0.229,0.2096,0.1886,0.1763,0.1765,0.1452,0.1042,0.0603,0.0148,-0.0037,-0.0117,-0.0551,-0.0834,-0.0996,-0.1325,-0.168,-0.2027,-0.2329,-0.2751,-0.3224,-0.3595,-0.3946,-0.443,-0.4918,-0.5561,-0.638,-0.6768,-0.7118,-0.7503,-0.7878,-0.8201,-0.8675,-0.95,-1.0167,-1.0791,-1.1094,-1.1383,-1.1715,-1.2006,-1.2318,-1.265,-1.2953,-1.3251,-1.3488,-1.3756,-1.4084,-1.442,-1.4721,-1.5134,-1.5463,-1.5769,-1.6077,-1.634,-1.6512,-1.6696,-1.6876,-1.7126,-1.7408,-1.7749,-1.7971,-1.8061,-1.8208,-1.8316,-1.8454,-1.8605,-1.877,-1.8896,-1.9018,-1.9172,-1.9285,0.9159,0.9159,0.9106,0.9106,0.9054,0.8857,0.8692,0.8593,0.8368,0.8162,0.7842,0.7794,0.758,0.7371,0.7263,0.7149,0.6933,0.6712,0.6598,0.6544,0.6436,0.6386,0.6332,0.6277,0.614,0.5972,0.5697,0.5397,0.514,0.4927,0.4673,0.4565,0.4456,0.4368,0.428,0.4152,0.406,0.3924,0.3884,0.3792,0.3656,0.3565,0.3378,0.3057,0.2894,0.2724,0.2516,0.2333,0.2134,0.2047,0.1765,0.1559,0.1332,0.0792,0.0472,0.0239,-0.0123,-0.0416,-0.0584,-0.0944,-0.1312,-0.1638,-0.1943,-0.2297,-0.2724,-0.3037,-0.3391,-0.3877,-0.4491,-0.5096,-0.548,-0.5996,-0.638,-0.681,-0.7238,-0.7663,-0.807,-0.8553,-0.9199,-0.9873,-1.0293,-1.0677,-1.1019,-1.1356,-1.1653,-1.1993,-1.2306,-1.2626,-1.2871,-1.3182,-1.3509,-1.3842,-1.4163,-1.4627,-1.509,-1.5374,-1.5696,-1.5953,-1.6148,-1.6367,-1.6554,-1.6763,-1.7027,-1.732,-1.7595,-1.7794,-1.7932,-1.8069,-1.8252,-1.841,-1.8565,-1.8715,-1.8861,-1.9002,-1.9137,0.9524,0.948,0.9368,0.9309,0.9263,0.9106,0.8903,0.8804,0.8639,0.8427,0.8162,0.8008,0.7794,0.758,0.7419,0.7252,0.7036,0.6869,0.6761,0.6707,0.6593,0.6544,0.6544,0.649,0.6436,0.6411,0.6207,0.5789,0.5314,0.5009,0.482,0.4622,0.4578,0.4535,0.4447,0.4408,0.432,0.4188,0.4144,0.4056,0.3924,0.3836,0.3656,0.3494,0.332,0.3156,0.3022,0.2759,0.2602,0.2495,0.2275,0.2086,0.1881,0.1535,0.1052,0.0759,0.0344,0.0044,-0.0131,-0.0445,-0.0805,-0.1032,-0.1345,-0.1703,-0.2061,-0.237,-0.2768,-0.3391,-0.3924,-0.4491,-0.4918,-0.5351,-0.5782,-0.6167,-0.6592,-0.6979,-0.7363,-0.7697,-0.8267,-0.8999,-0.943,-0.9903,-1.039,-1.0725,-1.0992,-1.1319,-1.1653,-1.1945,-1.2246,-1.2591,-1.2881,-1.3353,-1.3702,-1.4181,-1.4627,-1.4937,-1.5255,-1.5492,-1.5769,-1.5981,-1.6219,-1.6394,-1.6607,-1.685,-1.7142,-1.7425,-1.7681,-1.7849,-1.804,-1.8205,-1.8351,-1.8506,-1.8696,-1.8825,-1.8949,0.9851,0.9799,0.9577,0.9472,0.9465,0.9316,0.9113,0.891,0.8857,0.8692,0.8421,0.8162,0.8008,0.7842,0.7628,0.7359,0.7144,0.7036,0.6928,0.6815,0.6761,0.6761,0.6761,0.6707,0.6707,0.6647,0.6632,0.6283,0.5667,0.5289,0.502,0.4821,0.4706,0.4661,0.4618,0.4574,0.4578,0.4491,0.4403,0.4276,0.4192,0.4104,0.3968,0.3832,0.3751,0.3612,0.3419,0.3237,0.3105,0.297,0.2752,0.2541,0.2368,0.2103,0.1746,0.1343,0.0852,0.0584,0.0404,0.0045,-0.0269,-0.0404,-0.0763,-0.1075,-0.1479,-0.1882,-0.2328,-0.2948,-0.3435,-0.3921,-0.4351,-0.4783,-0.5178,-0.5572,-0.591,-0.6252,-0.6689,-0.7034,-0.7405,-0.8021,-0.8545,-0.9119,-0.9637,-1.0079,-1.037,-1.0687,-1.0981,-1.1282,-1.1579,-1.1909,-1.2294,-1.2801,-1.3297,-1.3769,-1.4181,-1.447,-1.4752,-1.5029,-1.53,-1.5565,-1.5782,-1.6024,-1.6231,-1.6459,-1.6712,-1.7002,-1.7313,-1.7612,-1.7777,-1.7954,-1.8125,-1.829,-1.8467,-1.8639,-1.8788,0.9947,0.9947,0.9792,0.974,0.9688,0.9465,0.9316,0.9159,0.9008,0.885,0.858,0.8427,0.8162,0.7895,0.7628,0.7413,0.7311,0.7257,0.7144,0.7085,0.6982,0.6933,0.6879,0.6766,0.6815,0.6815,0.6761,0.6468,0.6083,0.5814,0.5491,0.5199,0.4937,0.4801,0.4801,0.4748,0.4613,0.4574,0.4574,0.453,0.453,0.4451,0.432,0.4232,0.4104,0.3928,0.3744,0.3612,0.3524,0.3309,0.3217,0.304,0.2821,0.2553,0.2373,0.2012,0.1521,0.0985,0.0941,0.0538,0.0225,0.009,-0.0269,-0.0628,-0.1031,-0.1569,-0.2014,-0.2368,-0.2812,-0.3258,-0.3697,-0.4045,-0.4443,-0.4836,-0.5221,-0.5604,-0.6039,-0.6392,-0.6732,-0.7105,-0.7675,-0.83,-0.8837,-0.9319,-0.9716,-1.004,-1.0351,-1.0649,-1.0981,-1.1356,-1.1799,-1.2354,-1.2779,-1.3251,-1.3635,-1.3954,-1.4246,-1.4519,-1.4814,-1.509,-1.533,-1.558,-1.5854,-1.6077,-1.6324,-1.6591,-1.6926,-1.7199,-1.7479,-1.7687,-1.7866,-1.804,-1.8208,-1.8388,-1.8582,1.0205,1.0162,0.9999,0.9851,0.9799,0.9688,0.9524,0.9309,0.9159,0.9008,0.8791,0.858,0.8368,0.8055,0.7735,0.7622,0.7521,0.7467,0.7413,0.7354,0.7252,0.7252,0.7252,0.7198,0.7139,0.7139,0.7133,0.7117,0.6718,0.6273,0.5873,0.5558,0.5374,0.5217,0.5096,0.5019,0.4932,0.4845,0.4709,0.4613,0.4574,0.4578,0.4535,0.4447,0.4368,0.4232,0.4096,0.3961,0.3829,0.3612,0.3524,0.3394,0.322,0.2996,0.2815,0.2595,0.219,0.1744,0.1387,0.0986,0.0718,0.0494,0.018,-0.0135,-0.0628,-0.112,-0.1567,-0.1789,-0.2192,-0.2637,-0.3037,-0.3388,-0.3788,-0.4184,-0.4574,-0.4961,-0.5351,-0.5701,-0.6044,-0.6422,-0.6803,-0.7391,-0.7979,-0.8464,-0.895,-0.9408,-0.9725,-1.003,-1.0485,-1.0981,-1.1468,-1.2004,-1.2318,-1.2661,-1.3057,-1.3399,-1.3656,-1.3954,-1.4278,-1.4564,-1.4831,-1.5075,-1.5374,-1.5652,-1.5924,-1.6215,-1.6496,-1.6834,-1.7158,-1.7392,-1.7618,-1.7777,-1.7958,-1.8166,-1.8371,1.055,1.0368,1.0162,1.0007,0.9903,0.9851,0.9681,0.9465,0.9316,0.9159,0.8956,0.8732,0.8474,0.8215,0.7949,0.7783,0.767,0.7622,0.7515,0.7515,0.7521,0.7521,0.7515,0.7515,0.7515,0.7622,0.7563,0.7498,0.7287,0.6932,0.646,0.5918,0.5785,0.5626,0.5444,0.5271,0.5154,0.5072,0.4888,0.484,0.4797,0.4792,0.4792,0.4753,0.467,0.4587,0.4447,0.4312,0.4136,0.3965,0.3877,0.3748,0.3571,0.335,0.3173,0.2996,0.2682,0.2368,0.1925,0.1523,0.1166,0.0898,0.0539,0.018,-0.0135,-0.0628,-0.0985,-0.1164,-0.1612,-0.2016,-0.2417,-0.2771,-0.317,-0.3568,-0.3965,-0.4312,-0.4705,-0.5053,-0.5399,-0.5787,-0.613,-0.6471,-0.7056,-0.7599,-0.8136,-0.8683,-0.9047,-0.9448,-0.9952,-1.0485,-1.0954,-1.1404,-1.1737,-1.2054,-1.2425,-1.2779,-1.3057,-1.3399,-1.3702,-1.4032,-1.4328,-1.4599,-1.4909,-1.5196,-1.5477,-1.5739,-1.5978,-1.6427,-1.686,-1.706,-1.7272,-1.7486,-1.7693,-1.7915,-1.8191,1.0764,1.047,1.0375,1.0265,1.0213,0.9895,0.974,0.9562,0.9465,0.9211,0.9008,0.8738,0.848,0.8268,0.8162,0.7996,0.7717,0.767,0.7676,0.7622,0.7521,0.7676,0.7723,0.7777,0.7777,0.7877,0.7877,0.7883,0.7824,0.7629,0.713,0.6619,0.6272,0.5914,0.5687,0.56,0.5533,0.5434,0.5336,0.5296,0.5281,0.5222,0.5213,0.5106,0.5024,0.4893,0.4762,0.4622,0.4487,0.4364,0.4272,0.4096,0.388,0.3704,0.353,0.3309,0.3129,0.2815,0.2504,0.2059,0.1658,0.13,0.0897,0.0494,0.0314,-0.018,-0.0449,-0.0627,-0.1031,-0.1435,-0.1835,-0.2192,-0.2546,-0.2948,-0.3347,-0.37,-0.4049,-0.4443,-0.4792,-0.5145,-0.5491,-0.583,-0.6179,-0.6761,-0.7474,-0.8013,-0.8561,-0.8958,-0.9399,-0.9903,-1.0302,-1.0687,-1.1067,-1.1404,-1.1811,-1.2126,-1.2449,-1.2814,-1.316,-1.3501,-1.3868,-1.4136,-1.4392,-1.4676,-1.4954,-1.521,-1.5521,-1.5978,-1.6363,-1.668,-1.6935,-1.7199,-1.7509,-1.7805,-1.8103,1.0915,1.0772,1.0506,1.0368,1.0265,1.0162,0.9947,0.9732,0.9569,0.9316,0.9008,0.8798,0.8639,0.848,0.8374,0.8262,0.8156,0.8096,0.8049,0.8049,0.8049,0.8103,0.8096,0.8096,0.8156,0.8203,0.8203,0.8203,0.8209,0.8156,0.7966,0.7477,0.6984,0.6644,0.6393,0.6178,0.61,0.6089,0.6026,0.5954,0.5766,0.5694,0.5593,0.5371,0.5241,0.5154,0.5024,0.4937,0.4806,0.4714,0.4583,0.436,0.4188,0.4056,0.3884,0.366,0.3439,0.3262,0.2951,0.2504,0.2059,0.1658,0.1211,0.0852,0.0807,0.0359,0.009,-0.0179,-0.0448,-0.0897,-0.1208,-0.1566,-0.1925,-0.2328,-0.2729,-0.3081,-0.3388,-0.3785,-0.4136,-0.4487,-0.4792,-0.5135,-0.5491,-0.5884,-0.6634,-0.7349,-0.7931,-0.8472,-0.891,-0.9319,-0.9716,-1.003,-1.0418,-1.0802,-1.118,-1.1516,-1.1811,-1.221,-1.2567,-1.2906,-1.3251,-1.3607,-1.3894,-1.4163,-1.447,-1.4752,-1.5104,-1.5521,-1.5909,-1.6309,-1.6644,-1.6952,-1.7296,-1.7647,-1.7954,1.108,1.082,1.0566,1.0419,1.0368,1.0316,1.0162,0.9947,0.9725,0.9465,0.9106,0.8962,0.8798,0.8692,0.8586,0.8427,0.8374,0.8368,0.8368,0.8368,0.8421,0.8474,0.8533,0.8586,0.8586,0.8639,0.8639,0.8633,0.8633,0.858,0.8514,0.8298,0.7976,0.752,0.7057,0.685,0.6778,0.6767,0.6696,0.6603,0.637,0.6255,0.613,0.5895,0.5718,0.5582,0.5463,0.5301,0.5111,0.498,0.4801,0.4666,0.4539,0.4408,0.4188,0.3968,0.3748,0.3622,0.3262,0.2771,0.2326,0.1928,0.1569,0.1344,0.1165,0.0852,0.0537,0.0403,0.0045,-0.0314,-0.0627,-0.0985,-0.1344,-0.1791,-0.2105,-0.2415,-0.2768,-0.312,-0.3473,-0.3825,-0.4132,-0.4439,-0.4923,-0.5361,-0.6081,-0.6839,-0.7516,-0.7979,-0.8275,-0.8716,-0.9119,-0.9439,-0.9795,-1.0186,-1.0544,-1.0916,-1.1244,-1.1579,-1.1945,-1.227,-1.2603,-1.2978,-1.3314,-1.3547,-1.3855,-1.4227,-1.461,-1.4923,-1.5477,-1.6009,-1.6394,-1.6763,-1.7076,-1.7439,-1.771,1.1307,1.0553,1.053,1.047,1.047,1.0375,1.0265,1.0213,0.9895,0.9629,0.9361,0.9211,0.9054,0.885,0.8804,0.8692,0.8533,0.8474,0.8474,0.8527,0.8633,0.8685,0.8791,0.8903,0.8956,0.9106,0.9047,0.9054,0.9106,0.8949,0.8956,0.891,0.8613,0.8236,0.7633,0.7346,0.7224,0.717,0.7104,0.7049,0.7002,0.6846,0.6758,0.659,0.632,0.6151,0.6032,0.5692,0.5492,0.535,0.5125,0.498,0.4898,0.4679,0.4456,0.4316,0.4148,0.3932,0.3578,0.2907,0.2506,0.2286,0.1971,0.1748,0.1569,0.1299,0.0985,0.0851,0.0538,0.0225,-0.0135,-0.0448,-0.0806,-0.1165,-0.1523,-0.1835,-0.2146,-0.2457,-0.2812,-0.312,-0.3432,-0.3829,-0.4355,-0.4923,-0.5604,-0.6331,-0.7049,-0.7482,-0.7697,-0.8077,-0.8488,-0.8805,-0.9159,-0.9478,-0.9873,-1.0302,-1.0649,-1.0981,-1.1319,-1.1605,-1.1934,-1.227,-1.2591,-1.2883,-1.3276,-1.3635,-1.3986,-1.4342,-1.4954,-1.5594,-1.6231,-1.6649,-1.6942,-1.7216,-1.7479,1.1304,1.0954,1.0721,1.0573,1.0522,1.047,1.0368,1.0265,1.0051,0.9784,0.9569,0.9458,0.9309,0.9159,0.9061,0.9001,0.8949,0.8896,0.8949,0.8949,0.9001,0.9001,0.9113,0.9159,0.9211,0.9211,0.9204,0.9204,0.9152,0.9211,0.9159,0.9106,0.9054,0.879,0.8339,0.8062,0.7998,0.7992,0.7928,0.7866,0.7685,0.7548,0.7382,0.723,0.6919,0.6724,0.666,0.6247,0.5945,0.5768,0.5523,0.5305,0.5164,0.4898,0.4762,0.4583,0.4412,0.4056,0.3748,0.3303,0.3087,0.2732,0.2417,0.2194,0.2018,0.1749,0.1479,0.1254,0.0986,0.0673,0.0314,0.009,-0.0268,-0.0627,-0.0942,-0.1254,-0.1566,-0.188,-0.2237,-0.2457,-0.2765,-0.3255,-0.3781,-0.418,-0.4826,-0.5389,-0.6027,-0.6677,-0.7021,-0.7419,-0.7844,-0.8167,-0.8488,-0.8797,-0.9151,-0.9588,-0.9952,-1.0254,-1.0562,-1.0905,-1.1234,-1.1557,-1.1945,-1.2282,-1.2638,-1.3035,-1.3488,-1.3973,-1.4582,-1.5196,-1.5796,-1.6313,-1.6659,-1.6942,-1.7216,1.1288,1.1052,1.0816,1.0675,1.0573,1.0514,1.0419,1.0272,1.0154,0.994,0.9769,0.9718,0.9629,0.9472,0.942,0.9368,0.9309,0.9316,0.9316,0.9361,0.9375,0.9427,0.9427,0.9427,0.9524,0.9472,0.9472,0.9472,0.9524,0.9472,0.9472,0.9472,0.9368,0.919,0.8967,0.8797,0.8639,0.8626,0.8593,0.8508,0.8339,0.8171,0.8006,0.7816,0.7548,0.7322,0.7152,0.686,0.6424,0.6242,0.5934,0.5657,0.5407,0.5246,0.5072,0.4849,0.4543,0.4232,0.3965,0.3792,0.353,0.3217,0.2904,0.2593,0.2375,0.215,0.1882,0.1657,0.1433,0.112,0.0763,0.0537,0.0313,-0.0045,-0.0359,-0.0672,-0.0987,-0.13,-0.1612,-0.1834,-0.219,-0.2679,-0.3167,-0.352,-0.3957,-0.4478,-0.5,-0.5604,-0.6258,-0.6702,-0.7096,-0.7419,-0.7787,-0.8152,-0.8472,-0.8869,-0.9199,-0.9527,-0.9834,-1.0176,-1.0485,-1.0847,-1.1244,-1.1627,-1.2018,-1.2449,-1.3113,-1.3676,-1.4214,-1.4721,-1.524,-1.5796,-1.6313,-1.6659,-1.6942,1.1297,1.0896,1.0777,1.0718,1.0675,1.0573,1.0411,1.0316,1.0316,1.0205,1.0012,0.9991,0.9895,0.9799,0.9799,0.9732,0.9621,0.9621,0.9621,0.9621,0.9688,0.974,0.9799,0.9851,0.9844,0.9947,0.9895,0.9844,0.9947,0.9844,0.9895,0.9895,0.9673,0.9569,0.9465,0.9368,0.9159,0.9054,0.8949,0.8915,0.8802,0.8672,0.8573,0.8416,0.8216,0.798,0.7772,0.7462,0.7074,0.6731,0.6413,0.6069,0.582,0.5598,0.5338,0.5024,0.4679,0.4499,0.432,0.4192,0.3972,0.366,0.3347,0.2993,0.2726,0.2549,0.2326,0.2061,0.1837,0.1524,0.121,0.1075,0.0896,0.0583,0.0269,-0.0045,-0.0359,-0.0673,-0.0986,-0.1298,-0.1612,-0.2059,-0.2504,-0.2901,-0.3208,-0.3609,-0.4085,-0.4565,-0.5221,-0.5884,-0.6319,-0.6653,-0.7027,-0.7454,-0.778,-0.8095,-0.8423,-0.8748,-0.9159,-0.9469,-0.9785,-1.0137,-1.0534,-1.0916,-1.1356,-1.1898,-1.2626,-1.3229,-1.3749,-1.4246,-1.4721,-1.5359,-1.5909,-1.6355,-1.6633,1.1217,1.1023,1.1023,1.0913,1.082,1.0718,1.0573,1.047,1.0419,1.0368,1.0198,1.0205,1.011,0.9947,0.9947,0.9895,0.9895,0.9895,0.9888,0.9888,0.9947,0.9955,0.9955,1.0007,1.0007,1.0007,0.9999,1.0058,0.9999,1.0007,1.0007,0.9947,0.994,0.9888,0.9836,0.9784,0.9524,0.9316,0.9211,0.9218,0.9159,0.9054,0.9001,0.8894,0.875,0.8572,0.841,0.8119,0.7758,0.7438,0.7116,0.6731,0.6349,0.6046,0.5755,0.5213,0.4937,0.4806,0.4675,0.4504,0.4324,0.4144,0.388,0.3527,0.3214,0.2948,0.2726,0.2462,0.2286,0.1971,0.1703,0.1524,0.1345,0.1031,0.0761,0.0448,0.0135,-0.0225,-0.0538,-0.0807,-0.1121,-0.1478,-0.1925,-0.219,-0.2499,-0.2857,-0.3214,-0.3649,-0.422,-0.4879,-0.5496,-0.583,-0.6215,-0.6641,-0.6937,-0.7259,-0.7634,-0.8005,-0.8333,-0.8707,-0.9022,-0.9381,-0.9795,-1.0264,-1.0791,-1.1468,-1.2174,-1.2743,-1.3195,-1.3715,-1.4195,-1.4862,-1.5507,-1.5909,-1.6328,1.1276,1.1175,1.1124,1.1023,1.0871,1.0828,1.0718,1.0616,1.0565,1.047,1.0368,1.0375,1.0316,1.0213,1.0205,1.0205,1.0205,1.0205,1.0205,1.0205,1.0154,1.0205,1.0205,1.0213,1.0213,1.0205,1.0205,1.0213,1.0205,1.0205,1.0213,1.0213,1.0162,1.0154,1.0095,0.9991,0.9829,0.9621,0.9517,0.9472,0.9427,0.9316,0.9263,0.9263,0.9159,0.9061,0.8942,0.8622,0.8382,0.8062,0.769,0.7375,0.6959,0.6574,0.6236,0.5743,0.5465,0.5271,0.5018,0.4798,0.4644,0.4451,0.4288,0.4012,0.3704,0.3435,0.3126,0.286,0.2684,0.2509,0.2239,0.1971,0.1703,0.1435,0.1165,0.094,0.0583,0.0225,-0.0045,-0.036,-0.0629,-0.0941,-0.1253,-0.1521,-0.1789,-0.2101,-0.237,-0.2679,-0.3249,-0.3957,-0.457,-0.5043,-0.5437,-0.5825,-0.6124,-0.6422,-0.6797,-0.7175,-0.7516,-0.7882,-0.8211,-0.8659,-0.911,-0.9707,-1.0331,-1.0971,-1.1531,-1.2066,-1.2532,-1.3079,-1.3602,-1.4168,-1.4847,-1.5507,-1.5909,1.1276,1.1276,1.1175,1.1065,1.0922,1.0922,1.0922,1.0863,1.0667,1.0522,1.0573,1.0573,1.0522,1.047,1.0462,1.047,1.0419,1.0411,1.0411,1.0522,1.0419,1.0411,1.0411,1.047,1.0419,1.047,1.047,1.0368,1.047,1.0419,1.0419,1.0522,1.0368,1.0308,1.03,1.0205,1.0087,1.002,0.988,0.9799,0.974,0.9577,0.9413,0.9413,0.9316,0.9271,0.9166,0.9051,0.8871,0.8528,0.8293,0.7983,0.7516,0.7014,0.6667,0.6431,0.6074,0.5795,0.5559,0.5344,0.5032,0.4812,0.4538,0.4438,0.4235,0.381,0.3439,0.3258,0.3084,0.2907,0.264,0.242,0.2152,0.1882,0.1612,0.1389,0.112,0.0718,0.0359,0.009,-0.018,-0.0448,-0.0672,-0.0941,-0.1208,-0.1433,-0.1612,-0.1878,-0.2324,-0.2984,-0.3558,-0.4125,-0.4613,-0.4961,-0.5265,-0.5604,-0.5953,-0.6337,-0.6634,-0.7014,-0.7377,-0.7874,-0.8464,-0.9053,-0.9688,-1.0244,-1.0771,-1.1308,-1.1836,-1.2461,-1.2975,-1.3488,-1.4122,-1.4847,-1.5477,1.1276,1.1276,1.1276,1.1226,1.1175,1.1124,1.1074,1.1023,1.0871,1.082,1.082,1.0828,1.0726,1.0675,1.0667,1.0624,1.0522,1.0573,1.0522,1.0522,1.0522,1.0573,1.0522,1.0573,1.0522,1.0522,1.0522,1.0522,1.0522,1.0522,1.0522,1.0522,1.0419,1.0411,1.0403,1.0316,1.03,1.0285,1.0198,1.0058,0.9947,0.9895,0.9784,0.974,0.9643,0.9532,0.942,0.9302,0.9169,0.8996,0.884,0.8479,0.7878,0.7376,0.7074,0.684,0.6631,0.6352,0.6118,0.5913,0.5617,0.5448,0.5245,0.5041,0.4726,0.4133,0.3799,0.3622,0.3439,0.3262,0.304,0.2821,0.26,0.233,0.2016,0.1837,0.1614,0.1211,0.0808,0.0539,0.0269,0.009,-0.0135,-0.0359,-0.0627,-0.0807,-0.0985,-0.1208,-0.1477,-0.1966,-0.2453,-0.3025,-0.3697,-0.4092,-0.4395,-0.4744,-0.5087,-0.5437,-0.5776,-0.6118,-0.6537,-0.7168,-0.7833,-0.8407,-0.8964,-0.9482,-1.0001,-1.0524,-1.1094,-1.1763,-1.227,-1.2754,-1.334,-1.4044,-1.4786,1.1276,1.1276,1.1276,1.1276,1.1276,1.1226,1.1175,1.1175,1.1124,1.1065,1.1015,1.0972,1.0871,1.082,1.0769,1.0769,1.0667,1.0675,1.0718,1.0667,1.0667,1.0718,1.0675,1.0675,1.0624,1.0624,1.0522,1.0522,1.0522,1.0522,1.0522,1.0522,1.0522,1.0522,1.0522,1.0522,1.0522,1.047,1.0419,1.0316,1.0205,1.0102,0.9999,0.9903,0.9844,0.9784,0.974,0.9629,0.9517,0.9361,0.9138,0.8842,0.8403,0.8139,0.7848,0.7534,0.7274,0.6976,0.6756,0.6509,0.6222,0.6021,0.5751,0.5476,0.5309,0.479,0.4414,0.4213,0.3714,0.348,0.3306,0.3132,0.2957,0.2687,0.2373,0.2105,0.1882,0.1526,0.1211,0.0987,0.0763,0.0627,0.0403,0.0135,-0.009,-0.0179,-0.0359,-0.0627,-0.0851,-0.1031,-0.1521,-0.1966,-0.2632,-0.3211,-0.3605,-0.3909,-0.4212,-0.4522,-0.4874,-0.5432,-0.5942,-0.6579,-0.721,-0.766,-0.8113,-0.865,-0.9173,-0.9697,-1.038,-1.1057,-1.1542,-1.2043,-1.2637,-1.3259,-1.3914,1.1276,1.1276,1.1276,1.1276,1.1276,1.1276,1.1267,1.1267,1.1276,1.1276,1.1276,1.1074,1.0972,1.0922,1.0913,1.0913,1.0863,1.082,1.0863,1.0863,1.0863,1.082,1.082,1.0863,1.0769,1.0718,1.0616,1.0624,1.0624,1.0624,1.0616,1.0565,1.0565,1.0573,1.0573,1.0573,1.0624,1.0624,1.0573,1.0573,1.0411,1.0249,1.0102,1.0051,1.0043,0.9991,0.9947,0.9895,0.9732,0.9629,0.942,0.9131,0.8915,0.8691,0.8502,0.8215,0.7883,0.7611,0.7359,0.6991,0.6712,0.6404,0.617,0.5957,0.5795,0.5494,0.5094,0.4688,0.4172,0.3835,0.3705,0.3448,0.3271,0.3046,0.2729,0.2415,0.215,0.1884,0.1658,0.1389,0.1254,0.1119,0.0896,0.0628,0.0494,0.0404,0.0225,-0.0045,-0.0269,-0.0404,-0.0716,-0.1119,-0.1566,-0.2144,-0.2677,-0.3073,-0.3334,-0.3649,-0.4045,-0.4696,-0.5303,-0.5813,-0.6283,-0.6755,-0.7252,-0.7743,-0.8285,-0.8812,-0.9531,-1.0254,-1.0743,-1.1212,-1.1934,-1.2567,-1.3088,1.1276,1.1276,1.1276,1.1276,1.1267,1.1276,1.1276,1.1276,1.1326,1.1276,1.1276,1.1276,1.1175,1.1074,1.1074,1.1023,1.0972,1.0922,1.0913,1.0913,1.0972,1.0922,1.0913,1.0964,1.0922,1.082,1.082,1.0828,1.0824,1.0834,1.0853,1.0894,1.0853,1.0845,1.0836,1.0828,1.0769,1.0769,1.0769,1.0769,1.0718,1.0565,1.0368,1.0316,1.0257,1.0154,1.0058,0.9999,0.9947,0.9844,0.9681,0.9465,0.9263,0.9061,0.8903,0.8692,0.841,0.8247,0.7905,0.7604,0.739,0.7154,0.6925,0.6675,0.6427,0.6192,0.5779,0.5441,0.4979,0.4536,0.4307,0.386,0.3602,0.3363,0.3087,0.2773,0.2462,0.2284,0.2059,0.188,0.1703,0.1523,0.1344,0.1121,0.0986,0.0852,0.0718,0.0449,0.0314,0.018,0.0045,-0.0269,-0.0672,-0.1165,-0.1744,-0.2188,-0.2497,-0.281,-0.3211,-0.3822,-0.4391,-0.4918,-0.5394,-0.5819,-0.6331,-0.679,-0.737,-0.7957,-0.861,-0.9293,-0.9806,-1.0379,-1.1137,-1.1825,-1.2342]}]]